Site Date LOGGERID PROGID SNOWDEP_MED_0_0_01 SNOWDEP_QUAL_0_0_01 WSPD_PRO_MEAN_1000_0_01 WMAG_PRO_MEAN_1000_0_01 WDIR_PRO_MEAN_1000_0_01 WDIR_PRO_STDDEV_1000_0_01 DEWPT_MEAN_150_0_04 DEWPT_MEAN_450_0_01 AIRTEMP_MEAN_150_0_04 AIRTEMP_MEAN_250_0_03 AIRTEMP_MEAN_350_0_02 AIRTEMP_MEAN_450_0_01 RELHUM_MEAN_150_0_04 RELHUM_MEAN_450_0_01 WSPD_PRO_MAX_1000_0_01 AIRTEMP_MAX_150_0_04 AIRTEMP_MAX_250_0_03 AIRTEMP_MAX_350_0_02 AIRTEMP_MAX_450_0_01 AIRTEMP_MIN_150_0_04 AIRTEMP_MIN_250_0_03 AIRTEMP_MIN_350_0_02 AIRTEMP_MIN_450_0_01 DEWPT_MAX_150_0_04 DEWPT_MAX_450_0_01 DEWPT_MIN_150_0_04 DEWPT_MIN_450_0_01 SATVP_MEAN_150_0_04 VAP_MEAN_150_0_04 VPD_MEAN_150_0_04 SATVP_MEAN_450_0_01 VAP_MEAN_450_0_01 VPD_MEAN_450_0_01 SATVP_MEAN_150_0_04 VAP_MEAN_150_0_04 VPD_MEAN_150_0_04 SATVP_MEAN_450_0_01 VAP_MEAN_450_0_01 VPD_MEAN_450_0_01
PRIMET_226 2019-10-01 00:00:00 226 3904.0 0.00 202   0.007     4.606 4.457 4.61 4.605 4.738 4.517 100.000 99.600   4.63 4.616 4.753 4.528 4.59 4.590 4.716 4.508 4.625 4.471 4.585 4.447 8.486 8.486 0.000 8.433 8.398 0.034 8.486 8.486 0.000 8.433 8.398 0.034
PRIMET_226 2019-09-30 23:55:00 226 3904.0 0.00 211   0.007     4.607 4.449 4.61 4.572 4.703 4.516 100.000 99.500   4.63 4.590 4.719 4.525 4.59 4.546 4.690 4.505 4.628 4.459 4.595 4.437 8.486 8.486 0.000 8.432 8.393 0.042 8.486 8.486 0.000 8.432 8.393 0.042
PRIMET_226 2019-09-30 23:50:00 226 3904.0 0.00 0   0.007     4.626 4.466 4.63 4.580 4.714 4.534 100.000 99.500   4.64 4.592 4.719 4.545 4.61 4.562 4.708 4.525 4.638 4.479 4.608 4.454 8.498 8.498 0.000 8.443 8.403 0.042 8.498 8.498 0.000 8.443 8.403 0.042
PRIMET_226 2019-09-30 23:45:00 226 3904.0 0.00 0   0.007     4.637 4.479 4.64 4.596 4.725 4.553 100.000 99.500   4.67 4.609 4.746 4.578 4.62 4.579 4.703 4.535 4.671 4.504 4.618 4.460 8.504 8.504 0.000 8.454 8.410 0.042 8.504 8.504 0.000 8.454 8.410 0.042
PRIMET_226 2019-09-30 23:40:00 226 3904.0 0.00 0   0.007     4.651 4.506 4.65 4.621 4.755 4.584 100.000 99.500   4.66 4.638 4.764 4.600 4.64 4.604 4.743 4.570 4.664 4.520 4.637 4.493 8.512 8.512 0.000 8.473 8.426 0.042 8.512 8.512 0.000 8.473 8.426 0.042
PRIMET_226 2019-09-30 23:35:00 226 3904.0 0.00 0   0.007     4.653 4.521 4.65 4.611 4.750 4.604 100.000 99.400   4.68 4.631 4.780 4.633 4.63 4.590 4.729 4.580 4.683 4.548 4.630 4.497 8.514 8.514 0.000 8.484 8.435 0.051 8.514 8.514 0.000 8.484 8.435 0.051
PRIMET_226 2019-09-30 23:30:00 226 3904.0 0.00 0   0.007     4.742 4.596 4.74 4.656 4.793 4.678 100.000 99.400   4.80 4.711 4.837 4.736 4.68 4.615 4.764 4.633 4.800 4.660 4.679 4.550 8.567 8.567 0.000 8.529 8.480 0.051 8.567 8.567 0.000 8.529 8.480 0.051
PRIMET_226 2019-09-30 23:25:00 226 3904.0 0.00 0   0.007     4.848 4.701 4.85 4.777 4.905 4.778 100.000 99.500   4.90 4.821 4.956 4.826 4.80 4.726 4.845 4.730 4.899 4.751 4.803 4.651 8.631 8.631 0.000 8.588 8.542 0.043 8.631 8.631 0.000 8.588 8.542 0.043
PRIMET_226 2019-09-30 23:20:00 226 3904.0 0.00 211   0.007     4.943 4.804 4.94 4.862 4.999 4.876 100.000 99.500   4.98 4.911 5.058 4.919 4.89 4.819 4.953 4.823 4.983 4.852 4.886 4.749 8.688 8.688 0.000 8.647 8.604 0.043 8.688 8.688 0.000 8.647 8.604 0.043
PRIMET_226 2019-09-30 23:15:00 226 3904.0 0.00 212   0.007     5.032 4.905 5.03 4.966 5.110 4.973 100.000 99.500   5.08 5.020 5.170 5.012 5.00 4.909 5.061 4.929 5.076 4.945 4.996 4.860 8.742 8.742 0.000 8.706 8.665 0.044 8.742 8.742 0.000 8.706 8.665 0.044
PRIMET_226 2019-09-30 23:10:00 226 3904.0 0.00 0   0.007     5.131 4.999 5.13 5.072 5.219 5.064 100.000 99.500   5.18 5.136 5.281 5.112 5.08 5.025 5.175 5.012 5.185 5.049 5.076 4.945 8.803 8.803 0.000 8.762 8.722 0.044 8.803 8.803 0.000 8.762 8.722 0.044
PRIMET_226 2019-09-30 23:05:00 226 3904.0 0.00 0   0.007     5.226 5.076 5.23 5.192 5.324 5.139 100.000 99.600   5.27 5.234 5.360 5.168 5.18 5.144 5.284 5.099 5.268 5.106 5.185 5.036 8.861 8.861 0.000 8.808 8.769 0.035 8.861 8.861 0.000 8.808 8.769 0.035
PRIMET_226 2019-09-30 23:00:00 226 3904.0 0.00 0   0.007     5.281 5.138 5.28 5.272 5.406 5.201 100.000 99.600   5.30 5.295 5.432 5.232 5.26 5.234 5.370 5.168 5.298 5.170 5.265 5.106 8.895 8.895 0.000 8.846 8.807 0.035 8.895 8.895 0.000 8.846 8.807 0.035
PRIMET_226 2019-09-30 22:55:00 226 3904.0 0.00 0   0.007     5.308 5.193 5.31 5.320 5.455 5.255 100.000 99.600   5.34 5.355 5.482 5.285 5.28 5.293 5.422 5.225 5.342 5.222 5.282 5.163 8.912 8.912 0.000 8.879 8.841 0.036 8.912 8.912 0.000 8.879 8.841 0.036
PRIMET_226 2019-09-30 22:50:00 226 3904.0 0.00 0   0.007     5.398 5.245 5.40 5.381 5.502 5.307 100.000 99.600   5.45 5.419 5.530 5.335 5.34 5.360 5.484 5.272 5.448 5.276 5.338 5.207 8.968 8.968 0.000 8.911 8.873 0.036 8.968 8.968 0.000 8.911 8.873 0.036
PRIMET_226 2019-09-30 22:45:00 226 3904.0 0.00 0   0.007     5.462 5.304 5.46 5.458 5.575 5.362 100.000 99.600   5.48 5.490 5.607 5.402 5.44 5.419 5.537 5.338 5.482 5.347 5.438 5.280 9.008 9.008 0.000 8.946 8.909 0.036 9.008 9.008 0.000 8.946 8.909 0.036
PRIMET_226 2019-09-30 22:40:00 226 3904.0 0.00 0   0.007     5.510 5.382 5.51 5.521 5.647 5.437 100.000 99.600   5.55 5.562 5.676 5.472 5.47 5.490 5.617 5.398 5.555 5.416 5.472 5.343 9.038 9.038 0.000 8.992 8.958 0.036 9.038 9.038 0.000 8.992 8.958 0.036
PRIMET_226 2019-09-30 22:35:00 226 3904.0 0.00 199   0.007     5.581 5.430 5.58 5.592 5.713 5.484 100.000 99.600   5.61 5.617 5.736 5.515 5.54 5.568 5.679 5.462 5.615 5.461 5.542 5.407 9.083 9.083 0.000 9.022 8.988 0.036 9.083 9.083 0.000 9.022 8.988 0.036
PRIMET_226 2019-09-30 22:30:00 226 3904.0 0.00 0   0.007     5.610 5.469 5.61 5.636 5.754 5.522 100.000 99.600   5.63 5.651 5.775 5.542 5.59 5.615 5.729 5.498 5.628 5.490 5.588 5.442 9.102 9.101 0.000 9.046 9.012 0.036 9.102 9.101 0.000 9.046 9.012 0.036
PRIMET_226 2019-09-30 22:25:00 226 3904.0 0.00 0   0.007     5.653 5.507 5.65 5.674 5.797 5.560 100.000 99.600   5.68 5.716 5.838 5.588 5.62 5.647 5.775 5.535 5.682 5.536 5.622 5.484 9.128 9.128 0.000 9.070 9.036 0.036 9.128 9.128 0.000 9.070 9.036 0.036
PRIMET_226 2019-09-30 22:20:00 226 3904.0 0.00 194   0.007     5.705 5.542 5.70 5.744 5.863 5.596 100.000 99.600   5.73 5.766 5.882 5.612 5.69 5.717 5.841 5.582 5.728 5.561 5.688 5.527 9.161 9.161 0.000 9.092 9.058 0.036 9.161 9.161 0.000 9.092 9.058 0.036
PRIMET_226 2019-09-30 22:15:00 226 3904.0 0.00 0   0.007     5.698 5.530 5.70 5.751 5.859 5.588 100.000 99.600   5.71 5.760 5.874 5.598 5.68 5.740 5.845 5.575 5.708 5.543 5.685 5.515 9.157 9.157 0.000 9.087 9.051 0.036 9.157 9.157 0.000 9.087 9.051 0.036
PRIMET_226 2019-09-30 22:10:00 226 3904.0 0.00 0   0.007     5.698 5.533 5.70 5.750 5.866 5.594 100.000 99.600   5.70 5.761 5.876 5.612 5.69 5.743 5.850 5.581 5.705 5.553 5.688 5.522 9.157 9.157 0.000 9.091 9.053 0.036 9.157 9.157 0.000 9.091 9.053 0.036
PRIMET_226 2019-09-30 22:05:00 226 3904.0 0.00 0   0.007     5.706 5.526 5.71 5.749 5.858 5.590 100.000 99.600   5.72 5.755 5.865 5.608 5.69 5.743 5.851 5.578 5.721 5.544 5.694 5.512 9.162 9.162 0.000 9.088 9.048 0.036 9.162 9.162 0.000 9.088 9.048 0.036
PRIMET_226 2019-09-30 22:00:00 226 3904.0 0.00 0   0.007     5.715 5.533 5.72 5.749 5.864 5.599 100.000 99.500   5.72 5.759 5.879 5.618 5.70 5.740 5.855 5.588 5.724 5.548 5.698 5.522 9.168 9.168 0.000 9.094 9.053 0.045 9.168 9.168 0.000 9.094 9.053 0.045
PRIMET_226 2019-09-30 21:55:00 226 3904.0 0.00 203   0.007     5.712 5.544 5.71 5.758 5.876 5.614 100.000 99.500   5.74 5.768 5.887 5.627 5.69 5.746 5.863 5.601 5.738 5.558 5.690 5.529 9.166 9.166 0.000 9.104 9.059 0.046 9.166 9.166 0.000 9.104 9.059 0.046
PRIMET_226 2019-09-30 21:50:00 226 3904.0 0.00 0   0.007     5.692 5.526 5.69 5.733 5.858 5.600 100.000 99.500   5.71 5.747 5.877 5.614 5.68 5.719 5.833 5.587 5.707 5.543 5.680 5.508 9.153 9.153 0.000 9.095 9.048 0.045 9.153 9.153 0.000 9.095 9.048 0.045
PRIMET_226 2019-09-30 21:45:00 226 3904.0 0.00 0   0.007     5.719 5.525 5.72 5.736 5.850 5.605 100.000 99.400   5.73 5.756 5.861 5.623 5.70 5.721 5.838 5.590 5.729 5.541 5.704 5.512 9.170 9.170 0.000 9.098 9.047 0.055 9.170 9.170 0.000 9.098 9.047 0.055
PRIMET_226 2019-09-30 21:40:00 226 3904.0 0.00 208   0.007     5.749 5.550 5.75 5.759 5.871 5.630 100.000 99.400   5.77 5.770 5.881 5.646 5.73 5.748 5.857 5.616 5.769 5.566 5.729 5.535 9.189 9.189 0.000 9.114 9.063 0.055 9.189 9.189 0.000 9.114 9.063 0.055
PRIMET_226 2019-09-30 21:35:00 226 3904.0 0.00 208   0.007     5.783 5.584 5.78 5.782 5.890 5.665 100.000 99.400   5.81 5.794 5.908 5.691 5.76 5.771 5.875 5.635 5.808 5.610 5.765 5.553 9.211 9.211 0.000 9.136 9.085 0.055 9.211 9.211 0.000 9.136 9.085 0.055
PRIMET_226 2019-09-30 21:30:00 226 3904.0 0.00 352   0.007     5.829 5.638 5.83 5.829 5.941 5.718 100.000 99.500   5.85 5.859 5.973 5.738 5.79 5.794 5.913 5.688 5.851 5.661 5.788 5.607 9.240 9.240 0.000 9.170 9.119 0.046 9.240 9.240 0.000 9.170 9.119 0.046
PRIMET_226 2019-09-30 21:25:00 226 3904.0 0.00 0   0.007     5.884 5.689 5.88 5.891 6.002 5.767 100.000 99.500   5.93 5.923 6.024 5.798 5.85 5.862 5.978 5.725 5.935 5.722 5.848 5.645 9.276 9.276 0.000 9.201 9.151 0.046 9.276 9.276 0.000 9.201 9.151 0.046
PRIMET_226 2019-09-30 21:20:00 226 3904.0 0.00 215   0.007     5.989 5.761 5.99 5.984 6.081 5.834 100.000 99.500   6.05 6.046 6.134 5.872 5.93 5.934 6.030 5.801 6.052 5.800 5.925 5.724 9.343 9.343 0.000 9.244 9.197 0.046 9.343 9.343 0.000 9.244 9.197 0.046
PRIMET_226 2019-09-30 21:15:00 226 3904.0 0.00 0   0.007     6.089 5.843 6.09 6.091 6.181 5.912 100.000 99.500   6.11 6.129 6.225 5.942 6.06 6.046 6.139 5.882 6.108 5.874 6.062 5.809 9.408 9.408 0.000 9.294 9.249 0.046 9.408 9.408 0.000 9.294 9.249 0.046
PRIMET_226 2019-09-30 21:10:00 226 3904.0 0.00 203   0.007     6.138 5.912 6.14 6.169 6.258 5.979 100.000 99.500   6.16 6.192 6.280 5.998 6.11 6.134 6.225 5.949 6.155 5.932 6.112 5.882 9.440 9.440 0.000 9.337 9.294 0.047 9.440 9.440 0.000 9.337 9.294 0.047
PRIMET_226 2019-09-30 21:05:00 226 3904.0 0.00 279   0.007     6.176 5.945 6.18 6.206 6.289 6.011 100.000 99.500   6.20 6.219 6.300 6.025 6.16 6.186 6.274 5.998 6.202 5.963 6.158 5.934 9.465 9.465 0.000 9.358 9.315 0.047 9.465 9.465 0.000 9.358 9.315 0.047
PRIMET_226 2019-09-30 21:00:00 226 3904.0 0.00 200   0.007     6.193 5.962 6.19 6.225 6.306 6.029 100.000 99.500   6.21 6.230 6.316 6.058 6.18 6.217 6.296 5.998 6.212 5.995 6.178 5.930 9.476 9.476 0.000 9.369 9.326 0.047 9.476 9.476 0.000 9.369 9.326 0.047
PRIMET_226 2019-09-30 20:55:00 226 3904.0 0.00 0   0.007     6.247 6.032 6.25 6.269 6.357 6.095 100.000 99.600   6.29 6.318 6.406 6.135 6.20 6.228 6.310 6.045 6.288 6.074 6.205 5.976 9.512 9.512 0.000 9.412 9.371 0.038 9.512 9.512 0.000 9.412 9.371 0.038
PRIMET_226 2019-09-30 20:50:00 226 3904.0 0.00 0   0.007     6.304 6.107 6.30 6.336 6.436 6.166 100.000 99.600   6.34 6.373 6.469 6.198 6.28 6.315 6.401 6.135 6.338 6.141 6.278 6.074 9.549 9.549 0.000 9.459 9.420 0.038 9.549 9.549 0.000 9.459 9.420 0.038
PRIMET_226 2019-09-30 20:45:00 226 3904.0 0.00 0   0.007     6.322 6.149 6.32 6.373 6.481 6.209 100.000 99.600   6.34 6.381 6.495 6.225 6.31 6.359 6.466 6.192 6.338 6.165 6.312 6.129 9.561 9.561 0.000 9.487 9.447 0.038 9.561 9.561 0.000 9.487 9.447 0.038
PRIMET_226 2019-09-30 20:40:00 226 3904.0 0.00 218   0.007     6.298 6.131 6.30 6.349 6.467 6.193 100.000 99.600   6.32 6.365 6.476 6.205 6.28 6.336 6.458 6.182 6.315 6.146 6.278 6.119 9.545 9.545 0.000 9.476 9.436 0.038 9.545 9.545 0.000 9.476 9.436 0.038
PRIMET_226 2019-09-30 20:35:00 226 3904.0 0.00 216   0.007     6.321 6.145 6.32 6.359 6.476 6.210 100.000 99.600   6.34 6.371 6.491 6.231 6.30 6.344 6.458 6.188 6.338 6.168 6.295 6.120 9.560 9.560 0.000 9.487 9.445 0.038 9.560 9.560 0.000 9.487 9.445 0.038
PRIMET_226 2019-09-30 20:30:00 226 3904.0 0.00 214   0.007     6.332 6.130 6.33 6.358 6.460 6.199 100.000 99.500   6.34 6.366 6.469 6.215 6.32 6.348 6.447 6.185 6.341 6.146 6.318 6.117 9.568 9.568 0.000 9.480 9.435 0.047 9.568 9.568 0.000 9.480 9.435 0.047
PRIMET_226 2019-09-30 20:25:00 226 3904.0 0.00 212   0.007     6.341 6.139 6.34 6.365 6.469 6.210 100.000 99.500   6.35 6.374 6.478 6.224 6.33 6.357 6.461 6.198 6.351 6.154 6.331 6.127 9.574 9.574 0.000 9.487 9.441 0.047 9.574 9.574 0.000 9.487 9.441 0.047
PRIMET_226 2019-09-30 20:20:00 226 3904.0 0.00 220   0.007     6.336 6.141 6.34 6.360 6.463 6.215 100.000 99.500   6.36 6.374 6.473 6.238 6.32 6.343 6.452 6.201 6.358 6.167 6.317 6.127 9.570 9.570 0.000 9.491 9.442 0.047 9.570 9.570 0.000 9.491 9.442 0.047
PRIMET_226 2019-09-30 20:15:00 226 3904.0 0.00 0   0.007     6.403 6.206 6.40 6.416 6.513 6.276 100.000 99.500   6.43 6.454 6.558 6.310 6.36 6.364 6.467 6.231 6.433 6.241 6.357 6.159 9.615 9.615 0.000 9.531 9.485 0.048 9.615 9.615 0.000 9.531 9.485 0.048
PRIMET_226 2019-09-30 20:10:00 226 3904.0 0.00 0   0.007     6.459 6.250 6.46 6.484 6.583 6.319 100.000 99.500   6.48 6.503 6.603 6.337 6.43 6.462 6.553 6.306 6.483 6.269 6.433 6.238 9.652 9.652 0.000 9.559 9.514 0.048 9.652 9.652 0.000 9.559 9.514 0.048
PRIMET_226 2019-09-30 20:05:00 226 3904.0 0.00 227   0.007     6.502 6.270 6.50 6.525 6.618 6.340 100.000 99.500   6.52 6.550 6.647 6.372 6.47 6.506 6.599 6.316 6.522 6.302 6.466 6.243 9.681 9.681 0.000 9.573 9.527 0.048 9.681 9.681 0.000 9.573 9.527 0.048
PRIMET_226 2019-09-30 20:00:00 226 3904.0 0.00 0   0.007     6.507 6.284 6.51 6.558 6.648 6.357 100.000 99.500   6.53 6.567 6.658 6.365 6.49 6.551 6.640 6.344 6.529 6.292 6.491 6.271 9.684 9.684 0.000 9.584 9.536 0.048 9.684 9.684 0.000 9.584 9.536 0.048
PRIMET_226 2019-09-30 19:55:00 226 3904.0 0.00 332   0.007     6.493 6.279 6.49 6.550 6.637 6.355 100.000 99.500   6.51 6.559 6.648 6.374 6.48 6.541 6.631 6.344 6.508 6.297 6.481 6.266 9.675 9.675 0.000 9.583 9.533 0.048 9.675 9.675 0.000 9.583 9.533 0.048
PRIMET_226 2019-09-30 19:50:00 226 3904.0 0.00 323   0.007     6.529 6.296 6.53 6.580 6.668 6.375 100.000 99.500   6.55 6.604 6.689 6.391 6.51 6.554 6.635 6.354 6.554 6.313 6.508 6.275 9.699 9.699 0.000 9.596 9.544 0.048 9.699 9.699 0.000 9.596 9.544 0.048
PRIMET_226 2019-09-30 19:45:00 226 3904.0 0.00 222   0.007     6.508 6.283 6.51 6.577 6.669 6.365 100.000 99.400   6.54 6.604 6.691 6.384 6.48 6.554 6.650 6.341 6.544 6.304 6.481 6.256 9.685 9.685 0.000 9.589 9.535 0.058 9.685 9.685 0.000 9.589 9.535 0.058
PRIMET_226 2019-09-30 19:40:00 226 3904.0 0.00 215   0.007     6.477 6.257 6.48 6.545 6.639 6.345 100.000 99.400   6.50 6.553 6.653 6.354 6.46 6.535 6.627 6.338 6.501 6.268 6.464 6.245 9.664 9.664 0.000 9.576 9.518 0.057 9.664 9.664 0.000 9.576 9.518 0.057
PRIMET_226 2019-09-30 19:35:00 226 3904.0 0.00 0   0.007     6.460 6.241 6.46 6.524 6.616 6.336 100.000 99.400   6.47 6.541 6.635 6.348 6.44 6.505 6.601 6.321 6.474 6.256 6.441 6.224 9.653 9.653 0.000 9.570 9.508 0.057 9.653 9.653 0.000 9.570 9.508 0.057
PRIMET_226 2019-09-30 19:30:00 226 3904.0 0.00 228   0.007     6.434 6.230 6.43 6.488 6.588 6.330 100.000 99.300   6.45 6.512 6.598 6.347 6.42 6.469 6.579 6.314 6.454 6.246 6.417 6.215 9.635 9.635 0.000 9.566 9.500 0.067 9.635 9.635 0.000 9.566 9.500 0.067
PRIMET_226 2019-09-30 19:25:00 226 3904.0 0.00 297   0.007     6.447 6.252 6.45 6.483 6.590 6.356 100.000 99.300   6.46 6.494 6.608 6.377 6.43 6.474 6.575 6.334 6.463 6.275 6.431 6.230 9.644 9.644 0.000 9.584 9.515 0.067 9.644 9.644 0.000 9.584 9.515 0.067
PRIMET_226 2019-09-30 19:20:00 226 3904.0 0.00 281   0.007     6.482 6.289 6.48 6.512 6.630 6.394 100.000 99.300   6.50 6.525 6.644 6.410 6.46 6.499 6.613 6.373 6.503 6.305 6.463 6.269 9.667 9.667 0.000 9.609 9.539 0.067 9.667 9.667 0.000 9.609 9.539 0.067
PRIMET_226 2019-09-30 19:15:00 226 3904.0 0.00 301   0.007     6.504 6.288 6.50 6.535 6.640 6.401 100.000 99.200   6.51 6.547 6.647 6.415 6.49 6.525 6.633 6.386 6.512 6.302 6.492 6.274 9.682 9.682 0.000 9.613 9.539 0.077 9.682 9.682 0.000 9.613 9.539 0.077
PRIMET_226 2019-09-30 19:10:00 226 3904.0 0.00 330   0.007     6.540 6.339 6.54 6.568 6.682 6.454 100.000 99.200   6.59 6.614 6.739 6.494 6.50 6.542 6.643 6.421 6.594 6.380 6.498 6.303 9.706 9.706 0.000 9.649 9.572 0.077 9.706 9.706 0.000 9.649 9.572 0.077
PRIMET_226 2019-09-30 19:05:00 226 3904.0 0.00 290   0.007     6.609 6.384 6.61 6.649 6.766 6.500 100.000 99.200   6.63 6.666 6.785 6.521 6.58 6.617 6.749 6.484 6.628 6.406 6.584 6.365 9.752 9.752 0.000 9.679 9.602 0.077 9.752 9.752 0.000 9.679 9.602 0.077
PRIMET_226 2019-09-30 19:00:00 226 3904.0 0.00 0   0.007     6.613 6.352 6.61 6.649 6.742 6.479 100.000 99.100   6.63 6.658 6.759 6.497 6.60 6.642 6.733 6.467 6.627 6.377 6.597 6.337 9.755 9.755 0.000 9.665 9.581 0.087 9.755 9.755 0.000 9.665 9.581 0.087
PRIMET_226 2019-09-30 18:55:00 226 3904.0 0.00 283   0.007     6.637 6.367 6.64 6.665 6.755 6.501 100.000 99.100   6.65 6.684 6.772 6.524 6.62 6.642 6.733 6.484 6.654 6.389 6.617 6.350 9.771 9.771 0.000 9.680 9.591 0.087 9.771 9.771 0.000 9.680 9.591 0.087
PRIMET_226 2019-09-30 18:50:00 226 3904.0 0.00 0   0.007     6.669 6.394 6.67 6.699 6.791 6.533 100.000 99.000   6.69 6.729 6.818 6.567 6.64 6.681 6.770 6.507 6.694 6.429 6.640 6.365 9.793 9.793 0.000 9.701 9.609 0.097 9.793 9.793 0.000 9.701 9.609 0.097
PRIMET_226 2019-09-30 18:45:00 226 3904.0 0.00 291   0.007     6.739 6.462 6.74 6.777 6.864 6.600 100.000 99.100   6.77 6.815 6.906 6.643 6.70 6.737 6.820 6.570 6.767 6.508 6.700 6.429 9.840 9.840 0.000 9.746 9.654 0.088 9.840 9.840 0.000 9.746 9.654 0.088
PRIMET_226 2019-09-30 18:40:00 226 3904.0 0.00 234   0.007     6.809 6.533 6.81 6.855 6.948 6.669 100.000 99.100   6.85 6.885 6.973 6.696 6.76 6.815 6.911 6.633 6.849 6.559 6.763 6.498 9.887 9.887 0.000 9.793 9.701 0.088 9.887 9.887 0.000 9.793 9.701 0.088
PRIMET_226 2019-09-30 18:35:00 226 3904.0 0.00 289   0.007     6.867 6.567 6.87 6.914 6.993 6.708 100.000 99.000   6.90 6.939 7.025 6.742 6.84 6.884 6.970 6.679 6.898 6.603 6.836 6.536 9.927 9.927 0.000 9.819 9.724 0.098 9.927 9.927 0.000 9.819 9.724 0.098
PRIMET_226 2019-09-30 18:30:00 226 3904.0 0.00 259   0.007     6.925 6.598 6.93 6.989 7.057 6.740 100.000 99.000   6.94 7.014 7.079 6.761 6.91 6.944 7.020 6.728 6.944 6.616 6.905 6.585 9.966 9.966 0.000 9.841 9.745 0.098 9.966 9.966 0.000 9.841 9.745 0.098
PRIMET_226 2019-09-30 18:25:00 226 3904.0 0.00 311   0.007     6.912 6.590 6.91 6.986 7.057 6.743 100.000 99.000   6.93 7.001 7.067 6.758 6.90 6.977 7.047 6.730 6.927 6.610 6.900 6.571 9.958 9.958 0.000 9.843 9.739 0.098 9.958 9.958 0.000 9.843 9.739 0.098
PRIMET_226 2019-09-30 18:20:00 226 3904.0 0.00 279   0.007     6.955 6.608 6.95 7.008 7.075 6.769 100.000 98.900   6.99 7.041 7.109 6.803 6.93 6.971 7.042 6.740 6.987 6.645 6.927 6.578 9.987 9.987 0.000 9.860 9.752 0.108 9.987 9.987 0.000 9.860 9.752 0.108
PRIMET_226 2019-09-30 18:15:00 226 3904.0 0.00 262   0.007     7.007 6.658 7.01 7.079 7.136 6.819 100.000 98.900   7.03 7.105 7.160 6.843 6.98 7.044 7.111 6.803 7.030 6.685 6.980 6.641 10.023 10.023 0.000 9.894 9.785 0.109 10.023 10.023 0.000 9.894 9.785 0.109
PRIMET_226 2019-09-30 18:10:00 226 3904.0 0.00 349   0.007     7.014 6.688 7.01 7.098 7.162 6.852 100.000 98.900   7.03 7.116 7.173 6.866 7.00 7.074 7.141 6.833 7.030 6.705 6.996 6.672 10.028 10.028 0.000 9.917 9.805 0.109 10.028 10.028 0.000 9.917 9.805 0.109
PRIMET_226 2019-09-30 18:05:00 226 3904.0 0.00 255   0.007     7.034 6.695 7.03 7.084 7.155 6.873 100.000 98.800   7.07 7.109 7.190 6.902 7.00 7.071 7.139 6.843 7.072 6.724 7.003 6.667 10.041 10.041 0.000 9.931 9.810 0.119 10.041 10.041 0.000 9.931 9.810 0.119
PRIMET_226 2019-09-30 18:00:00 226 3904.0 0.00 296   0.007     7.100 6.739 7.10 7.142 7.218 6.925 100.000 98.700   7.13 7.181 7.241 6.945 7.07 7.117 7.187 6.899 7.131 6.761 7.069 6.719 10.087 10.087 0.000 9.966 9.840 0.130 10.087 10.087 0.000 9.966 9.840 0.130
PRIMET_226 2019-09-30 17:55:00 226 3904.0 0.00 0   0.007     7.101 6.746 7.13 7.174 7.240 6.952 99.800 98.600   7.16 7.189 7.249 6.980 7.11 7.161 7.226 6.924 7.128 6.769 7.082 6.721 10.108 10.088 0.020 9.985 9.845 0.140 10.108 10.088 0.020 9.985 9.845 0.140
PRIMET_226 2019-09-30 17:50:00 226 3904.0 0.00 230   0.007     7.150 6.805 7.19 7.229 7.290 7.012 99.700 98.600   7.22 7.274 7.331 7.040 7.15 7.189 7.257 6.983 7.190 6.837 7.106 6.774 10.148 10.122 0.030 10.026 9.885 0.140 10.148 10.122 0.030 10.026 9.885 0.140
PRIMET_226 2019-09-30 17:45:00 226 3904.0 0.00 370   0.007     7.239 6.878 7.26 7.304 7.363 7.084 99.800 98.600   7.30 7.344 7.409 7.116 7.22 7.266 7.326 7.043 7.283 6.908 7.187 6.840 10.201 10.184 0.020 10.076 9.934 0.141 10.201 10.184 0.020 10.076 9.934 0.141
PRIMET_226 2019-09-30 17:40:00 226 3904.0 0.00 198   0.007     7.292 6.925 7.32 7.367 7.427 7.146 99.800 98.500   7.35 7.392 7.462 7.192 7.29 7.344 7.399 7.102 7.318 6.975 7.266 6.889 10.242 10.221 0.020 10.119 9.966 0.152 10.242 10.221 0.020 10.119 9.966 0.152
PRIMET_226 2019-09-30 17:35:00 226 3904.0 0.00 0   0.002     7.381 6.987 7.40 7.451 7.506 7.209 99.900 98.500   7.41 7.493 7.527 7.218 7.35 7.395 7.470 7.198 7.412 7.000 7.315 6.968 10.294 10.283 0.010 10.163 10.009 0.152 10.294 10.283 0.010 10.163 10.009 0.152
PRIMET_226 2019-09-30 17:30:00 226 3904.0 0.00 320   0.007     7.458 7.035 7.47 7.490 7.543 7.262 99.900 98.500   7.53 7.568 7.635 7.317 7.41 7.448 7.497 7.211 7.530 7.115 7.394 6.975 10.343 10.337 0.010 10.200 10.042 0.153 10.343 10.337 0.010 10.200 10.042 0.153
PRIMET_226 2019-09-30 17:25:00 226 3904.0 0.00 218   0.007     7.521 7.116 7.52 7.589 7.648 7.318 100.000 98.600   7.54 7.609 7.680 7.349 7.51 7.572 7.619 7.293 7.536 7.164 7.509 7.084 10.382 10.382 0.000 10.239 10.098 0.143 10.382 10.382 0.000 10.239 10.098 0.143
PRIMET_226 2019-09-30 17:20:00 226 3904.0 0.00 337   0.007     7.492 7.122 7.49 7.577 7.639 7.314 100.000 98.700   7.53 7.614 7.686 7.349 7.47 7.527 7.598 7.285 7.525 7.169 7.464 7.085 10.361 10.361 0.000 10.236 10.102 0.133 10.361 10.361 0.000 10.236 10.102 0.133
PRIMET_226 2019-09-30 17:15:00 226 3904.0 0.00 204   0.007     7.407 7.038 7.44 7.523 7.578 7.255 99.700 98.500   7.48 7.556 7.611 7.288 7.43 7.493 7.555 7.238 7.478 7.088 7.370 7.015 10.328 10.301 0.031 10.195 10.044 0.153 10.328 10.301 0.031 10.195 10.044 0.153
PRIMET_226 2019-09-30 17:10:00 226 3904.0 0.00 215   0.007     7.425 7.049 7.48 7.532 7.598 7.280 99.600 98.400   7.50 7.549 7.619 7.294 7.45 7.512 7.575 7.264 7.454 7.070 7.398 7.022 10.352 10.314 0.041 10.212 10.052 0.163 10.352 10.314 0.041 10.212 10.052 0.163
PRIMET_226 2019-09-30 17:05:00 226 3904.0 0.00 214   0.007     7.537 7.099 7.58 7.590 7.648 7.348 99.700 98.300   7.63 7.663 7.715 7.402 7.51 7.512 7.580 7.287 7.604 7.158 7.437 7.031 10.421 10.393 0.031 10.260 10.086 0.174 10.421 10.393 0.031 10.260 10.086 0.174
PRIMET_226 2019-09-30 17:00:00 226 3904.0 0.00 0   0.007     7.585 7.164 7.63 7.673 7.737 7.416 99.700 98.300   7.65 7.694 7.767 7.441 7.60 7.650 7.710 7.385 7.606 7.186 7.567 7.136 10.460 10.428 0.031 10.308 10.131 0.175 10.460 10.428 0.031 10.308 10.131 0.175
PRIMET_226 2019-09-30 16:55:00 226 3904.0 0.00 218   0.007     7.533 7.161 7.64 7.699 7.777 7.436 99.200 98.100   7.68 7.732 7.810 7.460 7.62 7.663 7.749 7.413 7.589 7.186 7.439 7.114 10.470 10.391 0.084 10.322 10.129 0.196 10.470 10.391 0.084 10.322 10.129 0.196
PRIMET_226 2019-09-30 16:50:00 226 3904.0 0.00 0   0.007     7.379 7.070 7.63 7.659 7.733 7.403 98.300 97.700   7.67 7.679 7.747 7.412 7.60 7.634 7.718 7.389 7.432 7.102 7.352 7.036 10.458 10.282 0.178 10.299 10.066 0.237 10.458 10.282 0.178 10.299 10.066 0.237
PRIMET_226 2019-09-30 16:45:00 226 3904.0 0.00 0   0.007     7.463 7.103 7.75 7.738 7.789 7.481 98.000 97.400   7.82 7.840 7.908 7.563 7.67 7.678 7.730 7.408 7.555 7.210 7.373 7.039 10.547 10.341 0.211 10.354 10.089 0.269 10.547 10.341 0.211 10.354 10.089 0.269
PRIMET_226 2019-09-30 16:40:00 226 3904.0 0.00 0   0.007     7.509 7.176 7.81 7.872 7.927 7.554 98.000 97.400   7.84 7.912 7.969 7.586 7.77 7.823 7.877 7.509 7.586 7.239 7.418 7.081 10.586 10.374 0.212 10.405 10.140 0.271 10.586 10.374 0.212 10.405 10.140 0.271
PRIMET_226 2019-09-30 16:35:00 226 3904.0 0.00 292   0.007     7.314 7.036 7.77 7.812 7.869 7.510 96.900 96.800   7.81 7.836 7.885 7.537 7.74 7.798 7.857 7.491 7.397 7.071 7.270 7.004 10.560 10.236 0.327 10.374 10.043 0.332 10.560 10.236 0.327 10.374 10.043 0.332
PRIMET_226 2019-09-30 16:30:00 226 3904.0 0.00 213   0.007     7.365 7.041 7.89 7.840 7.903 7.582 96.500 96.400   7.95 7.862 7.956 7.642 7.83 7.823 7.880 7.536 7.422 7.100 7.314 7.002 10.644 10.272 0.373 10.425 10.046 0.375 10.644 10.272 0.373 10.425 10.046 0.375
PRIMET_226 2019-09-30 16:25:00 226 3904.0 0.00 260   0.007     7.592 7.274 8.03 7.991 8.070 7.763 97.100 96.700   8.09 8.110 8.170 7.864 7.95 7.878 7.956 7.659 7.716 7.434 7.437 7.119 10.749 10.433 0.312 10.555 10.208 0.348 10.749 10.433 0.312 10.555 10.208 0.348
PRIMET_226 2019-09-30 16:20:00 226 3904.0 0.00 292   0.007     7.811 7.516 8.16 8.180 8.250 7.928 97.700 97.200   8.18 8.230 8.290 7.969 8.10 8.110 8.190 7.883 7.846 7.573 7.729 7.453 10.844 10.590 0.249 10.675 10.378 0.299 10.844 10.590 0.249 10.675 10.378 0.299
PRIMET_226 2019-09-30 16:15:00 226 3904.0 0.00 268   0.007     7.832 7.561 8.19 8.230 8.290 7.958 97.600 97.300   8.20 8.250 8.310 7.975 8.16 8.210 8.280 7.941 7.855 7.582 7.793 7.546 10.867 10.605 0.261 10.696 10.410 0.289 10.867 10.605 0.261 10.696 10.410 0.289
PRIMET_226 2019-09-30 16:10:00 226 3904.0 0.00 224   0.007     7.770 7.469 8.16 8.190 8.260 7.911 97.400 97.000   8.20 8.230 8.310 7.957 8.13 8.120 8.190 7.866 7.853 7.567 7.681 7.346 10.844 10.560 0.282 10.662 10.345 0.320 10.844 10.560 0.282 10.662 10.345 0.320
PRIMET_226 2019-09-30 16:05:00 226 3904.0 0.00 373   0.007     7.627 7.270 8.10 8.080 8.140 7.841 96.800 96.200   8.13 8.120 8.180 7.868 8.08 8.060 8.130 7.825 7.685 7.331 7.592 7.249 10.800 10.458 0.346 10.611 10.205 0.403 10.800 10.458 0.346 10.611 10.205 0.403
PRIMET_226 2019-09-30 16:00:00 226 3904.0 0.00 343   0.007     7.580 7.300 8.12 8.130 8.200 7.929 96.400 95.800   8.13 8.170 8.240 7.954 8.11 8.080 8.140 7.874 7.639 7.357 7.486 7.222 10.815 10.424 0.389 10.675 10.226 0.448 10.815 10.424 0.389 10.675 10.226 0.448
PRIMET_226 2019-09-30 15:55:00 226 3904.0 0.00 219   0.007     7.371 7.137 8.25 8.200 8.260 8.080 94.200 93.800   8.42 8.340 8.420 8.280 8.14 8.130 8.190 7.956 7.469 7.214 7.283 7.086 10.911 10.276 0.633 10.786 10.113 0.669 10.911 10.276 0.633 10.786 10.113 0.669
PRIMET_226 2019-09-30 15:50:00 226 3904.0 0.00 205   0.139 20.540 0.145 7.348 7.181 8.76 8.650 8.710 8.590 90.800 90.800   9.15 9.050 9.080 8.980 8.44 8.350 8.440 8.300 7.549 7.399 7.268 7.099 11.295 10.260 1.039 11.166 10.143 1.027 11.295 10.260 1.039 11.166 10.143 1.027
PRIMET_226 2019-09-30 15:45:00 226 3904.0 0.00 198   0.413 19.510 1.025 7.634 7.481 9.55 9.400 9.470 9.410 87.800 87.800   9.98 9.760 9.850 9.880 9.19 9.100 9.130 9.010 7.841 7.718 7.194 7.064 11.913 10.463 1.453 11.802 10.354 1.440 11.913 10.463 1.453 11.802 10.354 1.440
PRIMET_226 2019-09-30 15:40:00 226 3904.0 0.00 186   0.510 0.122 22.000 6.651 6.518 10.70 10.420 10.530 10.620 76.210 75.960 1.032 11.43 11.220 11.350 11.370 10.03 9.800 9.890 9.950 7.547 7.463 5.498 5.297 12.867 9.780 3.061 12.798 9.691 3.077 12.867 9.780 3.061 12.798 9.691 3.077
PRIMET_226 2019-09-30 15:35:00 226 3904.0 0.00 212   0.438 337.300 26.670 5.303 4.597 11.94 11.810 11.970 11.890 63.800 60.960   12.23 12.110 12.310 12.210 11.51 11.290 11.430 11.460 5.943 5.266 4.782 4.119 13.969 8.909 5.057 13.923 8.480 5.436 13.969 8.909 5.057 13.923 8.480 5.436
PRIMET_226 2019-09-30 15:30:00 226 3904.0 0.00 195   0.400 303.900 48.120 5.409 4.262 12.56 12.430 12.630 12.560 61.720 56.950 1.189 12.92 12.830 13.060 12.930 12.26 12.110 12.310 12.230 6.268 4.931 3.523 3.359 14.551 8.975 5.570 14.551 8.283 6.264 14.551 8.975 5.570 14.551 8.283 6.264
PRIMET_226 2019-09-30 15:25:00 226 3904.0 0.00 195   0.336 43.020 57.670 4.648 3.915 13.03 13.040 13.310 13.060 56.770 53.780 1.575 13.22 13.140 13.460 13.270 12.94 12.950 13.170 12.970 5.776 4.682 3.741 3.376 15.006 8.511 6.487 15.035 8.084 6.949 15.006 8.511 6.487 15.035 8.084 6.949
PRIMET_226 2019-09-30 15:20:00 226 3904.0 0.00 190   0.553 330.900 38.450 5.146 4.179 13.46 13.630 13.820 13.490 57.160 53.280 1.183 13.77 14.100 14.200 13.710 13.25 13.190 13.530 13.310 6.089 5.116 3.611 3.435 15.433 8.812 6.612 15.463 8.235 7.224 15.433 8.812 6.612 15.463 8.235 7.224
PRIMET_226 2019-09-30 15:15:00 226 3904.0 0.00 187   0.280 286.300 59.610 4.096 3.398 13.79 14.000 14.120 13.730 52.070 49.660 1.463 13.94 14.180 14.260 13.850 13.66 13.740 13.910 13.620 6.328 5.119 2.651 2.445 15.768 8.187 7.558 15.707 7.794 7.907 15.768 8.187 7.558 15.707 7.794 7.907
PRIMET_226 2019-09-30 15:10:00 226 3904.0 0.00 210   0.177 17.820 66.110 5.758 4.817 14.10 14.340 14.400 13.950 57.270 54.170 1.169 14.27 14.580 14.590 14.080 13.92 14.090 14.150 13.790 7.328 6.892 4.057 2.799 16.089 9.195 6.875 15.933 8.612 7.302 16.089 9.195 6.875 15.933 8.612 7.302
PRIMET_226 2019-09-30 15:05:00 226 3904.0 0.00 218   0.294 268.600 50.610 5.330 3.966 14.03 14.030 14.100 13.760 55.810 51.590 1.006 14.19 14.230 14.260 13.840 13.87 13.840 13.940 13.700 6.357 5.093 2.988 2.862 16.016 8.926 7.077 15.737 8.113 7.618 16.016 8.926 7.077 15.737 8.113 7.618
PRIMET_226 2019-09-30 15:00:00 226 3904.0 0.00 206   0.572 260.300 12.650 6.650 4.711 14.16 14.040 14.070 13.830 60.590 54.150 1.405 14.56 14.530 14.530 14.170 14.01 13.830 13.900 13.690 7.626 6.247 5.422 3.479 16.151 9.780 6.365 15.809 8.548 7.248 16.151 9.780 6.365 15.809 8.548 7.248
PRIMET_226 2019-09-30 14:55:00 226 3904.0 0.00 195   0.175 184.400 46.960 6.637 5.791 15.25 15.430 15.210 14.660 56.730 55.590   15.48 15.720 15.460 14.800 14.70 14.680 14.660 14.270 8.600 8.290 2.911 2.773 17.328 9.771 7.498 16.682 9.216 7.409 17.328 9.771 7.498 16.682 9.216 7.409
PRIMET_226 2019-09-30 14:50:00 226 3904.0 0.00 184   0.055     7.020 6.264 15.01 15.410 15.220 14.530 58.920 57.700   15.11 15.580 15.370 14.580 14.88 15.320 15.110 14.480 8.280 7.416 3.982 3.291 17.063 10.032 7.009 16.543 9.523 6.998 17.063 10.032 7.009 16.543 9.523 6.998
PRIMET_226 2019-09-30 14:45:00 226 3904.0 0.00 252   0.314 163.000 29.970 4.868 4.309 14.62 14.860 14.720 14.090 52.220 51.880   15.06 15.420 15.240 14.520 14.25 14.340 14.250 13.750 8.090 7.209 2.882 2.435 16.639 8.643 7.950 16.078 8.311 7.737 16.639 8.643 7.950 16.078 8.311 7.737
PRIMET_226 2019-09-30 14:40:00 226 3904.0 0.00 196   0.015     6.846 5.231 13.63 13.570 13.560 13.200 63.570 58.440   14.16 14.360 14.270 13.690 13.39 13.170 13.250 12.990 8.250 6.265 6.157 4.651 15.605 9.913 5.685 15.173 8.864 6.306 15.605 9.913 5.685 15.173 8.864 6.306
PRIMET_226 2019-09-30 14:35:00 226 3904.0 0.00 212   0.130 275.500 25.690 5.748 4.925 13.73 13.740 13.740 13.220 58.830 57.330   13.80 13.910 13.860 13.260 13.57 13.350 13.440 13.110 7.263 6.446 2.586 2.458 15.707 9.189 6.466 15.193 8.677 6.483 15.707 9.189 6.466 15.193 8.677 6.483
PRIMET_226 2019-09-30 14:30:00 226 3904.0 0.00 195   0.062     6.520 5.434 13.69 13.540 13.600 13.050 61.880 59.870   13.94 13.900 13.850 13.210 13.53 13.280 13.400 12.940 7.141 6.571 5.530 4.631 15.666 9.693 5.972 15.025 8.990 6.030 15.666 9.693 5.972 15.025 8.990 6.030
PRIMET_226 2019-09-30 14:25:00 226 3904.0 0.00 195   0.007     6.890 5.556 13.65 13.520 13.510 13.000 63.660 60.570   13.93 13.930 13.880 13.170 13.07 13.000 12.980 12.620 7.411 6.723 6.214 4.730 15.625 9.943 5.678 14.976 9.067 5.905 15.625 9.943 5.678 14.976 9.067 5.905
PRIMET_226 2019-09-30 14:20:00 226 3904.0 0.00 198   0.032     6.749 5.556 12.82 12.700 12.730 12.400 66.560 63.030   13.00 12.920 12.910 12.580 12.76 12.600 12.650 12.340 7.314 7.063 6.057 4.604 14.801 9.847 4.949 14.399 9.067 5.323 14.801 9.847 4.949 14.399 9.067 5.323
PRIMET_226 2019-09-30 14:15:00 226 3904.0 0.00 209   0.084     7.233 5.793 12.81 12.750 12.780 12.460 68.850 63.770   12.91 12.800 12.880 12.620 12.77 12.710 12.720 12.370 7.743 6.231 6.872 5.455 14.791 10.179 4.607 14.456 9.217 5.237 14.791 10.179 4.607 14.456 9.217 5.237
PRIMET_226 2019-09-30 14:10:00 226 3904.0 0.00 192   0.058     6.771 5.642 13.12 13.140 13.150 12.770 65.450 61.990   13.19 13.250 13.220 12.840 12.96 12.870 12.940 12.650 8.040 6.863 4.346 2.581 15.094 9.862 5.215 14.753 9.121 5.607 15.094 9.862 5.215 14.753 9.121 5.607
PRIMET_226 2019-09-30 14:05:00 226 3904.0 0.00 203   0.038     5.881 5.243 12.95 13.020 12.990 12.550 62.400 61.290   13.06 13.190 13.150 12.670 12.88 12.880 12.860 12.480 7.582 7.341 2.633 2.371 14.928 9.274 5.613 14.541 8.872 5.629 14.928 9.274 5.613 14.541 8.872 5.629
PRIMET_226 2019-09-30 14:00:00 226 3904.0 0.00 203   0.007     6.722 5.504 12.86 12.950 12.920 12.520 66.260 62.280   12.93 13.030 13.000 12.570 12.79 12.870 12.840 12.470 7.337 6.163 6.214 4.834 14.840 9.828 5.007 14.513 9.034 5.474 14.840 9.828 5.007 14.513 9.034 5.474
PRIMET_226 2019-09-30 13:55:00 226 3904.0 0.00 190   0.007     6.885 6.368 12.84 12.920 12.910 12.560 67.060 65.980   12.91 12.990 12.960 12.600 12.78 12.840 12.870 12.490 7.796 7.539 6.032 5.502 14.820 9.939 4.882 14.551 9.591 4.950 14.820 9.939 4.882 14.551 9.591 4.950
PRIMET_226 2019-09-30 13:50:00 226 3904.0 0.00 219   0.007     6.717 6.444 12.81 12.950 12.950 12.510 66.470 66.500   12.90 13.060 13.070 12.610 12.71 12.800 12.830 12.440 7.381 7.193 5.886 5.499 14.791 9.825 4.960 14.503 9.642 4.859 14.791 9.825 4.960 14.503 9.642 4.859
PRIMET_226 2019-09-30 13:45:00 226 3904.0 0.00 190   0.007     6.210 5.228 12.60 12.690 12.730 12.380 65.030 61.670   12.72 12.810 12.830 12.460 12.54 12.610 12.660 12.340 6.969 6.266 5.500 4.656 14.589 9.487 5.102 14.380 8.862 5.512 14.589 9.487 5.102 14.380 8.862 5.512
PRIMET_226 2019-09-30 13:40:00 226 3904.0 0.00 204   0.080     6.738 6.200 12.58 12.610 12.630 12.360 67.540 66.120   12.61 12.660 12.680 12.400 12.54 12.520 12.530 12.310 7.415 7.202 6.040 5.318 14.570 9.839 4.729 14.361 9.481 4.865 14.570 9.839 4.729 14.361 9.481 4.865
PRIMET_226 2019-09-30 13:35:00 226 3904.0 0.00 194   0.256 183.300 24.000 8.190 7.389 12.92 12.720 12.750 12.720 72.960 70.020   13.22 13.110 13.140 13.090 12.65 12.560 12.570 12.410 8.800 8.550 7.194 6.088 14.898 10.867 4.028 14.704 10.289 4.408 14.898 10.867 4.028 14.704 10.289 4.408
PRIMET_226 2019-09-30 13:30:00 226 3904.0 0.00 203   0.549 200.500 18.230 6.814 5.676 13.58 13.440 13.470 13.340 63.910 60.080 1.463 13.75 13.790 13.760 13.450 13.24 13.110 13.170 13.100 8.200 7.704 3.791 3.098 15.554 9.891 5.613 15.313 9.143 6.113 15.554 9.891 5.613 15.313 9.143 6.113
PRIMET_226 2019-09-30 13:25:00 226 3904.0 0.00 190   0.075     7.766 7.130 13.72 13.650 13.670 13.460 67.320 65.590   13.86 13.730 13.770 13.580 13.65 13.590 13.620 13.370 8.900 8.430 6.268 5.733 15.697 10.557 5.130 15.433 10.108 5.311 15.697 10.557 5.130 15.433 10.108 5.311
PRIMET_226 2019-09-30 13:20:00 226 3904.0 0.00 192   0.183 222.200 4.155 8.360 7.298 14.00 13.910 13.980 13.700 68.820 65.420   14.14 14.130 14.170 13.900 13.87 13.730 13.790 13.580 9.050 8.520 6.906 3.905 15.985 10.993 4.984 15.676 10.225 5.421 15.985 10.993 4.984 15.676 10.225 5.421
PRIMET_226 2019-09-30 13:15:00 226 3904.0 0.00 200   0.413 223.200 9.670 6.419 5.574 14.41 14.370 14.380 14.170 59.140 56.660   14.64 14.750 14.680 14.450 14.16 14.130 14.170 13.910 8.420 7.913 1.149 1.042 16.415 9.625 6.707 16.162 9.078 7.005 16.415 9.625 6.707 16.162 9.078 7.005
PRIMET_226 2019-09-30 13:10:00 226 3904.0 0.00 198   0.622 213.100 29.710 1.909 1.264 14.90 15.020 14.970 14.710 41.770 40.160 1.764 15.03 15.230 15.180 14.860 14.66 14.760 14.700 14.480 6.974 4.945 -0.134 0.059 16.942 7.010 9.866 16.736 6.693 10.015 16.942 7.010 9.866 16.736 6.693 10.015
PRIMET_226 2019-09-30 13:05:00 226 3904.0 0.00 192   0.403 177.900 42.170 3.876 3.330 15.25 15.360 15.330 15.020 47.510 46.290 1.352 15.37 15.510 15.450 15.090 15.07 15.220 15.200 14.910 8.290 7.900 0.414 -0.027 17.328 8.062 9.096 17.074 7.757 9.170 17.328 8.062 9.096 17.074 7.757 9.170
PRIMET_226 2019-09-30 13:00:00 226 3904.0 0.00 242 1.144 1.010 212.200 27.750 2.502 2.643 15.44 15.620 15.500 15.120 42.260 43.570 2.182 15.55 15.770 15.630 15.200 15.34 15.490 15.360 15.050 7.849 7.492 0.084 0.395 17.541 7.314 10.128 17.184 7.387 9.697 17.541 7.314 10.128 17.184 7.387 9.697
PRIMET_226 2019-09-30 12:55:00 226 3904.0 0.00 213   0.291 188.900 39.510 2.954 2.188 15.35 15.450 15.350 15.010 44.010 42.260 1.744 15.51 15.620 15.540 15.100 15.26 15.280 15.240 14.910 8.020 5.804 -0.477 -0.320 17.440 7.553 9.765 17.063 7.152 9.852 17.440 7.553 9.765 17.063 7.152 9.852
PRIMET_226 2019-09-30 12:50:00 226 3904.0 0.00 203   0.830 210.800 25.990 2.613 2.116 15.26 15.330 15.150 14.740 42.750 42.640 2.110 15.55 15.570 15.360 14.920 15.07 15.070 14.920 14.620 7.014 5.927 0.518 0.391 17.339 7.372 9.927 16.769 7.115 9.618 17.339 7.372 9.927 16.769 7.115 9.618
PRIMET_226 2019-09-30 12:45:00 226 3904.0 0.00 203   0.187 161.800 59.020 5.072 3.192 15.02 15.080 14.930 14.580 51.850 46.550   15.11 15.210 15.040 14.620 14.91 14.970 14.840 14.500 7.692 6.367 1.663 0.931 17.074 8.767 8.221 16.596 7.681 8.871 17.074 8.767 8.221 16.596 7.681 8.871
PRIMET_226 2019-09-30 12:40:00 226 3904.0 0.00 184   0.488 209.900 28.020 5.636 4.550 14.86 14.930 14.810 14.520 54.450 51.560 1.143 15.00 15.170 15.020 14.620 14.60 14.700 14.610 14.440 8.570 7.412 1.679 1.715 16.899 9.118 7.697 16.532 8.452 8.008 16.899 9.118 7.697 16.532 8.452 8.008
PRIMET_226 2019-09-30 12:35:00 226 3904.0 0.00 190   0.524 218.400 17.720 3.934 2.624 14.61 14.610 14.630 14.470 49.450 45.140 1.529 14.81 14.910 14.870 14.560 14.52 14.380 14.470 14.400 8.300 6.850 0.434 0.680 16.628 8.095 8.406 16.479 7.377 9.040 16.628 8.095 8.406 16.479 7.377 9.040
PRIMET_226 2019-09-30 12:30:00 226 3904.0 0.00 194   0.770 214.400 28.960 4.552 3.630 14.62 14.680 14.710 14.400 51.280 48.540 2.352 14.69 14.900 14.920 14.520 14.53 14.330 14.390 14.260 8.410 7.084 1.582 1.657 16.639 8.454 8.107 16.404 7.923 8.442 16.639 8.454 8.107 16.404 7.923 8.442
PRIMET_226 2019-09-30 12:25:00 226 3904.0 0.00 187   0.410 216.100 28.000 5.258 3.388 14.67 14.840 14.820 14.420 53.710 47.820 1.594 14.82 15.070 14.980 14.500 14.43 14.270 14.420 14.320 7.858 7.256 1.288 0.900 16.693 8.881 7.727 16.426 7.789 8.571 16.693 8.881 7.727 16.426 7.789 8.571
PRIMET_226 2019-09-30 12:20:00 226 3904.0 0.00 194   0.511 202.000 29.340 3.965 2.868 14.20 14.420 14.450 14.100 50.640 46.870 1.718 14.37 14.810 14.790 14.280 14.00 14.040 14.130 13.910 7.525 5.944 1.184 1.363 16.193 8.112 7.993 16.089 7.507 8.548 16.193 8.112 7.993 16.089 7.507 8.548
PRIMET_226 2019-09-30 12:15:00 226 3904.0 0.00 197   0.282 231.800 47.350 5.151 3.525 14.09 14.050 14.080 13.820 55.430 50.150 1.503 14.24 14.430 14.340 13.870 13.89 13.800 13.940 13.740 8.080 6.895 1.333 1.024 16.078 8.815 7.166 15.799 7.864 7.876 16.078 8.815 7.166 15.799 7.864 7.876
PRIMET_226 2019-09-30 12:10:00 226 3904.0 0.00 189   0.672 212.400 23.340 2.554 1.769 13.80 13.980 13.860 13.580 47.130 45.010 1.294 13.96 14.300 14.140 13.710 13.72 13.710 13.640 13.520 7.694 6.767 0.138 -0.054 15.778 7.341 8.342 15.554 6.940 8.553 15.778 7.341 8.342 15.554 6.940 8.553
PRIMET_226 2019-09-30 12:05:00 226 3904.0 0.00 210   0.706 224.200 20.270 4.214 3.277 13.68 13.810 13.760 13.520 53.230 50.150 1.705 14.00 14.250 14.130 13.730 13.20 13.530 13.510 13.270 7.422 6.897 1.539 1.436 15.656 8.256 7.322 15.494 7.728 7.724 15.656 8.256 7.322 15.494 7.728 7.724
PRIMET_226 2019-09-30 12:00:00 226 3904.0 0.00 197   0.510 206.900 9.830 4.316 3.339 12.72 12.870 13.040 12.970 57.160 52.300 1.888 13.14 13.540 13.630 13.240 12.56 12.470 12.670 12.850 6.959 5.989 1.376 1.171 14.704 8.315 6.299 14.947 7.762 7.130 14.704 8.315 6.299 14.947 7.762 7.130
PRIMET_226 2019-09-30 11:55:00 226 3904.0 0.00 204   0.096 155.200 23.110 5.817 4.139 12.45 12.450 12.660 12.750 64.100 55.900   12.55 12.740 12.900 12.850 12.32 12.220 12.410 12.650 7.311 5.771 3.177 1.983 14.446 9.233 5.186 14.733 8.212 6.497 14.446 9.233 5.186 14.733 8.212 6.497
PRIMET_226 2019-09-30 11:50:00 226 3904.0 0.00 199   0.064     5.720 3.763 12.52 12.600 12.770 12.720 63.410 54.570   12.66 12.890 13.020 12.900 12.23 12.370 12.490 12.360 7.342 6.161 2.707 1.945 14.513 9.171 5.310 14.704 7.998 6.680 14.513 9.171 5.310 14.704 7.998 6.680
PRIMET_226 2019-09-30 11:45:00 226 3904.0 0.00 194   0.250 219.700 13.910 6.200 4.869 12.31 12.210 12.310 12.400 66.340 60.170 1.091 12.56 12.470 12.570 12.660 12.17 12.020 12.150 12.310 7.037 6.467 3.930 1.865 14.314 9.481 4.818 14.399 8.643 5.735 14.314 9.481 4.818 14.399 8.643 5.735
PRIMET_226 2019-09-30 11:40:00 226 3904.0 0.00 197   0.277 185.300 20.270 5.269 3.756 12.30 12.500 12.660 12.500 62.630 55.650   12.63 13.070 13.110 12.800 11.93 12.140 12.320 12.170 7.928 6.776 2.217 1.186 14.304 8.888 5.346 14.494 7.994 6.428 14.304 8.888 5.346 14.494 7.994 6.428
PRIMET_226 2019-09-30 11:35:00 226 3904.0 0.00 196   0.303 197.600 33.550 5.607 4.452 11.68 11.810 12.020 11.980 66.450 60.070   11.90 12.140 12.290 12.170 11.53 11.530 11.730 11.830 7.215 5.807 3.015 2.799 13.731 9.099 4.607 14.006 8.395 5.593 13.731 9.099 4.607 14.006 8.395 5.593
PRIMET_226 2019-09-30 11:30:00 226 3904.0 0.00 193   0.458 202.600 34.950 5.821 4.828 11.48 11.480 11.750 11.940 68.330 61.820 1.267 11.65 11.750 12.070 12.130 11.38 11.260 11.530 11.810 7.251 5.970 2.992 2.628 13.551 9.235 4.292 13.969 8.618 5.333 13.551 9.235 4.292 13.969 8.618 5.333
PRIMET_226 2019-09-30 11:25:00 226 3904.0 0.00 201   0.266 211.700 38.200 5.366 3.988 11.73 12.050 12.290 12.090 65.170 57.750   11.86 12.440 12.600 12.210 11.56 11.690 12.000 11.880 6.951 5.808 2.632 2.261 13.777 8.948 4.798 14.108 8.125 5.961 13.777 8.948 4.798 14.108 8.125 5.961
PRIMET_226 2019-09-30 11:20:00 226 3904.0 0.00 205   0.658 207.100 10.860 5.606 4.176 11.39 11.770 12.030 11.820 67.620 59.540 1.457 11.52 12.020 12.210 11.870 11.24 11.590 11.860 11.730 6.639 6.265 3.952 2.959 13.470 9.099 4.362 13.859 8.233 5.607 13.470 9.099 4.362 13.859 8.233 5.607
PRIMET_226 2019-09-30 11:15:00 226 3904.0 0.00 185   0.576 216.200 22.700 5.375 4.068 10.99 11.350 11.620 11.370 68.410 60.840 1.274 11.21 11.640 11.940 11.690 10.78 10.990 11.250 11.040 6.791 5.637 3.227 2.987 13.117 8.954 4.144 13.452 8.171 5.268 13.117 8.954 4.144 13.452 8.171 5.268
PRIMET_226 2019-09-30 11:10:00 226 3904.0 0.00 190   0.515 201.000 15.730 5.682 4.754 10.53 10.780 10.960 10.700 72.040 66.760 1.281 10.76 11.150 11.340 11.020 10.32 10.460 10.580 10.330 6.755 5.906 3.722 3.039 12.722 9.147 3.557 12.867 8.574 4.277 12.722 9.147 3.557 12.867 8.574 4.277
PRIMET_226 2019-09-30 11:05:00 226 3904.0 0.00 252   0.424 201.800 13.670 6.172 4.836 10.14 10.130 10.160 10.000 76.370 70.330   10.31 10.530 10.580 10.310 9.97 9.740 9.760 9.800 6.513 6.045 5.581 3.346 12.394 9.462 2.929 12.279 8.623 3.643 12.394 9.462 2.929 12.279 8.623 3.643
PRIMET_226 2019-09-30 11:00:00 226 3904.0 0.00 210   0.349 164.400 30.960 6.292 5.057 10.00 9.730 9.860 10.060 77.740 71.070   10.04 9.980 10.190 10.220 9.96 9.560 9.630 9.810 6.841 5.881 5.852 3.811 12.279 9.541 2.733 12.328 8.757 3.567 12.279 9.541 2.733 12.328 8.757 3.567
PRIMET_226 2019-09-30 10:55:00 226 3904.0 0.00 197   0.381 204.500 31.320 5.941 4.752 9.90 9.860 10.000 10.040 76.410 69.660   10.02 10.060 10.180 10.140 9.75 9.700 9.880 9.900 7.083 5.725 4.846 3.599 12.197 9.312 2.877 12.312 8.573 3.735 12.197 9.312 2.877 12.312 8.573 3.735
PRIMET_226 2019-09-30 10:50:00 226 3904.0 0.00 214   0.215 171.400 18.390 5.435 4.143 9.44 9.520 9.720 9.660 76.150 68.550   9.70 10.030 10.100 9.860 9.34 9.340 9.570 9.470 6.358 5.540 3.303 2.497 11.826 8.991 2.820 12.002 8.214 3.775 11.826 8.991 2.820 12.002 8.214 3.775
PRIMET_226 2019-09-30 10:45:00 226 3904.0 0.00 190   0.313 193.600 14.300 5.804 5.000 9.26 9.280 9.420 9.370 78.990 74.170 1.183 9.36 9.410 9.580 9.460 9.07 9.190 9.330 9.170 6.588 5.791 4.584 3.650 11.683 9.224 2.455 11.770 8.723 3.040 11.683 9.224 2.455 11.770 8.723 3.040
PRIMET_226 2019-09-30 10:40:00 226 3904.0 0.00 214   0.351 197.100 12.990 5.520 4.244 8.88 8.900 9.000 8.920 79.470 72.540 1.437 9.05 9.240 9.370 9.120 8.71 8.720 8.830 8.750 6.118 5.090 4.849 2.880 11.387 9.044 2.338 11.418 8.273 3.135 11.387 9.044 2.338 11.418 8.273 3.135
PRIMET_226 2019-09-30 10:35:00 226 3904.0 0.00 199   0.231 181.800 7.479 5.127 4.286 8.57 8.540 8.710 8.720 78.930 73.730   8.70 8.660 8.800 8.760 8.46 8.460 8.650 8.660 5.645 5.188 4.537 2.869 11.151 8.800 2.349 11.264 8.297 2.959 11.151 8.800 2.349 11.264 8.297 2.959
PRIMET_226 2019-09-30 10:30:00 226 3904.0 0.00 194   0.256 199.300 14.480 4.800 3.872 8.25 8.540 8.730 8.580 78.890 72.250   8.46 8.710 8.870 8.730 7.90 8.250 8.430 8.300 5.622 4.623 2.888 2.471 10.911 8.602 2.303 11.158 8.059 3.096 10.911 8.602 2.303 11.158 8.059 3.096
PRIMET_226 2019-09-30 10:25:00 226 3904.0 0.00 191   0.097     4.621 4.109 7.64 8.120 8.350 8.240 81.200 75.210   7.87 8.210 8.450 8.330 7.46 7.978 8.230 8.130 5.246 5.164 3.945 3.417 10.470 8.495 1.968 10.904 8.195 2.703 10.470 8.495 1.968 10.904 8.195 2.703
PRIMET_226 2019-09-30 10:20:00 226 3904.0 0.00 188   0.043     4.983 4.996 7.37 7.719 8.080 8.060 84.800 81.000   7.46 7.970 8.230 8.160 7.21 7.387 7.873 7.948 5.175 5.512 4.595 4.174 10.274 8.712 1.562 10.771 8.720 2.046 10.274 8.712 1.562 10.771 8.720 2.046
PRIMET_226 2019-09-30 10:15:00 226 3904.0 0.00 222   0.007     5.286 4.730 7.02 7.082 7.604 7.784 88.700 81.000   7.19 7.359 7.855 7.935 6.95 6.925 7.446 7.580 5.552 5.231 4.943 3.729 10.031 8.898 1.134 10.570 8.560 2.008 10.031 8.898 1.134 10.570 8.560 2.008
PRIMET_226 2019-09-30 10:10:00 226 3904.0 0.00 194   0.012     4.967 4.878 7.15 7.090 7.567 7.512 86.000 83.400   7.33 7.301 7.645 7.561 6.96 6.920 7.443 7.438 5.128 5.172 4.797 4.110 10.121 8.703 1.417 10.376 8.649 1.722 10.121 8.703 1.417 10.376 8.649 1.722
PRIMET_226 2019-09-30 10:05:00 226 3904.0 0.00 217   0.007     5.227 4.884 7.48 7.527 7.599 7.336 85.600 84.400   7.53 7.627 7.644 7.438 7.36 7.348 7.504 7.215 5.490 5.152 4.793 4.592 10.352 8.862 1.491 10.251 8.652 1.599 10.352 8.862 1.491 10.251 8.652 1.599
PRIMET_226 2019-09-30 10:00:00 226 3904.0 0.00 193   0.007     5.498 4.902 7.32 7.395 7.413 7.100 88.200 85.900   7.50 7.484 7.481 7.192 7.11 7.302 7.330 7.007 5.733 5.168 5.136 4.697 10.244 9.031 1.209 10.087 8.663 1.422 10.244 9.031 1.209 10.087 8.663 1.422
PRIMET_226 2019-09-30 09:55:00 226 3904.0 0.00 203   0.007     5.093 4.852 6.79 7.024 7.139 6.828 88.900 87.200   7.06 7.320 7.322 6.983 6.53 6.744 6.893 6.638 5.524 4.952 4.915 4.721 9.872 8.779 1.096 9.900 8.633 1.267 9.872 8.779 1.096 9.900 8.633 1.267
PRIMET_226 2019-09-30 09:50:00 226 3904.0 0.00 214   0.007     5.030 4.791 6.30 6.489 6.642 6.434 91.600 89.200   6.51 6.726 6.872 6.601 6.11 6.250 6.418 6.275 5.156 5.010 4.907 4.464 9.548 8.741 0.802 9.635 8.596 1.041 9.548 8.741 0.802 9.635 8.596 1.041
PRIMET_226 2019-09-30 09:45:00 226 3904.0 0.00 204   0.007     5.027 4.851 5.95 6.022 6.190 6.068 93.800 91.900   6.09 6.237 6.416 6.265 5.88 5.858 5.963 5.876 5.166 5.056 4.937 4.444 9.318 8.739 0.578 9.395 8.632 0.761 9.318 8.739 0.578 9.395 8.632 0.761
PRIMET_226 2019-09-30 09:40:00 226 3904.0 0.00 195   0.007     5.304 4.676 5.96 5.911 5.971 5.839 95.600 92.200   6.01 5.986 6.009 5.866 5.90 5.859 5.941 5.803 5.617 4.835 5.032 4.450 9.324 8.909 0.410 9.247 8.527 0.721 9.324 8.909 0.410 9.247 8.527 0.721
PRIMET_226 2019-09-30 09:35:00 226 3904.0 0.00 210   0.007     5.490 4.942 5.94 5.945 5.998 5.864 96.900 93.800   6.00 6.024 6.040 5.909 5.91 5.895 5.966 5.841 5.623 5.008 5.398 4.866 9.314 9.026 0.289 9.263 8.687 0.574 9.314 9.026 0.289 9.263 8.687 0.574
PRIMET_226 2019-09-30 09:30:00 226 3904.0 0.00 268   0.007     5.570 5.019 5.87 5.978 6.065 5.935 97.900 93.800   5.93 6.026 6.107 5.966 5.78 5.903 6.013 5.902 5.607 5.130 5.528 4.917 9.267 9.076 0.195 9.309 8.734 0.577 9.267 9.076 0.195 9.309 8.734 0.577
PRIMET_226 2019-09-30 09:25:00 226 3904.0 0.00 200   0.007     5.442 5.064 5.62 5.805 5.962 5.724 98.800 95.500   5.76 5.908 6.053 5.893 5.46 5.639 5.815 5.537 5.568 5.158 5.295 4.923 9.105 8.995 0.109 9.173 8.762 0.413 9.105 8.995 0.109 9.173 8.762 0.413
PRIMET_226 2019-09-30 09:20:00 226 3904.0 0.00 201   0.007     5.169 4.613 5.28 5.487 5.649 5.306 99.200 95.300   5.45 5.655 5.820 5.511 5.11 5.273 5.420 5.135 5.305 4.923 5.015 4.275 8.895 8.826 0.071 8.911 8.490 0.419 8.895 8.826 0.071 8.911 8.490 0.419
PRIMET_226 2019-09-30 09:15:00 226 3904.0 0.00 215   0.007     4.917 4.365 4.96 5.071 5.242 4.994 99.700 95.700   5.08 5.247 5.413 5.121 4.86 4.964 5.052 4.808 4.978 4.488 4.858 4.225 8.697 8.672 0.026 8.719 8.343 0.375 8.697 8.672 0.026 8.719 8.343 0.375
PRIMET_226 2019-09-30 09:10:00 226 3904.0 0.00 193   0.007     4.699 4.174 4.70 4.805 4.868 4.593 100.000 97.100   4.85 4.962 5.036 4.782 4.52 4.651 4.721 4.437 4.849 4.320 4.523 4.037 8.541 8.541 0.000 8.478 8.232 0.246 8.541 8.541 0.000 8.478 8.232 0.246
PRIMET_226 2019-09-30 09:05:00 226 3904.0 0.00 211   0.007     4.376 3.896 4.38 4.459 4.561 4.290 100.000 97.300   4.52 4.623 4.703 4.407 4.26 4.330 4.451 4.191 4.517 4.003 4.257 3.835 8.350 8.350 0.000 8.300 8.073 0.224 8.350 8.350 0.000 8.300 8.073 0.224
PRIMET_226 2019-09-30 09:00:00 226 3904.0 0.00 206   0.007     4.145 3.811 4.14 4.245 4.393 4.117 100.000 97.900   4.27 4.321 4.455 4.204 4.01 4.114 4.299 4.024 4.267 3.877 4.014 3.733 8.216 8.216 0.000 8.199 8.025 0.172 8.216 8.216 0.000 8.199 8.025 0.172
PRIMET_226 2019-09-30 08:55:00 226 3904.0 0.00 212   0.007     3.886 3.694 3.89 4.009 4.251 3.953 100.000 98.200   3.99 4.116 4.295 4.024 3.81 3.932 4.212 3.895 3.994 3.736 3.805 3.675 8.067 8.067 0.000 8.105 7.959 0.146 8.067 8.067 0.000 8.105 7.959 0.146
PRIMET_226 2019-09-30 08:50:00 226 3904.0 0.00 195   0.007     3.678 3.655 3.68 3.810 4.088 3.798 100.000 99.000   3.80 3.929 4.205 3.902 3.55 3.652 3.871 3.623 3.795 3.737 3.553 3.498 7.950 7.950 0.000 8.017 7.937 0.080 7.950 7.950 0.000 8.017 7.937 0.080
PRIMET_226 2019-09-30 08:45:00 226 3904.0 0.00 206   0.007     3.450 3.348 3.45 3.524 3.693 3.458 100.000 99.200   3.54 3.642 3.848 3.606 3.39 3.464 3.608 3.310 3.539 3.479 3.386 3.213 7.823 7.823 0.000 7.827 7.767 0.063 7.823 7.823 0.000 7.827 7.767 0.063
PRIMET_226 2019-09-30 08:40:00 226 3904.0 0.00 204   0.007     3.267 3.088 3.27 3.404 3.522 3.169 100.000 99.400   3.40 3.471 3.599 3.316 3.12 3.294 3.402 3.020 3.396 3.221 3.120 2.951 7.722 7.722 0.000 7.669 7.625 0.046 7.722 7.722 0.000 7.669 7.625 0.046
PRIMET_226 2019-09-30 08:35:00 226 3904.0 0.00 198   0.007     2.953 2.792 2.95 3.106 3.211 2.854 100.000 99.600   3.10 3.276 3.376 3.000 2.81 2.961 3.066 2.713 3.100 2.932 2.806 2.660 7.552 7.552 -0.000 7.499 7.466 0.030 7.552 7.552 -0.000 7.499 7.466 0.030
PRIMET_226 2019-09-30 08:30:00 226 3904.0 0.00 205   0.007     2.663 2.496 2.66 2.791 2.901 2.542 100.000 99.700   2.79 2.950 3.063 2.696 2.52 2.635 2.740 2.389 2.786 2.642 2.523 2.349 7.398 7.398 0.000 7.335 7.311 0.022 7.398 7.398 0.000 7.335 7.311 0.022
PRIMET_226 2019-09-30 08:25:00 226 3904.0 0.00 209   0.007     2.378 2.219 2.38 2.454 2.554 2.251 100.000 99.800   2.50 2.615 2.722 2.386 2.28 2.328 2.423 2.140 2.500 2.349 2.277 2.118 7.249 7.249 0.000 7.184 7.167 0.014 7.249 7.249 0.000 7.184 7.167 0.014
PRIMET_226 2019-09-30 08:20:00 226 3904.0 0.00 205   0.007     2.132 1.994 2.13 2.215 2.317 2.011 100.000 99.900   2.26 2.315 2.426 2.136 1.99 2.085 2.177 1.876 2.263 2.115 1.986 1.863 7.123 7.123 0.000 7.062 7.053 0.007 7.123 7.123 0.000 7.062 7.053 0.007
PRIMET_226 2019-09-30 08:15:00 226 3904.0 0.00 369   0.007     1.850 1.763 1.85 1.918 2.038 1.768 100.000 100.000   1.97 2.051 2.162 1.873 1.75 1.794 1.922 1.680 1.970 1.864 1.754 1.680 6.981 6.981 0.000 6.940 6.937 0.000 6.981 6.981 0.000 6.940 6.937 0.000
PRIMET_226 2019-09-30 08:10:00 226 3904.0 0.00 209   0.007     1.687 1.606 1.69 1.717 1.843 1.606 100.000 100.000   1.76 1.784 1.907 1.670 1.61 1.637 1.758 1.530 1.757 1.670 1.614 1.530 6.900 6.900 0.000 6.860 6.860 0.000 6.900 6.900 0.000 6.860 6.860 0.000
PRIMET_226 2019-09-30 08:05:00 226 3904.0 0.00 219   0.007     1.551 1.464 1.55 1.601 1.721 1.464 100.000 100.000   1.60 1.633 1.753 1.517 1.47 1.538 1.656 1.381 1.604 1.517 1.468 1.381 6.833 6.833 0.000 6.790 6.790 0.000 6.833 6.833 0.000 6.790 6.790 0.000
PRIMET_226 2019-09-30 08:00:00 226 3904.0 0.00 216   0.007     1.375 1.287 1.38 1.407 1.529 1.287 100.000 100.000   1.47 1.535 1.645 1.374 1.30 1.314 1.442 1.211 1.468 1.374 1.304 1.211 6.747 6.747 -0.000 6.704 6.704 0.000 6.747 6.747 -0.000 6.704 6.704 0.000
PRIMET_226 2019-09-30 07:55:00 226 3904.0 0.00 210   0.007     1.222 1.140 1.22 1.251 1.369 1.140 100.000 100.000   1.30 1.296 1.427 1.214 1.12 1.185 1.302 1.064 1.301 1.214 1.118 1.064 6.673 6.673 0.000 6.633 6.633 0.000 6.673 6.673 0.000 6.633 6.633 0.000
PRIMET_226 2019-09-30 07:50:00 226 3904.0 0.00 208   0.007     1.015 0.966 1.01 1.065 1.195 0.966 100.000 100.000   1.11 1.177 1.287 1.061 0.93 0.962 1.095 0.877 1.111 1.061 0.930 0.877 6.574 6.574 0.000 6.551 6.551 -0.000 6.574 6.574 0.000 6.551 6.551 -0.000
PRIMET_226 2019-09-30 07:45:00 226 3904.0 0.00 206   0.007     0.848 0.791 0.85 0.859 1.002 0.791 100.000 100.000   0.92 0.950 1.083 0.870 0.77 0.775 0.921 0.697 0.917 0.870 0.774 0.697 6.495 6.495 -0.000 6.468 6.468 -0.000 6.495 6.495 -0.000 6.468 6.468 -0.000
PRIMET_226 2019-09-30 07:40:00 226 3904.0 0.00 203   0.007     0.654 0.609 0.65 0.664 0.816 0.609 100.000 100.000   0.76 0.775 0.908 0.697 0.55 0.549 0.716 0.520 0.757 0.697 0.554 0.520 6.405 6.405 0.000 6.384 6.384 0.000 6.405 6.405 0.000 6.384 6.384 0.000
PRIMET_226 2019-09-30 07:35:00 226 3904.0 0.00 220   0.007     0.467 0.436 0.47 0.458 0.620 0.436 100.000 100.000   0.54 0.544 0.698 0.520 0.39 0.388 0.542 0.347 0.540 0.520 0.387 0.347 6.319 6.319 0.000 6.304 6.304 0.000 6.319 6.319 0.000 6.304 6.304 0.000
PRIMET_226 2019-09-30 07:30:00 226 3904.0 0.00 206   0.007     0.322 0.279 0.32 0.270 0.416 0.279 100.000 100.000   0.39 0.378 0.532 0.353 0.28 0.204 0.342 0.240 0.387 0.353 0.276 0.240 6.252 6.252 0.000 6.233 6.233 0.000 6.252 6.252 0.000 6.233 6.233 0.000
PRIMET_226 2019-09-30 07:25:00 226 3904.0 0.00 187   0.007     0.241 0.189 0.24 0.160 0.305 0.189 100.000 100.000   0.28 0.214 0.340 0.243 0.20 0.118 0.273 0.153 0.283 0.243 0.203 0.153 6.216 6.216 0.000 6.192 6.192 0.000 6.216 6.216 0.000 6.192 6.192 0.000
PRIMET_226 2019-09-30 07:20:00 226 3904.0 0.00 196   0.007     0.203 0.161 0.20 0.126 0.286 0.161 100.000 100.000   0.22 0.131 0.299 0.176 0.19 0.118 0.274 0.152 0.223 0.176 0.186 0.152 6.199 6.199 0.000 6.180 6.180 0.000 6.199 6.199 0.000 6.180 6.180 0.000
PRIMET_226 2019-09-30 07:15:00 226 3904.0 0.00 203   0.012     0.186 0.172 0.19 0.127 0.294 0.172 100.000 100.000   0.20 0.141 0.315 0.189 0.17 0.115 0.281 0.156 0.199 0.189 0.175 0.156 6.191 6.191 0.000 6.185 6.185 0.000 6.191 6.191 0.000 6.185 6.185 0.000
PRIMET_226 2019-09-30 07:10:00 226 3904.0 0.00 203   0.007     0.195 0.194 0.19 0.154 0.330 0.194 100.000 100.000   0.21 0.171 0.350 0.212 0.18 0.138 0.307 0.169 0.209 0.212 0.182 0.169 6.195 6.195 0.000 6.195 6.195 0.000 6.195 6.195 0.000 6.195 6.195 0.000
PRIMET_226 2019-09-30 07:05:00 226 3904.0 0.00 205   0.007     0.105 0.097 0.10 0.064 0.239 0.097 100.000 100.000   0.19 0.161 0.319 0.169 0.06 -0.006 0.170 0.052 0.186 0.169 0.055 0.052 6.155 6.155 0.000 6.151 6.151 0.000 6.155 6.155 0.000 6.151 6.151 0.000
PRIMET_226 2019-09-30 07:00:00 226 3904.0 0.00 201   0.007     0.058 0.063 0.06 -0.026 0.161 0.063 100.000 100.000   0.07 -0.001 0.173 0.072 0.05 -0.045 0.147 0.052 0.072 0.072 0.046 0.052 6.134 6.134 0.000 6.136 6.136 0.000 6.134 6.134 0.000 6.136 6.136 0.000
PRIMET_226 2019-09-30 06:55:00 226 3904.0 0.00 201   0.007     0.069 0.047 0.07 -0.024 0.154 0.047 100.000 100.000   0.09 -0.009 0.165 0.069 0.04 -0.042 0.145 0.029 0.089 0.069 0.042 0.029 6.139 6.139 0.000 6.129 6.129 0.000 6.139 6.139 0.000 6.129 6.129 0.000
PRIMET_226 2019-09-30 06:50:00 226 3904.0 0.00 202   0.007     0.020 0.062 0.02 -0.033 0.165 0.062 100.000 100.000   0.04 -0.019 0.173 0.078 0.01 -0.045 0.152 0.049 0.039 0.078 0.008 0.049 6.117 6.117 0.000 6.135 6.135 0.000 6.117 6.117 0.000 6.135 6.135 0.000
PRIMET_226 2019-09-30 06:45:00 226 3904.0 0.00 201   0.007     0.017 0.057 0.02 -0.067 0.134 0.057 100.000 100.000   0.04 -0.040 0.165 0.075 0.00 -0.091 0.104 0.038 0.035 0.075 0.004 0.038 6.115 6.115 0.000 6.133 6.133 0.000 6.115 6.115 0.000 6.133 6.133 0.000
PRIMET_226 2019-09-30 06:40:00 226 3904.0 0.00 196   0.007     0.070 0.074 0.07 -0.038 0.139 0.074 100.000 100.000   0.11 0.000 0.169 0.091 0.04 -0.075 0.109 0.058 0.111 0.091 0.038 0.058 6.139 6.139 0.000 6.141 6.141 0.000 6.139 6.139 0.000 6.141 6.141 0.000
PRIMET_226 2019-09-30 06:35:00 226 3904.0 0.00 202   0.007     0.177 0.114 0.18 0.048 0.208 0.114 100.000 100.000   0.25 0.125 0.271 0.144 0.11 0.000 0.159 0.087 0.247 0.144 0.107 0.087 6.187 6.187 0.000 6.159 6.159 0.000 6.187 6.187 0.000 6.159 6.159 0.000
PRIMET_226 2019-09-30 06:30:00 226 3904.0 0.00 201   0.007     0.222 0.145 0.22 0.130 0.289 0.145 100.000 100.000   0.25 0.154 0.305 0.160 0.17 0.089 0.268 0.133 0.254 0.160 0.173 0.133 6.207 6.207 0.000 6.173 6.173 0.000 6.207 6.207 0.000 6.173 6.173 0.000
PRIMET_226 2019-09-30 06:25:00 226 3904.0 0.00 208   0.007     0.159 0.152 0.16 0.101 0.281 0.152 100.000 100.000   0.18 0.117 0.304 0.173 0.10 0.087 0.260 0.113 0.180 0.173 0.100 0.113 6.179 6.179 0.000 6.176 6.176 0.000 6.179 6.179 0.000 6.176 6.176 0.000
PRIMET_226 2019-09-30 06:20:00 226 3904.0 0.00 202   0.007     0.043 0.076 0.04 -0.005 0.174 0.076 100.000 100.000   0.09 0.074 0.250 0.110 0.01 -0.032 0.142 0.053 0.087 0.110 0.010 0.053 6.127 6.127 -0.000 6.142 6.142 0.000 6.127 6.127 -0.000 6.142 6.142 0.000
PRIMET_226 2019-09-30 06:15:00 226 3904.0 0.00 201   0.007     0.063 0.095 0.06 0.002 0.191 0.095 100.000 100.000   0.09 0.030 0.214 0.103 0.03 -0.018 0.171 0.087 0.093 0.103 0.033 0.087 6.136 6.136 0.000 6.150 6.150 0.000 6.136 6.136 0.000 6.150 6.150 0.000
PRIMET_226 2019-09-30 06:10:00 226 3904.0 0.00 206   0.007     0.077 0.111 0.08 -0.032 0.184 0.111 100.000 100.000   0.11 -0.013 0.209 0.130 0.03 -0.054 0.161 0.090 0.110 0.130 0.030 0.090 6.142 6.142 0.000 6.157 6.157 -0.000 6.142 6.142 0.000 6.157 6.157 -0.000
PRIMET_226 2019-09-30 06:05:00 226 3904.0 0.00 203   0.007     0.101 0.081 0.10 -0.021 0.174 0.081 100.000 100.000   0.12 -0.009 0.204 0.107 0.08 -0.034 0.156 0.060 0.117 0.107 0.083 0.060 6.153 6.153 0.000 6.144 6.144 0.000 6.153 6.153 0.000 6.144 6.144 0.000
PRIMET_226 2019-09-30 06:00:00 226 3904.0 0.00 204   0.007     0.127 0.090 0.13 -0.003 0.181 0.090 100.000 100.000   0.14 0.025 0.202 0.117 0.11 -0.029 0.158 0.067 0.140 0.117 0.113 0.067 6.164 6.164 0.000 6.148 6.148 0.000 6.164 6.164 0.000 6.148 6.148 0.000
PRIMET_226 2019-09-30 05:55:00 226 3904.0 0.00 211   0.007     0.157 0.141 0.16 0.043 0.235 0.141 100.000 100.000   0.19 0.082 0.274 0.163 0.13 0.012 0.207 0.117 0.193 0.163 0.127 0.117 6.178 6.178 0.000 6.171 6.171 0.000 6.178 6.178 0.000 6.171 6.171 0.000
PRIMET_226 2019-09-30 05:50:00 226 3904.0 0.00 204   0.007     0.206 0.165 0.21 0.084 0.253 0.165 100.000 100.000   0.24 0.118 0.282 0.193 0.18 0.069 0.236 0.140 0.240 0.193 0.183 0.140 6.200 6.200 0.000 6.182 6.182 0.000 6.200 6.200 0.000 6.182 6.182 0.000
PRIMET_226 2019-09-30 05:45:00 226 3904.0 0.00 201   0.007     0.267 0.200 0.27 0.119 0.288 0.200 100.000 100.000   0.31 0.136 0.305 0.226 0.23 0.101 0.272 0.183 0.312 0.223 0.233 0.183 6.228 6.228 0.000 6.197 6.197 0.000 6.228 6.228 0.000 6.197 6.197 0.000
PRIMET_226 2019-09-30 05:40:00 226 3904.0 0.00 205   0.007     0.319 0.238 0.32 0.164 0.330 0.241 100.000 100.000   0.34 0.186 0.352 0.269 0.29 0.141 0.305 0.209 0.336 0.265 0.292 0.207 6.251 6.251 0.000 6.216 6.214 0.000 6.251 6.251 0.000 6.216 6.214 0.000
PRIMET_226 2019-09-30 05:35:00 226 3904.0 0.00 198   0.007     0.334 0.284 0.33 0.200 0.378 0.290 100.000 100.000   0.35 0.213 0.392 0.316 0.32 0.183 0.354 0.266 0.349 0.308 0.316 0.259 6.258 6.258 0.000 6.238 6.235 0.000 6.258 6.258 0.000 6.238 6.235 0.000
PRIMET_226 2019-09-30 05:30:00 226 3904.0 0.00 198   0.007     0.381 0.344 0.38 0.246 0.426 0.352 100.000 99.900   0.41 0.288 0.472 0.385 0.35 0.212 0.391 0.309 0.415 0.379 0.352 0.301 6.279 6.279 0.000 6.266 6.262 0.006 6.279 6.279 0.000 6.266 6.262 0.006
PRIMET_226 2019-09-30 05:25:00 226 3904.0 0.00 198   0.007     0.446 0.406 0.45 0.331 0.510 0.417 100.000 99.900   0.48 0.361 0.532 0.434 0.41 0.293 0.467 0.385 0.478 0.424 0.415 0.375 6.309 6.309 0.000 6.296 6.291 0.006 6.309 6.309 0.000 6.296 6.291 0.006
PRIMET_226 2019-09-30 05:20:00 226 3904.0 0.00 193   0.007     0.517 0.422 0.52 0.371 0.532 0.436 100.000 99.900   0.55 0.409 0.570 0.461 0.48 0.353 0.511 0.421 0.554 0.446 0.481 0.406 6.341 6.341 0.000 6.304 6.298 0.006 6.341 6.341 0.000 6.304 6.298 0.006
PRIMET_226 2019-09-30 05:15:00 226 3904.0 0.00 205   0.007     0.576 0.489 0.58 0.465 0.616 0.504 100.000 99.900   0.59 0.511 0.662 0.544 0.55 0.413 0.562 0.458 0.594 0.528 0.554 0.441 6.369 6.369 0.000 6.335 6.329 0.006 6.369 6.369 0.000 6.335 6.329 0.006
PRIMET_226 2019-09-30 05:10:00 226 3904.0 0.00 205   0.007     0.572 0.510 0.57 0.459 0.620 0.529 100.000 99.900   0.60 0.483 0.644 0.567 0.56 0.439 0.613 0.500 0.597 0.548 0.557 0.481 6.367 6.367 0.000 6.347 6.338 0.006 6.367 6.367 0.000 6.347 6.338 0.006
PRIMET_226 2019-09-30 05:05:00 226 3904.0 0.00 201   0.007     0.659 0.594 0.66 0.521 0.688 0.612 100.000 99.900   0.69 0.570 0.734 0.657 0.61 0.471 0.625 0.567 0.691 0.640 0.611 0.547 6.407 6.407 0.000 6.385 6.377 0.006 6.407 6.407 0.000 6.385 6.377 0.006
PRIMET_226 2019-09-30 05:00:00 226 3904.0 0.00 204   0.007     0.743 0.661 0.74 0.621 0.782 0.678 100.000 99.900   0.81 0.682 0.846 0.741 0.69 0.578 0.729 0.634 0.807 0.725 0.694 0.617 6.446 6.446 0.000 6.416 6.408 0.006 6.446 6.446 0.000 6.416 6.408 0.006
PRIMET_226 2019-09-30 04:55:00 226 3904.0 0.00 204   0.007     0.811 0.730 0.81 0.717 0.883 0.749 100.000 99.900   0.84 0.756 0.920 0.784 0.76 0.672 0.833 0.704 0.844 0.768 0.757 0.678 6.478 6.478 0.000 6.449 6.440 0.006 6.478 6.478 0.000 6.449 6.440 0.006
PRIMET_226 2019-09-30 04:50:00 226 3904.0 0.00 202   0.007     0.791 0.676 0.79 0.669 0.812 0.702 100.000 99.800   0.82 0.700 0.838 0.730 0.76 0.634 0.787 0.677 0.821 0.702 0.760 0.652 6.468 6.468 -0.000 6.427 6.415 0.013 6.468 6.468 -0.000 6.427 6.415 0.013
PRIMET_226 2019-09-30 04:45:00 226 3904.0 0.00 204   0.007     0.814 0.706 0.81 0.735 0.864 0.737 100.000 99.800   0.83 0.777 0.893 0.757 0.77 0.694 0.835 0.723 0.834 0.721 0.770 0.688 6.479 6.479 0.000 6.443 6.429 0.013 6.479 6.479 0.000 6.443 6.429 0.013
PRIMET_226 2019-09-30 04:40:00 226 3904.0 0.00 202   0.006     0.753 0.715 0.75 0.666 0.833 0.751 100.000 99.700   0.77 0.700 0.859 0.790 0.73 0.646 0.817 0.714 0.773 0.751 0.727 0.680 6.451 6.451 0.000 6.450 6.433 0.019 6.451 6.451 0.000 6.450 6.433 0.019
PRIMET_226 2019-09-30 04:35:00 226 3904.0 0.00 209   0.007     0.803 0.778 0.80 0.725 0.897 0.818 100.000 99.700   0.82 0.742 0.914 0.849 0.78 0.691 0.872 0.783 0.823 0.809 0.776 0.744 6.474 6.474 0.000 6.481 6.462 0.019 6.474 6.474 0.000 6.481 6.462 0.019
PRIMET_226 2019-09-30 04:30:00 226 3904.0 0.00 209   0.007     0.837 0.835 0.84 0.771 0.953 0.878 100.000 99.700   0.85 0.783 0.972 0.903 0.82 0.748 0.924 0.853 0.853 0.857 0.816 0.811 6.490 6.490 0.000 6.509 6.489 0.020 6.490 6.490 0.000 6.509 6.489 0.020
PRIMET_226 2019-09-30 04:25:00 226 3904.0 0.00 195   0.007     0.918 0.915 0.92 0.819 1.017 0.958 100.000 99.700   0.99 0.890 1.077 1.012 0.85 0.749 0.949 0.896 0.985 0.971 0.846 0.851 6.528 6.528 0.000 6.547 6.527 0.020 6.528 6.528 0.000 6.547 6.527 0.020
PRIMET_226 2019-09-30 04:20:00 226 3904.0 0.00 196   0.007     1.025 1.005 1.02 0.958 1.127 1.046 100.000 99.700   1.04 1.002 1.173 1.076 0.99 0.902 1.076 1.012 1.036 1.035 0.992 0.969 6.579 6.579 0.000 6.589 6.569 0.020 6.579 6.579 0.000 6.589 6.569 0.020
PRIMET_226 2019-09-30 04:15:00 226 3904.0 0.00 200   0.007     1.026 1.054 1.03 1.007 1.195 1.098 100.000 99.700   1.04 1.028 1.210 1.109 1.01 0.985 1.181 1.082 1.038 1.067 1.008 1.037 6.579 6.579 0.000 6.613 6.592 0.020 6.579 6.579 0.000 6.613 6.592 0.020
PRIMET_226 2019-09-30 04:10:00 226 3904.0 0.00 204   0.007     1.048 1.050 1.05 0.983 1.194 1.101 100.000 99.600   1.08 1.007 1.212 1.111 1.01 0.946 1.178 1.088 1.078 1.060 1.008 1.039 6.590 6.590 0.000 6.615 6.591 0.026 6.590 6.590 0.000 6.615 6.591 0.026
PRIMET_226 2019-09-30 04:05:00 226 3904.0 0.00 201   0.007     1.113 1.101 1.11 1.024 1.225 1.156 100.000 99.600   1.16 1.065 1.262 1.188 1.07 0.994 1.186 1.105 1.161 1.127 1.065 1.052 6.621 6.621 0.000 6.641 6.615 0.027 6.621 6.621 0.000 6.641 6.615 0.027
PRIMET_226 2019-09-30 04:00:00 226 3904.0 0.00 204   0.009     1.180 1.110 1.18 1.087 1.262 1.175 100.000 99.500   1.21 1.113 1.283 1.191 1.15 1.052 1.236 1.158 1.208 1.128 1.151 1.089 6.653 6.653 0.000 6.650 6.619 0.033 6.653 6.653 0.000 6.650 6.619 0.033
PRIMET_226 2019-09-30 03:55:00 226 3904.0 0.00 204   0.007     1.249 1.148 1.25 1.103 1.270 1.217 100.000 99.500   1.32 1.174 1.336 1.288 1.18 1.049 1.231 1.154 1.318 1.221 1.181 1.084 6.686 6.686 0.000 6.670 6.637 0.033 6.686 6.686 0.000 6.670 6.637 0.033
PRIMET_226 2019-09-30 03:50:00 226 3904.0 0.00 237   0.007     1.375 1.257 1.38 1.235 1.403 1.323 100.000 99.500   1.42 1.284 1.451 1.381 1.34 1.182 1.348 1.278 1.424 1.317 1.335 1.212 6.747 6.747 -0.000 6.721 6.690 0.034 6.747 6.747 -0.000 6.721 6.690 0.034
PRIMET_226 2019-09-30 03:45:00 226 3904.0 0.00 201   0.007     1.460 1.361 1.46 1.348 1.512 1.424 100.000 99.500   1.50 1.400 1.566 1.461 1.42 1.295 1.446 1.381 1.501 1.399 1.418 1.318 6.788 6.788 0.000 6.771 6.740 0.034 6.788 6.788 0.000 6.771 6.740 0.034
PRIMET_226 2019-09-30 03:40:00 226 3904.0 0.00 202   0.007     1.529 1.424 1.53 1.441 1.593 1.489 100.000 99.500   1.54 1.475 1.624 1.518 1.49 1.402 1.564 1.474 1.545 1.450 1.494 1.408 6.822 6.822 -0.000 6.802 6.771 0.034 6.822 6.822 -0.000 6.802 6.771 0.034
PRIMET_226 2019-09-30 03:35:00 226 3904.0 0.00 208   0.007     1.539 1.441 1.54 1.447 1.609 1.509 100.000 99.500   1.58 1.486 1.656 1.551 1.50 1.421 1.580 1.485 1.581 1.483 1.505 1.416 6.827 6.827 0.000 6.812 6.779 0.034 6.827 6.827 0.000 6.812 6.779 0.034
PRIMET_226 2019-09-30 03:30:00 226 3904.0 0.00 201   0.007     1.617 1.528 1.62 1.538 1.694 1.592 100.000 99.500   1.65 1.574 1.735 1.631 1.58 1.502 1.656 1.558 1.654 1.568 1.581 1.491 6.865 6.865 0.000 6.853 6.821 0.034 6.865 6.865 0.000 6.853 6.821 0.034
PRIMET_226 2019-09-30 03:25:00 226 3904.0 0.00 203   0.007     1.677 1.613 1.68 1.633 1.800 1.674 100.000 99.600   1.70 1.679 1.853 1.717 1.65 1.574 1.743 1.641 1.697 1.657 1.651 1.578 6.895 6.895 0.000 6.893 6.863 0.028 6.895 6.895 0.000 6.893 6.863 0.028
PRIMET_226 2019-09-30 03:20:00 226 3904.0 0.00 198   0.007     1.667 1.635 1.67 1.634 1.831 1.699 100.000 99.500   1.68 1.669 1.859 1.714 1.65 1.610 1.800 1.680 1.677 1.655 1.654 1.614 6.890 6.890 0.000 6.906 6.874 0.035 6.890 6.890 0.000 6.906 6.874 0.035
PRIMET_226 2019-09-30 03:15:00 226 3904.0 0.00 209   0.007     1.678 1.615 1.68 1.639 1.811 1.683 100.000 99.500   1.69 1.654 1.830 1.707 1.66 1.615 1.792 1.667 1.687 1.640 1.663 1.597 6.895 6.895 0.000 6.898 6.864 0.034 6.895 6.895 0.000 6.898 6.864 0.034
PRIMET_226 2019-09-30 03:10:00 226 3904.0 0.00 206   0.007     1.691 1.662 1.69 1.650 1.830 1.731 100.000 99.500   1.74 1.679 1.859 1.776 1.65 1.631 1.818 1.707 1.736 1.707 1.653 1.636 6.902 6.902 0.000 6.921 6.887 0.035 6.902 6.902 0.000 6.921 6.887 0.035
PRIMET_226 2019-09-30 03:05:00 226 3904.0 0.00 210   0.007     1.776 1.717 1.78 1.737 1.905 1.787 100.000 99.500   1.80 1.787 1.944 1.813 1.74 1.682 1.861 1.756 1.799 1.742 1.740 1.686 6.944 6.944 0.000 6.949 6.914 0.035 6.944 6.944 0.000 6.949 6.914 0.035
PRIMET_226 2019-09-30 03:00:00 226 3904.0 0.00 211   0.007     1.778 1.706 1.78 1.731 1.897 1.781 100.000 99.500   1.80 1.785 1.944 1.813 1.76 1.694 1.871 1.762 1.796 1.741 1.759 1.687 6.945 6.945 0.000 6.946 6.909 0.035 6.945 6.945 0.000 6.946 6.909 0.035
PRIMET_226 2019-09-30 02:55:00 226 3904.0 0.00 209   0.007     1.789 1.731 1.79 1.743 1.929 1.807 100.000 99.500   1.80 1.756 1.953 1.838 1.78 1.722 1.906 1.782 1.805 1.763 1.779 1.708 6.950 6.950 0.000 6.959 6.921 0.035 6.950 6.950 0.000 6.959 6.921 0.035
PRIMET_226 2019-09-30 02:50:00 226 3904.0 0.00 203   0.007     1.826 1.771 1.83 1.759 1.952 1.848 100.000 99.400   1.85 1.783 1.975 1.878 1.79 1.740 1.935 1.822 1.851 1.802 1.788 1.743 6.969 6.969 0.000 6.980 6.941 0.042 6.969 6.969 0.000 6.980 6.941 0.042
PRIMET_226 2019-09-30 02:45:00 226 3904.0 0.00 195   0.007     1.882 1.844 1.88 1.820 2.020 1.920 100.000 99.500   1.91 1.854 2.066 1.948 1.85 1.786 1.973 1.888 1.915 1.872 1.848 1.814 6.997 6.997 0.000 7.016 6.978 0.035 6.997 6.997 0.000 7.016 6.978 0.035
PRIMET_226 2019-09-30 02:40:00 226 3904.0 0.00 197   0.007     1.938 1.863 1.94 1.863 2.054 1.941 100.000 99.400   1.96 1.887 2.066 1.955 1.91 1.846 2.044 1.925 1.958 1.878 1.912 1.846 7.025 7.025 0.000 7.026 6.987 0.042 7.025 7.025 0.000 7.026 6.987 0.042
PRIMET_226 2019-09-30 02:35:00 226 3904.0 0.00 208   0.007     1.981 1.876 1.98 1.896 2.074 1.958 100.000 99.400   2.01 1.907 2.088 1.985 1.96 1.877 2.062 1.935 2.005 1.902 1.958 1.854 7.047 7.047 0.000 7.035 6.994 0.042 7.047 7.047 0.000 7.035 6.994 0.042
PRIMET_226 2019-09-30 02:30:00 226 3904.0 0.00 202   0.007     2.013 1.908 2.01 1.917 2.101 1.992 100.000 99.400   2.04 1.942 2.129 2.008 2.00 1.890 2.077 1.978 2.041 1.923 1.995 1.894 7.063 7.063 0.000 7.052 7.010 0.042 7.063 7.063 0.000 7.052 7.010 0.042
PRIMET_226 2019-09-30 02:25:00 226 3904.0 0.00 194   0.007     2.046 1.931 2.05 1.967 2.147 2.019 100.000 99.400   2.07 1.982 2.162 2.035 2.04 1.939 2.129 2.008 2.065 1.947 2.035 1.916 7.079 7.079 0.000 7.066 7.021 0.042 7.079 7.079 0.000 7.066 7.021 0.042
PRIMET_226 2019-09-30 02:20:00 226 3904.0 0.00 196   0.007     2.033 1.896 2.03 1.947 2.123 1.994 100.000 99.300   2.05 1.974 2.148 2.011 2.03 1.933 2.107 1.978 2.048 1.918 2.024 1.877 7.073 7.073 -0.000 7.053 7.004 0.049 7.073 7.073 -0.000 7.053 7.004 0.049
PRIMET_226 2019-09-30 02:15:00 226 3904.0 0.00 202   0.007     2.040 1.902 2.04 1.946 2.115 2.008 100.000 99.200   2.06 1.955 2.129 2.027 2.02 1.932 2.101 1.994 2.057 1.920 2.024 1.887 7.076 7.076 -0.000 7.060 7.007 0.056 7.076 7.076 -0.000 7.060 7.007 0.056
PRIMET_226 2019-09-30 02:10:00 226 3904.0 0.00 202   0.007     2.048 1.966 2.05 1.977 2.156 2.072 100.000 99.200   2.06 2.000 2.184 2.103 2.04 1.960 2.123 2.030 2.060 1.996 2.037 1.923 7.080 7.080 0.000 7.093 7.039 0.057 7.080 7.080 0.000 7.093 7.039 0.057
PRIMET_226 2019-09-30 02:05:00 226 3904.0 0.00 202   0.007     2.078 2.001 2.08 2.011 2.188 2.114 100.000 99.200   2.12 2.032 2.201 2.133 2.04 1.989 2.175 2.097 2.116 2.016 2.043 1.989 7.096 7.096 0.000 7.114 7.057 0.057 7.096 7.096 0.000 7.114 7.057 0.057
PRIMET_226 2019-09-30 02:00:00 226 3904.0 0.00 195   0.007     2.151 2.005 2.15 2.055 2.177 2.129 100.000 99.100   2.19 2.073 2.205 2.156 2.11 2.029 2.147 2.106 2.186 2.029 2.112 1.983 7.133 7.133 0.000 7.122 7.059 0.064 7.133 7.133 0.000 7.122 7.059 0.064
PRIMET_226 2019-09-30 01:55:00 226 3904.0 0.00 201   0.007     2.228 2.056 2.23 2.114 2.279 2.185 100.000 99.100   2.27 2.157 2.318 2.215 2.18 2.064 2.213 2.162 2.271 2.083 2.182 2.036 7.172 7.172 0.000 7.150 7.084 0.064 7.172 7.172 0.000 7.150 7.084 0.064
PRIMET_226 2019-09-30 01:50:00 226 3904.0 0.00 198   0.007     2.316 2.122 2.32 2.202 2.359 2.254 100.000 99.100   2.37 2.234 2.395 2.298 2.28 2.165 2.324 2.215 2.365 2.168 2.275 2.083 7.217 7.217 0.000 7.185 7.118 0.065 7.217 7.217 0.000 7.185 7.118 0.065
PRIMET_226 2019-09-30 01:45:00 226 3904.0 0.00 202   0.007     2.390 2.194 2.39 2.285 2.450 2.326 100.000 99.100   2.41 2.315 2.479 2.361 2.36 2.237 2.401 2.288 2.412 2.230 2.355 2.157 7.255 7.255 0.000 7.222 7.155 0.065 7.255 7.255 0.000 7.222 7.155 0.065
PRIMET_226 2019-09-30 01:40:00 226 3904.0 0.00 202   0.007     2.432 2.238 2.43 2.334 2.501 2.376 100.000 99.000   2.45 2.355 2.535 2.415 2.41 2.315 2.484 2.351 2.448 2.278 2.408 2.215 7.277 7.277 0.000 7.248 7.177 0.072 7.277 7.277 0.000 7.248 7.177 0.072
PRIMET_226 2019-09-30 01:35:00 226 3904.0 0.00 202   0.018     2.452 2.264 2.45 2.344 2.507 2.413 100.000 98.900   2.48 2.368 2.540 2.441 2.42 2.322 2.489 2.391 2.485 2.289 2.421 2.243 7.288 7.288 0.000 7.267 7.191 0.080 7.288 7.288 0.000 7.267 7.191 0.080
PRIMET_226 2019-09-30 01:30:00 226 3904.0 0.00 194   0.007     2.529 2.331 2.53 2.420 2.564 2.481 100.000 98.900   2.57 2.473 2.627 2.534 2.48 2.358 2.512 2.438 2.567 2.389 2.485 2.286 7.328 7.328 0.000 7.303 7.225 0.080 7.328 7.328 0.000 7.303 7.225 0.080
PRIMET_226 2019-09-30 01:25:00 226 3904.0 0.00 189   0.007     2.595 2.439 2.60 2.527 2.688 2.581 100.000 99.000   2.61 2.565 2.724 2.621 2.57 2.478 2.640 2.541 2.611 2.478 2.567 2.395 7.363 7.362 0.000 7.355 7.281 0.074 7.363 7.362 0.000 7.355 7.281 0.074
PRIMET_226 2019-09-30 01:20:00 226 3904.0 0.00 198   0.007     2.589 2.433 2.59 2.541 2.703 2.586 100.000 98.900   2.61 2.571 2.727 2.611 2.56 2.520 2.674 2.564 2.611 2.465 2.557 2.410 7.359 7.359 0.000 7.358 7.278 0.081 7.359 7.359 0.000 7.358 7.278 0.081
PRIMET_226 2019-09-30 01:15:00 226 3904.0 0.00 200   0.007     2.622 2.464 2.62 2.564 2.736 2.625 100.000 98.900   2.65 2.582 2.764 2.653 2.60 2.551 2.713 2.597 2.653 2.489 2.597 2.438 7.376 7.376 0.000 7.378 7.294 0.081 7.376 7.376 0.000 7.378 7.294 0.081
PRIMET_226 2019-09-30 01:10:00 226 3904.0 0.00 204   0.007     2.674 2.478 2.67 2.610 2.770 2.653 100.000 98.800   2.71 2.633 2.792 2.693 2.64 2.579 2.756 2.629 2.707 2.515 2.639 2.458 7.404 7.404 0.000 7.393 7.301 0.089 7.404 7.404 0.000 7.393 7.301 0.089
PRIMET_226 2019-09-30 01:05:00 226 3904.0 0.00 201   0.007     2.734 2.538 2.73 2.681 2.840 2.720 100.000 98.700   2.75 2.702 2.860 2.749 2.70 2.635 2.789 2.690 2.753 2.562 2.697 2.512 7.435 7.435 -0.000 7.428 7.332 0.097 7.435 7.435 -0.000 7.428 7.332 0.097
PRIMET_226 2019-09-30 01:00:00 226 3904.0 0.00 202   0.007     2.780 2.579 2.78 2.728 2.889 2.777 100.000 98.600   2.83 2.763 2.922 2.809 2.74 2.685 2.860 2.746 2.825 2.605 2.736 2.553 7.460 7.460 0.000 7.458 7.354 0.104 7.460 7.460 0.000 7.458 7.354 0.104
PRIMET_226 2019-09-30 00:55:00 226 3904.0 0.00 203   0.007     2.892 2.646 2.89 2.809 2.974 2.855 100.000 98.500   2.93 2.839 3.011 2.902 2.83 2.755 2.930 2.809 2.935 2.687 2.825 2.603 7.519 7.519 0.000 7.500 7.389 0.112 7.519 7.519 0.000 7.500 7.389 0.112
PRIMET_226 2019-09-30 00:50:00 226 3904.0 0.00 202   0.007     2.971 2.737 2.97 2.887 3.059 2.950 100.000 98.500   3.01 2.910 3.098 2.988 2.93 2.854 3.018 2.902 3.005 2.778 2.935 2.689 7.562 7.562 0.000 7.550 7.437 0.113 7.562 7.562 0.000 7.550 7.437 0.113
PRIMET_226 2019-09-30 00:45:00 226 3904.0 0.00 204   0.007     3.049 2.827 3.05 2.972 3.149 3.037 100.000 98.500   3.09 3.034 3.201 3.082 3.02 2.916 3.098 2.988 3.088 2.873 3.015 2.774 7.604 7.604 0.000 7.597 7.485 0.114 7.604 7.604 0.000 7.597 7.485 0.114
PRIMET_226 2019-09-30 00:40:00 226 3904.0 0.00 203   0.007     3.134 2.919 3.13 3.065 3.236 3.124 100.000 98.600   3.17 3.091 3.274 3.162 3.10 3.039 3.198 3.082 3.175 2.962 3.098 2.874 7.650 7.650 0.000 7.644 7.534 0.107 7.650 7.650 0.000 7.644 7.534 0.107
PRIMET_226 2019-09-30 00:35:00 226 3904.0 0.00 203   0.036     3.224 3.000 3.22 3.151 3.326 3.195 100.000 98.600   3.27 3.198 3.375 3.222 3.17 3.096 3.268 3.142 3.265 3.030 3.172 2.941 7.699 7.699 0.000 7.683 7.577 0.108 7.699 7.699 0.000 7.683 7.577 0.108
PRIMET_226 2019-09-30 00:30:00 226 3904.0 0.00 232   0.037     3.281 3.061 3.28 3.239 3.410 3.246 100.000 98.700   3.30 3.269 3.439 3.264 3.25 3.200 3.375 3.208 3.298 3.080 3.248 3.021 7.730 7.730 0.000 7.711 7.610 0.100 7.730 7.730 0.000 7.711 7.610 0.100
PRIMET_226 2019-09-30 00:25:00 226 3904.0 0.00 204   0.007     3.199 3.033 3.20 3.179 3.368 3.228 100.000 98.600   3.25 3.249 3.415 3.245 3.17 3.150 3.343 3.211 3.248 3.055 3.171 3.014 7.685 7.685 -0.000 7.701 7.595 0.108 7.685 7.685 -0.000 7.701 7.595 0.108
PRIMET_226 2019-09-30 00:20:00 226 3904.0 0.00 209   0.007     3.265 3.073 3.27 3.204 3.396 3.273 100.000 98.600   3.31 3.236 3.428 3.296 3.21 3.180 3.372 3.240 3.310 3.095 3.213 3.042 7.721 7.721 0.000 7.725 7.617 0.108 7.721 7.721 0.000 7.725 7.617 0.108
PRIMET_226 2019-09-30 00:15:00 226 3904.0 0.00 201   0.065     3.370 3.114 3.37 3.298 3.461 3.320 100.000 98.600   3.41 3.336 3.487 3.352 3.33 3.246 3.428 3.302 3.409 3.145 3.329 3.101 7.779 7.779 0.000 7.751 7.639 0.109 7.779 7.779 0.000 7.751 7.639 0.109
PRIMET_226 2019-09-30 00:10:00 226 3904.0 0.00 218   0.007     3.414 3.188 3.41 3.366 3.530 3.393 100.000 98.600   3.43 3.392 3.566 3.422 3.40 3.339 3.490 3.355 3.432 3.216 3.399 3.149 7.803 7.803 0.000 7.791 7.679 0.109 7.803 7.803 0.000 7.791 7.679 0.109
PRIMET_226 2019-09-30 00:05:00 226 3904.0 0.00 202   0.007     3.442 3.228 3.44 3.364 3.553 3.440 100.000 98.500   3.48 3.392 3.580 3.485 3.41 3.338 3.532 3.406 3.482 3.275 3.406 3.196 7.818 7.818 0.000 7.817 7.701 0.117 7.818 7.818 0.000 7.817 7.701 0.117
PRIMET_226 2019-09-30 00:00:00 226 3904.0 0.00 217   0.052     3.510 3.278 3.51 3.427 3.611 3.494 100.000 98.500   3.56 3.458 3.643 3.522 3.47 3.392 3.587 3.472 3.555 3.305 3.468 3.258 7.856 7.856 -0.000 7.847 7.728 0.118 7.856 7.856 -0.000 7.847 7.728 0.118
PRIMET_226 2019-09-29 23:55:00 226 3904.0 0.00 202   0.022     3.602 3.332 3.60 3.524 3.688 3.551 100.000 98.500   3.64 3.576 3.730 3.594 3.57 3.464 3.649 3.508 3.638 3.379 3.565 3.289 7.907 7.907 0.000 7.879 7.758 0.118 7.907 7.907 0.000 7.879 7.758 0.118
PRIMET_226 2019-09-29 23:50:00 226 3904.0 0.00 212   0.007     3.642 3.396 3.64 3.585 3.749 3.615 100.000 98.500   3.65 3.622 3.776 3.634 3.63 3.534 3.709 3.591 3.651 3.422 3.628 3.375 7.930 7.930 0.000 7.914 7.793 0.119 7.930 7.930 0.000 7.914 7.793 0.119
PRIMET_226 2019-09-29 23:45:00 226 3904.0 0.00 200   0.007     3.695 3.412 3.69 3.597 3.753 3.647 100.000 98.400   3.75 3.658 3.805 3.680 3.64 3.536 3.719 3.617 3.753 3.443 3.644 3.384 7.959 7.959 -0.000 7.932 7.802 0.127 7.959 7.959 -0.000 7.932 7.802 0.127
PRIMET_226 2019-09-29 23:40:00 226 3904.0 0.00 207   0.012     3.781 3.462 3.78 3.697 3.838 3.709 100.000 98.300   3.81 3.722 3.866 3.732 3.76 3.669 3.810 3.673 3.806 3.480 3.756 3.435 8.008 8.008 0.000 7.967 7.829 0.135 8.008 8.008 0.000 7.967 7.829 0.135
PRIMET_226 2019-09-29 23:35:00 226 3904.0 0.00 206   0.035     3.864 3.532 3.86 3.765 3.895 3.789 100.000 98.200   3.91 3.822 3.951 3.832 3.80 3.717 3.846 3.732 3.912 3.573 3.802 3.474 8.055 8.055 0.000 8.012 7.868 0.144 8.055 8.055 0.000 8.012 7.868 0.144
PRIMET_226 2019-09-29 23:30:00 226 3904.0 0.00 203   0.007     3.962 3.634 3.96 3.877 4.018 3.893 100.000 98.200   4.01 3.933 4.077 3.942 3.91 3.825 3.971 3.845 4.012 3.687 3.912 3.585 8.110 8.110 0.000 8.071 7.925 0.145 8.110 8.110 0.000 8.071 7.925 0.145
PRIMET_226 2019-09-29 23:25:00 226 3904.0 0.00 206   0.007     4.028 3.706 4.03 3.942 4.093 3.976 100.000 98.100   4.07 3.961 4.112 4.022 4.00 3.925 4.080 3.942 4.068 3.749 3.998 3.684 8.148 8.148 0.000 8.118 7.965 0.154 8.148 8.148 0.000 8.118 7.965 0.154
PRIMET_226 2019-09-29 23:20:00 226 3904.0 0.00 194   0.007     4.127 3.771 4.13 4.014 4.153 4.056 100.000 98.000   4.17 4.061 4.190 4.098 4.07 3.966 4.115 4.015 4.168 3.805 4.075 3.736 8.205 8.205 0.000 8.164 8.002 0.163 8.205 8.205 0.000 8.164 8.002 0.163
PRIMET_226 2019-09-29 23:15:00 226 3904.0 0.00 190   0.007     4.197 3.851 4.21 4.090 4.227 4.147 99.900 97.900   4.26 4.124 4.273 4.197 4.18 4.063 4.190 4.098 4.240 3.898 4.175 3.805 8.252 8.246 0.008 8.217 8.047 0.173 8.252 8.246 0.008 8.217 8.047 0.173
PRIMET_226 2019-09-29 23:10:00 226 3904.0 0.00 198   0.007     4.317 3.950 4.32 4.203 4.340 4.254 99.900 97.900   4.39 4.281 4.417 4.314 4.26 4.134 4.273 4.197 4.390 4.015 4.241 3.898 8.320 8.315 0.008 8.279 8.104 0.174 8.320 8.315 0.008 8.279 8.104 0.174
PRIMET_226 2019-09-29 23:05:00 226 3904.0 0.00 209   0.007     4.438 4.066 4.44 4.375 4.506 4.364 100.000 97.900   4.49 4.427 4.553 4.414 4.38 4.292 4.425 4.317 4.490 4.110 4.384 4.020 8.386 8.386 0.000 8.343 8.170 0.175 8.386 8.386 0.000 8.343 8.170 0.175
PRIMET_226 2019-09-29 23:00:00 226 3904.0 0.00 202   0.007     4.523 4.129 4.54 4.457 4.585 4.442 99.900 97.800   4.58 4.513 4.641 4.489 4.48 4.419 4.551 4.390 4.577 4.178 4.478 4.082 8.444 8.436 0.008 8.389 8.206 0.185 8.444 8.436 0.008 8.389 8.206 0.185
PRIMET_226 2019-09-29 22:55:00 226 3904.0 0.00 204   0.007     4.621 4.221 4.63 4.581 4.701 4.534 100.000 97.800   4.66 4.614 4.733 4.575 4.58 4.523 4.647 4.479 4.644 4.255 4.575 4.166 8.498 8.495 0.000 8.443 8.260 0.186 8.498 8.495 0.000 8.443 8.260 0.186
PRIMET_226 2019-09-29 22:50:00 226 3904.0 0.00 201   0.062     4.677 4.305 4.71 4.665 4.795 4.633 99.800 97.700   4.75 4.723 4.857 4.692 4.66 4.615 4.736 4.565 4.710 4.364 4.644 4.242 8.547 8.528 0.017 8.502 8.308 0.196 8.547 8.528 0.017 8.502 8.308 0.196
PRIMET_226 2019-09-29 22:45:00 226 3904.0 0.00 201   0.006     4.685 4.390 4.79 4.732 4.880 4.746 99.300 97.500   4.85 4.787 4.931 4.798 4.73 4.697 4.846 4.695 4.727 4.430 4.665 4.353 8.595 8.533 0.060 8.569 8.358 0.214 8.595 8.533 0.060 8.569 8.358 0.214
PRIMET_226 2019-09-29 22:40:00 226 3904.0 0.00 200   0.007     4.760 4.481 4.90 4.841 4.982 4.862 99.000 97.400   4.98 4.901 5.045 4.925 4.84 4.789 4.938 4.798 4.839 4.542 4.720 4.426 8.664 8.578 0.087 8.639 8.412 0.225 8.664 8.578 0.087 8.639 8.412 0.225
PRIMET_226 2019-09-29 22:35:00 226 3904.0 0.00 201   0.007     4.894 4.595 5.03 4.985 5.123 4.975 99.100 97.400   5.07 5.045 5.185 5.032 4.99 4.911 5.053 4.932 4.930 4.654 4.844 4.552 8.738 8.658 0.079 8.707 8.479 0.226 8.738 8.658 0.079 8.707 8.479 0.226
PRIMET_226 2019-09-29 22:30:00 226 3904.0 0.00 202   0.007     4.982 4.684 5.13 5.112 5.247 5.083 99.000 97.300   5.21 5.191 5.313 5.138 5.07 5.056 5.185 5.028 5.062 4.730 4.934 4.644 8.804 8.712 0.088 8.773 8.532 0.237 8.804 8.712 0.088 8.773 8.532 0.237
PRIMET_226 2019-09-29 22:25:00 226 3904.0 0.00 203   0.007     5.109 4.784 5.24 5.246 5.374 5.178 99.100 97.300   5.25 5.288 5.410 5.211 5.20 5.189 5.315 5.148 5.131 4.824 5.066 4.741 8.867 8.789 0.080 8.832 8.592 0.238 8.867 8.789 0.080 8.832 8.592 0.238
PRIMET_226 2019-09-29 22:20:00 226 3904.0 0.00 201   0.020     5.120 4.820 5.28 5.292 5.430 5.244 98.900 97.100   5.34 5.333 5.475 5.298 5.24 5.270 5.407 5.198 5.162 4.869 5.097 4.798 8.898 8.796 0.098 8.872 8.614 0.257 8.898 8.796 0.098 8.872 8.614 0.257
PRIMET_226 2019-09-29 22:15:00 226 3904.0 0.00 200   0.007     5.228 4.907 5.41 5.408 5.538 5.334 98.800 97.100   5.45 5.472 5.594 5.368 5.36 5.344 5.483 5.301 5.271 4.946 5.176 4.873 8.974 8.862 0.108 8.928 8.666 0.259 8.974 8.862 0.108 8.928 8.666 0.259
PRIMET_226 2019-09-29 22:10:00 226 3904.0 0.00 201   0.007     5.240 4.979 5.47 5.460 5.594 5.411 98.400 97.000   5.52 5.484 5.626 5.470 5.44 5.446 5.576 5.377 5.253 5.024 5.230 4.955 9.012 8.870 0.144 8.976 8.710 0.269 9.012 8.870 0.144 8.976 8.710 0.269
PRIMET_226 2019-09-29 22:05:00 226 3904.0 0.00 195   0.007     5.329 5.055 5.58 5.571 5.698 5.510 98.300 96.900   5.60 5.614 5.728 5.534 5.52 5.492 5.634 5.470 5.361 5.075 5.257 5.021 9.080 8.925 0.154 9.038 8.756 0.280 9.080 8.925 0.154 9.038 8.756 0.280
PRIMET_226 2019-09-29 22:00:00 226 3904.0 0.00 216   0.007     5.359 5.106 5.63 5.640 5.768 5.578 98.100 96.800   5.69 5.682 5.813 5.630 5.60 5.614 5.735 5.530 5.387 5.144 5.347 5.070 9.114 8.944 0.173 9.081 8.787 0.291 9.114 8.944 0.173 9.081 8.787 0.291
PRIMET_226 2019-09-29 21:55:00 226 3904.0 0.00 202   0.007     5.436 5.199 5.75 5.751 5.874 5.700 97.800 96.600   5.82 5.829 5.940 5.763 5.69 5.682 5.806 5.633 5.496 5.259 5.379 5.142 9.193 8.992 0.202 9.158 8.845 0.311 9.193 8.992 0.202 9.158 8.845 0.311
PRIMET_226 2019-09-29 21:50:00 226 3904.0 0.00 213   0.007     5.545 5.288 5.87 5.879 5.999 5.797 97.800 96.500   5.93 5.925 6.053 5.833 5.82 5.837 5.948 5.756 5.615 5.316 5.498 5.252 9.265 9.060 0.204 9.220 8.900 0.323 9.265 9.060 0.204 9.220 8.900 0.323
PRIMET_226 2019-09-29 21:45:00 226 3904.0 0.00 202   0.007     5.669 5.372 5.96 5.991 6.112 5.880 98.000 96.500   5.99 6.024 6.148 5.913 5.92 5.941 6.058 5.836 5.703 5.401 5.607 5.317 9.325 9.138 0.186 9.273 8.952 0.325 9.325 9.138 0.186 9.273 8.952 0.325
PRIMET_226 2019-09-29 21:40:00 226 3904.0 0.00 201   0.006     5.732 5.466 6.02 6.066 6.199 5.961 98.000 96.600   6.06 6.124 6.262 5.999 5.99 6.018 6.140 5.906 5.772 5.532 5.698 5.391 9.365 9.178 0.187 9.325 9.010 0.317 9.365 9.178 0.187 9.325 9.010 0.317
PRIMET_226 2019-09-29 21:35:00 226 3904.0 0.00 211   0.007     5.761 5.511 6.07 6.114 6.248 5.980 97.900 96.800   6.09 6.129 6.270 5.995 6.05 6.101 6.234 5.968 5.774 5.534 5.745 5.491 9.398 9.197 0.197 9.338 9.039 0.299 9.398 9.197 0.197 9.338 9.039 0.299
PRIMET_226 2019-09-29 21:30:00 226 3904.0 0.00 201   0.007     5.724 5.492 6.07 6.111 6.233 5.962 97.600 96.800   6.09 6.137 6.259 5.975 6.06 6.094 6.213 5.945 5.762 5.513 5.700 5.471 9.399 9.173 0.226 9.326 9.027 0.298 9.399 9.173 0.226 9.326 9.027 0.298
PRIMET_226 2019-09-29 21:25:00 226 3904.0 0.00 208   0.007     5.806 5.505 6.11 6.135 6.238 5.968 97.900 96.800   6.14 6.155 6.261 5.988 6.09 6.111 6.207 5.955 5.839 5.530 5.745 5.480 9.423 9.226 0.198 9.330 9.035 0.299 9.423 9.226 0.198 9.330 9.035 0.299
PRIMET_226 2019-09-29 21:20:00 226 3904.0 0.00 205   0.007     5.807 5.491 6.12 6.138 6.238 5.968 97.900 96.700   6.13 6.148 6.253 5.995 6.11 6.127 6.230 5.955 5.818 5.505 5.794 5.459 9.426 9.226 0.198 9.330 9.026 0.308 9.426 9.226 0.198 9.330 9.026 0.308
PRIMET_226 2019-09-29 21:15:00 226 3904.0 0.00 209   0.007     5.832 5.553 6.14 6.164 6.277 6.029 97.900 96.800   6.16 6.188 6.302 6.065 6.12 6.140 6.241 5.988 5.852 5.587 5.807 5.507 9.441 9.242 0.198 9.369 9.065 0.300 9.441 9.242 0.198 9.369 9.065 0.300
PRIMET_226 2019-09-29 21:10:00 226 3904.0 0.00 201   0.006     5.906 5.621 6.20 6.227 6.341 6.086 98.000 96.800   6.23 6.262 6.371 6.102 6.16 6.183 6.302 6.061 5.945 5.669 5.839 5.581 9.483 9.290 0.190 9.406 9.108 0.301 9.483 9.290 0.190 9.406 9.108 0.301
PRIMET_226 2019-09-29 21:05:00 226 3904.0 0.00 205   0.007     5.910 5.643 6.22 6.243 6.352 6.093 97.900 96.900   6.25 6.265 6.372 6.112 6.20 6.227 6.339 6.075 5.934 5.671 5.891 5.624 9.493 9.292 0.199 9.411 9.122 0.292 9.493 9.292 0.199 9.411 9.122 0.292
PRIMET_226 2019-09-29 21:00:00 226 3904.0 0.00 194   0.007     5.960 5.669 6.27 6.291 6.395 6.139 97.900 96.800   6.30 6.332 6.438 6.172 6.24 6.260 6.359 6.105 6.002 5.713 5.918 5.634 9.524 9.325 0.200 9.441 9.138 0.302 9.524 9.325 0.200 9.441 9.138 0.302
PRIMET_226 2019-09-29 20:55:00 226 3904.0 0.00 200   0.007     5.980 5.707 6.30 6.332 6.439 6.184 97.800 96.700   6.34 6.348 6.454 6.215 6.28 6.316 6.420 6.158 5.999 5.725 5.963 5.689 9.548 9.338 0.210 9.470 9.163 0.313 9.548 9.338 0.210 9.470 9.163 0.313
PRIMET_226 2019-09-29 20:50:00 226 3904.0 0.00 202   0.007     6.012 5.725 6.34 6.363 6.474 6.213 97.800 96.700   6.35 6.381 6.487 6.225 6.33 6.340 6.446 6.198 6.029 5.739 5.987 5.704 9.572 9.358 0.211 9.489 9.174 0.313 9.572 9.358 0.211 9.489 9.174 0.313
PRIMET_226 2019-09-29 20:45:00 226 3904.0 0.00 209   0.007     5.964 5.724 6.34 6.380 6.488 6.239 97.400 96.500   6.37 6.394 6.502 6.261 6.32 6.366 6.475 6.218 5.990 5.741 5.950 5.703 9.576 9.327 0.249 9.506 9.173 0.333 9.576 9.327 0.249 9.506 9.173 0.333
PRIMET_226 2019-09-29 20:40:00 226 3904.0 0.00 209   0.007     6.056 5.759 6.43 6.454 6.555 6.303 97.400 96.300   6.47 6.504 6.600 6.344 6.38 6.388 6.505 6.264 6.129 5.823 5.973 5.705 9.635 9.387 0.250 9.549 9.196 0.353 9.635 9.387 0.250 9.549 9.196 0.353
PRIMET_226 2019-09-29 20:35:00 226 3904.0 0.00 202   0.007     6.123 5.843 6.48 6.516 6.622 6.356 97.600 96.500   6.49 6.529 6.636 6.373 6.46 6.501 6.603 6.341 6.137 5.861 6.109 5.829 9.664 9.430 0.232 9.584 9.249 0.335 9.664 9.430 0.232 9.584 9.249 0.335
PRIMET_226 2019-09-29 20:30:00 226 3904.0 0.00 211   0.007     6.168 5.859 6.52 6.553 6.663 6.389 97.600 96.400   6.55 6.578 6.687 6.399 6.50 6.516 6.630 6.370 6.211 5.882 6.114 5.833 9.695 9.460 0.233 9.605 9.260 0.346 9.695 9.460 0.233 9.605 9.260 0.346
PRIMET_226 2019-09-29 20:25:00 226 3904.0 0.00 200   0.007     6.178 5.872 6.51 6.557 6.666 6.386 97.700 96.500   6.53 6.567 6.678 6.416 6.50 6.549 6.656 6.356 6.204 5.905 6.156 5.835 9.689 9.466 0.223 9.603 9.268 0.336 9.689 9.466 0.223 9.603 9.268 0.336
PRIMET_226 2019-09-29 20:20:00 226 3904.0 0.00 202   0.007     6.162 5.915 6.55 6.584 6.703 6.435 97.400 96.500   6.57 6.607 6.735 6.458 6.51 6.566 6.678 6.406 6.202 5.946 6.142 5.892 9.710 9.456 0.252 9.636 9.296 0.337 9.710 9.456 0.252 9.636 9.296 0.337
PRIMET_226 2019-09-29 20:15:00 226 3904.0 0.00 200   0.007     6.197 5.929 6.57 6.623 6.737 6.451 97.500 96.500   6.59 6.635 6.753 6.462 6.55 6.606 6.713 6.438 6.213 5.954 6.163 5.908 9.726 9.479 0.243 9.647 9.305 0.338 9.726 9.479 0.243 9.647 9.305 0.338
PRIMET_226 2019-09-29 20:10:00 226 3904.0 0.00 201   0.007     6.140 5.895 6.55 6.599 6.716 6.453 97.200 96.200   6.57 6.609 6.723 6.468 6.53 6.593 6.707 6.434 6.170 5.919 6.125 5.881 9.714 9.442 0.272 9.648 9.283 0.367 9.714 9.442 0.272 9.648 9.283 0.367
PRIMET_226 2019-09-29 20:05:00 226 3904.0 0.00 194   0.007     6.158 5.900 6.60 6.644 6.756 6.489 97.000 96.000   6.62 6.667 6.774 6.504 6.56 6.611 6.722 6.458 6.173 5.912 6.130 5.880 9.745 9.453 0.292 9.672 9.286 0.387 9.745 9.453 0.292 9.672 9.286 0.387
PRIMET_226 2019-09-29 20:00:00 226 3904.0 0.00 201   0.007     6.155 5.916 6.63 6.677 6.790 6.515 96.800 95.900   6.65 6.684 6.804 6.528 6.61 6.667 6.774 6.498 6.178 5.936 6.141 5.882 9.768 9.451 0.313 9.689 9.296 0.397 9.768 9.451 0.313 9.689 9.296 0.397
PRIMET_226 2019-09-29 19:55:00 226 3904.0 0.00 198   0.007     6.212 5.934 6.66 6.706 6.806 6.539 96.900 95.900   6.70 6.739 6.832 6.568 6.63 6.675 6.784 6.504 6.249 5.968 6.161 5.884 9.789 9.489 0.303 9.705 9.308 0.398 9.789 9.489 0.303 9.705 9.308 0.398
PRIMET_226 2019-09-29 19:50:00 226 3904.0 0.00 193   0.007     6.281 5.964 6.71 6.771 6.864 6.584 97.100 95.800   6.73 6.785 6.879 6.598 6.69 6.739 6.837 6.571 6.334 6.008 6.231 5.947 9.823 9.534 0.285 9.735 9.327 0.409 9.823 9.534 0.285 9.735 9.327 0.409
PRIMET_226 2019-09-29 19:45:00 226 3904.0 0.00 199   0.010     6.332 6.046 6.71 6.781 6.889 6.605 97.400 96.200   6.73 6.794 6.908 6.627 6.69 6.770 6.879 6.584 6.360 6.072 6.309 6.017 9.822 9.568 0.255 9.749 9.380 0.370 9.822 9.568 0.255 9.749 9.380 0.370
PRIMET_226 2019-09-29 19:40:00 226 3904.0 0.00 200   0.007     6.287 6.033 6.71 6.786 6.897 6.620 97.100 96.000   6.73 6.796 6.916 6.640 6.70 6.777 6.886 6.607 6.310 6.044 6.260 6.023 9.822 9.538 0.285 9.760 9.372 0.390 9.822 9.538 0.285 9.760 9.372 0.390
PRIMET_226 2019-09-29 19:35:00 226 3904.0 0.00 208   0.007     6.353 6.093 6.75 6.820 6.939 6.670 97.300 96.100   6.77 6.842 6.965 6.693 6.72 6.791 6.913 6.644 6.385 6.126 6.298 6.050 9.845 9.582 0.266 9.793 9.411 0.382 9.845 9.582 0.266 9.793 9.411 0.382
PRIMET_226 2019-09-29 19:30:00 226 3904.0 0.00 208   0.007     6.393 6.144 6.78 6.854 6.977 6.698 97.400 96.200   6.79 6.867 6.999 6.719 6.75 6.832 6.957 6.680 6.405 6.165 6.372 6.116 9.864 9.608 0.256 9.812 9.444 0.373 9.864 9.608 0.256 9.812 9.444 0.373
PRIMET_226 2019-09-29 19:25:00 226 3904.0 0.00 201   0.007     6.388 6.155 6.79 6.873 6.998 6.712 97.300 96.200   6.80 6.880 7.007 6.725 6.78 6.865 6.991 6.696 6.406 6.170 6.378 6.136 9.872 9.605 0.267 9.822 9.451 0.373 9.872 9.605 0.267 9.822 9.451 0.373
PRIMET_226 2019-09-29 19:20:00 226 3904.0 0.00 202   0.007     6.394 6.161 6.81 6.884 7.003 6.723 97.200 96.200   6.83 6.897 7.014 6.741 6.78 6.872 6.994 6.708 6.424 6.184 6.372 6.142 9.885 9.609 0.277 9.829 9.455 0.374 9.885 9.609 0.277 9.829 9.455 0.374
PRIMET_226 2019-09-29 19:15:00 226 3904.0 0.00 201   0.007     6.389 6.173 6.82 6.899 7.010 6.731 97.100 96.200   6.83 6.908 7.019 6.741 6.79 6.886 7.004 6.717 6.407 6.184 6.359 6.157 9.893 9.605 0.287 9.834 9.463 0.374 9.893 9.605 0.287 9.834 9.463 0.374
PRIMET_226 2019-09-29 19:10:00 226 3904.0 0.00 202   0.007     6.334 6.129 6.80 6.880 6.997 6.732 96.800 95.900   6.82 6.890 7.013 6.747 6.79 6.874 6.989 6.717 6.351 6.159 6.325 6.110 9.885 9.569 0.316 9.835 9.434 0.403 9.885 9.569 0.316 9.835 9.434 0.403
PRIMET_226 2019-09-29 19:05:00 226 3904.0 0.00 199   0.007     6.331 6.126 6.82 6.899 7.020 6.754 96.700 95.800   6.84 6.914 7.034 6.770 6.81 6.891 6.997 6.730 6.342 6.136 6.313 6.108 9.898 9.567 0.327 9.850 9.432 0.414 9.898 9.567 0.327 9.850 9.432 0.414
PRIMET_226 2019-09-29 19:00:00 226 3904.0 0.00 192   0.007     6.317 6.131 6.84 6.916 7.039 6.766 96.500 95.700   6.85 6.927 7.052 6.780 6.82 6.905 7.027 6.753 6.331 6.143 6.305 6.113 9.909 9.558 0.347 9.858 9.436 0.424 9.909 9.558 0.347 9.858 9.436 0.424
PRIMET_226 2019-09-29 18:55:00 226 3904.0 0.00 199   0.007     6.320 6.120 6.87 6.939 7.057 6.787 96.300 95.500   6.89 6.951 7.067 6.807 6.84 6.919 7.049 6.774 6.331 6.146 6.305 6.095 9.930 9.560 0.367 9.872 9.429 0.444 9.930 9.560 0.367 9.872 9.429 0.444
PRIMET_226 2019-09-29 18:50:00 226 3904.0 0.00 200   0.007     6.326 6.116 6.91 6.968 7.088 6.824 96.100 95.200   6.92 6.990 7.110 6.846 6.89 6.948 7.068 6.800 6.337 6.138 6.313 6.094 9.953 9.564 0.388 9.898 9.426 0.475 9.953 9.564 0.388 9.898 9.426 0.475
PRIMET_226 2019-09-29 18:45:00 226 3904.0 0.00 200   0.007     6.299 6.111 6.91 6.982 7.108 6.840 95.900 95.100   6.92 6.992 7.123 6.858 6.89 6.970 7.095 6.832 6.329 6.132 6.267 6.090 9.956 9.546 0.408 9.908 9.423 0.486 9.956 9.546 0.408 9.908 9.423 0.486
PRIMET_226 2019-09-29 18:40:00 226 3904.0 0.00 203   0.007     6.285 6.098 6.93 6.981 7.107 6.859 95.700 94.900   6.94 6.993 7.126 6.878 6.90 6.968 7.094 6.834 6.302 6.108 6.273 6.080 9.967 9.537 0.429 9.921 9.414 0.506 9.967 9.537 0.429 9.921 9.414 0.506
PRIMET_226 2019-09-29 18:35:00 226 3904.0 0.00 194   0.007     6.283 6.108 6.96 7.010 7.142 6.896 95.400 94.700   6.99 7.035 7.160 6.930 6.93 6.985 7.123 6.870 6.294 6.114 6.272 6.096 9.992 9.535 0.460 9.947 9.421 0.527 9.992 9.535 0.460 9.947 9.421 0.527
PRIMET_226 2019-09-29 18:30:00 226 3904.0 0.00 201   0.007     6.273 6.101 7.04 7.080 7.205 6.958 94.900 94.300   7.08 7.131 7.250 6.993 6.99 7.040 7.168 6.923 6.288 6.115 6.259 6.088 10.046 9.529 0.512 9.989 9.416 0.569 10.046 9.529 0.512 9.989 9.416 0.569
PRIMET_226 2019-09-29 18:25:00 226 3904.0 0.00 194   0.007     6.247 6.121 7.10 7.151 7.268 7.006 94.300 94.100   7.12 7.166 7.288 7.023 7.08 7.130 7.247 6.983 6.272 6.137 6.221 6.098 10.086 9.512 0.575 10.022 9.429 0.591 10.086 9.512 0.575 10.022 9.429 0.591
PRIMET_226 2019-09-29 18:20:00 226 3904.0 0.00 201   0.007     6.201 6.072 7.14 7.172 7.285 7.026 93.800 93.600   7.17 7.188 7.297 7.049 7.11 7.158 7.278 7.006 6.226 6.120 6.180 6.043 10.113 9.481 0.627 10.036 9.397 0.642 10.113 9.481 0.627 10.036 9.397 0.642
PRIMET_226 2019-09-29 18:15:00 226 3904.0 0.00 198   0.007     6.194 6.048 7.17 7.202 7.309 7.056 93.500 93.300   7.20 7.209 7.321 7.078 7.15 7.195 7.295 7.036 6.221 6.066 6.170 6.003 10.135 9.477 0.659 10.057 9.382 0.674 10.135 9.477 0.659 10.057 9.382 0.674
PRIMET_226 2019-09-29 18:10:00 226 3904.0 0.00 225   0.007     6.200 6.021 7.22 7.234 7.352 7.103 93.200 92.800   7.25 7.274 7.391 7.137 7.18 7.193 7.311 7.072 6.235 6.046 6.175 6.001 10.171 9.481 0.692 10.089 9.364 0.726 10.171 9.481 0.692 10.089 9.364 0.726
PRIMET_226 2019-09-29 18:05:00 226 3904.0 0.00 199   0.007     6.244 6.036 7.26 7.282 7.401 7.146 93.300 92.600   7.27 7.297 7.420 7.169 7.25 7.272 7.388 7.123 6.261 6.084 6.230 6.000 10.195 9.510 0.683 10.119 9.374 0.749 10.195 9.510 0.683 10.119 9.374 0.749
PRIMET_226 2019-09-29 18:00:00 226 3904.0 0.00 202   0.007     6.186 5.977 7.31 7.327 7.442 7.197 92.600 91.900   7.35 7.365 7.477 7.229 7.27 7.303 7.415 7.169 6.254 6.011 6.148 5.946 10.231 9.472 0.757 10.154 9.336 0.822 10.231 9.472 0.757 10.154 9.336 0.822
PRIMET_226 2019-09-29 17:55:00 226 3904.0 0.00 201   0.007     6.162 5.961 7.42 7.419 7.519 7.274 91.700 91.400   7.48 7.472 7.569 7.336 7.36 7.373 7.480 7.226 6.221 6.009 6.106 5.910 10.308 9.456 0.856 10.208 9.325 0.878 10.308 9.456 0.856 10.208 9.325 0.878
PRIMET_226 2019-09-29 17:50:00 226 3904.0 0.00 206   0.007     6.101 5.931 7.54 7.547 7.624 7.369 90.600 90.600   7.58 7.596 7.667 7.412 7.49 7.475 7.579 7.329 6.144 5.982 6.049 5.893 10.398 9.416 0.977 10.275 9.306 0.966 10.398 9.416 0.977 10.275 9.306 0.966
PRIMET_226 2019-09-29 17:45:00 226 3904.0 0.00 202   0.007     6.177 5.968 7.62 7.605 7.671 7.442 90.600 90.400   7.67 7.629 7.694 7.497 7.57 7.589 7.657 7.402 6.224 6.045 6.112 5.880 10.450 9.466 0.982 10.326 9.330 0.991 10.450 9.466 0.982 10.326 9.330 0.991
PRIMET_226 2019-09-29 17:40:00 226 3904.0 0.00 194   0.007     6.122 6.027 7.69 7.658 7.729 7.544 89.800 90.100   7.73 7.688 7.753 7.586 7.65 7.626 7.691 7.500 6.150 6.123 6.069 5.930 10.505 9.430 1.072 10.398 9.368 1.029 10.505 9.430 1.072 10.398 9.368 1.029
PRIMET_226 2019-09-29 17:35:00 226 3904.0 0.00 197   0.007     6.142 5.974 7.79 7.736 7.820 7.647 89.300 89.100   7.84 7.794 7.888 7.715 7.73 7.691 7.769 7.592 6.215 6.005 6.081 5.938 10.572 9.443 1.131 10.472 9.334 1.141 10.572 9.443 1.131 10.472 9.334 1.141
PRIMET_226 2019-09-29 17:30:00 226 3904.0 0.00 202   0.007     6.192 5.970 7.93 7.891 7.978 7.794 88.700 88.200   8.01 7.981 8.060 7.862 7.86 7.810 7.891 7.719 6.247 6.018 6.147 5.937 10.680 9.476 1.207 10.577 9.331 1.248 10.680 9.476 1.207 10.577 9.331 1.248
PRIMET_226 2019-09-29 17:25:00 226 3904.0 0.00 200   0.007     6.299 6.163 8.06 8.030 8.120 7.946 88.600 88.500   8.13 8.080 8.180 8.020 8.02 7.987 8.060 7.872 6.420 6.321 6.138 5.972 10.771 9.546 1.228 10.688 9.457 1.229 10.771 9.546 1.228 10.688 9.457 1.229
PRIMET_226 2019-09-29 17:20:00 226 3904.0 0.00 195   0.007     6.336 6.309 8.17 8.140 8.260 8.090 88.200 88.500   8.21 8.180 8.320 8.140 8.12 8.090 8.200 8.030 6.365 6.332 6.305 6.280 10.852 9.570 1.281 10.793 9.552 1.241 10.852 9.570 1.281 10.793 9.552 1.241
PRIMET_226 2019-09-29 17:15:00 226 3904.0 0.00 199   0.007     6.320 6.278 8.32 8.270 8.390 8.240 87.200 87.400   8.44 8.390 8.490 8.350 8.22 8.200 8.310 8.150 6.351 6.349 6.284 6.204 10.963 9.560 1.403 10.904 9.532 1.374 10.963 9.560 1.403 10.904 9.532 1.374
PRIMET_226 2019-09-29 17:10:00 226 3904.0 0.00 188   0.007     6.200 6.239 8.58 8.540 8.640 8.480 85.000 85.800   8.72 8.680 8.770 8.590 8.46 8.390 8.500 8.360 6.286 6.329 6.071 6.074 11.158 9.481 1.674 11.083 9.506 1.574 11.158 9.481 1.674 11.083 9.506 1.574
PRIMET_226 2019-09-29 17:05:00 226 3904.0 0.00 200   0.007     6.290 6.157 8.90 8.840 8.910 8.700 83.700 84.000   8.97 8.930 8.990 8.780 8.75 8.690 8.790 8.590 6.472 6.247 6.077 6.029 11.402 9.540 1.859 11.249 9.453 1.800 11.402 9.540 1.859 11.249 9.453 1.800
PRIMET_226 2019-09-29 17:00:00 226 3904.0 0.00 182   0.007     6.302 6.089 9.00 8.980 9.070 8.870 83.200 82.700   9.04 9.040 9.140 8.940 8.96 8.930 9.000 8.780 6.457 6.401 6.134 5.829 11.480 9.548 1.929 11.379 9.408 1.969 11.480 9.548 1.929 11.379 9.408 1.969
PRIMET_226 2019-09-29 16:55:00 226 3904.0 0.00 211   0.007     6.167 6.027 9.08 9.100 9.190 8.950 81.900 81.900   9.12 9.140 9.240 8.980 9.06 9.050 9.130 8.930 6.504 6.222 5.692 5.739 11.542 9.459 2.089 11.441 9.368 2.071 11.542 9.459 2.089 11.441 9.368 2.071
PRIMET_226 2019-09-29 16:50:00 226 3904.0 0.00 211   0.007     5.885 5.904 9.19 9.200 9.290 9.040 79.790 80.700   9.23 9.240 9.330 9.070 9.13 9.150 9.240 8.990 6.236 6.511 5.407 5.331 11.628 9.276 2.350 11.511 9.289 2.222 11.628 9.276 2.350 11.511 9.289 2.222
PRIMET_226 2019-09-29 16:45:00 226 3904.0 0.00 198   0.007     5.658 5.467 9.37 9.340 9.410 9.160 77.610 77.680   9.48 9.430 9.480 9.220 9.25 9.250 9.330 9.080 6.028 5.899 5.309 5.152 11.770 9.131 2.635 11.604 9.011 2.590 11.770 9.131 2.635 11.604 9.011 2.590
PRIMET_226 2019-09-29 16:40:00 226 3904.0 0.00 209   0.007     6.827 6.202 9.63 9.580 9.610 9.310 82.700 80.900   9.73 9.690 9.690 9.390 9.50 9.440 9.500 9.230 7.386 6.671 5.510 5.534 11.978 9.900 2.072 11.722 9.482 2.239 11.978 9.900 2.072 11.722 9.482 2.239
PRIMET_226 2019-09-29 16:35:00 226 3904.0 0.00 207   0.007     7.054 6.587 9.82 9.770 9.800 9.450 82.900 82.300   9.87 9.850 9.860 9.500 9.73 9.680 9.700 9.370 7.331 7.003 6.770 6.217 12.131 10.055 2.074 11.833 9.737 2.095 12.131 10.055 2.074 11.833 9.737 2.095
PRIMET_226 2019-09-29 16:30:00 226 3904.0 0.00 200   0.007     6.821 6.111 9.86 9.810 9.840 9.500 81.300 79.360   9.91 9.870 9.880 9.550 9.84 9.780 9.820 9.480 7.084 6.945 6.477 5.716 12.164 9.896 2.275 11.873 9.423 2.451 12.164 9.896 2.275 11.873 9.423 2.451
PRIMET_226 2019-09-29 16:25:00 226 3904.0 0.00 204   0.007     7.069 6.492 9.95 9.920 9.970 9.640 82.200 80.700   9.98 9.970 10.020 9.700 9.91 9.880 9.900 9.570 7.238 6.875 6.909 5.957 12.238 10.066 2.178 11.986 9.674 2.313 12.238 10.066 2.178 11.986 9.674 2.313
PRIMET_226 2019-09-29 16:20:00 226 3904.0 0.00 198   0.007     7.090 6.599 10.00 10.020 10.080 9.750 82.100 80.700   10.01 10.080 10.160 9.810 9.98 9.980 10.040 9.700 7.358 7.115 6.601 5.858 12.279 10.080 2.198 12.075 9.745 2.330 12.279 10.080 2.198 12.075 9.745 2.330
PRIMET_226 2019-09-29 16:15:00 226 3904.0 0.00 198   0.026     6.989 6.366 9.97 10.040 10.120 9.780 81.700 79.360   10.03 10.120 10.190 9.840 9.86 9.910 10.000 9.650 7.702 7.250 6.323 4.980 12.254 10.010 2.242 12.099 9.590 2.497 12.254 10.010 2.242 12.099 9.590 2.497
PRIMET_226 2019-09-29 16:10:00 226 3904.0 0.00 201   0.698 243.100 15.580 6.290 5.254 9.78 9.760 9.830 9.500 78.990 74.940 1.601 9.84 9.890 9.990 9.650 9.71 9.650 9.720 9.420 7.528 6.793 4.193 3.780 12.099 9.540 2.542 11.873 8.879 2.975 12.099 9.540 2.542 11.873 8.879 2.975
PRIMET_226 2019-09-29 16:05:00 226 3904.0 0.00 222   0.006     6.564 5.840 9.85 9.820 9.850 9.490 79.980 77.920   9.91 9.880 9.900 9.540 9.79 9.770 9.800 9.460 6.862 6.267 6.239 5.566 12.156 9.722 2.434 11.865 9.247 2.620 12.156 9.722 2.434 11.865 9.247 2.620
PRIMET_226 2019-09-29 16:00:00 226 3904.0 0.00 196   0.007     6.997 6.601 10.00 10.020 10.040 9.650 81.600 81.300   10.05 10.110 10.120 9.690 9.93 9.860 9.900 9.570 7.395 7.148 6.500 5.847 12.279 10.016 2.259 11.994 9.747 2.243 12.279 10.016 2.259 11.994 9.747 2.243
PRIMET_226 2019-09-29 15:55:00 226 3904.0 0.00 199   0.007     6.777 6.325 9.98 9.960 9.980 9.610 80.500 79.960   9.99 10.020 10.050 9.650 9.96 9.910 9.920 9.580 7.170 6.889 6.506 5.933 12.262 9.866 2.391 11.962 9.563 2.397 12.262 9.866 2.391 11.962 9.563 2.397
PRIMET_226 2019-09-29 15:50:00 226 3904.0 0.00 206   0.007     7.091 6.896 10.05 10.050 10.080 9.690 81.800 82.700   10.09 10.100 10.130 9.730 9.98 9.990 10.020 9.640 7.579 7.448 6.187 6.102 12.320 10.081 2.242 12.026 9.947 2.080 12.320 10.081 2.242 12.026 9.947 2.080
PRIMET_226 2019-09-29 15:45:00 226 3904.0 0.00 226   0.007     7.045 6.655 10.03 9.990 10.000 9.670 81.700 81.500   10.08 10.010 10.030 9.710 10.01 9.960 9.980 9.630 7.686 7.275 6.786 6.186 12.303 10.049 2.252 12.010 9.783 2.222 12.303 10.049 2.252 12.010 9.783 2.222
PRIMET_226 2019-09-29 15:40:00 226 3904.0 0.00 213   0.135 243.100 43.690 7.279 6.822 10.08 10.010 10.040 9.720 82.800 82.200   10.13 10.070 10.090 9.790 10.04 9.960 10.000 9.680 7.702 7.129 6.961 6.239 12.345 10.212 2.123 12.050 9.896 2.145 12.345 10.212 2.123 12.050 9.896 2.145
PRIMET_226 2019-09-29 15:35:00 226 3904.0 0.00 185   0.031     7.283 6.580 10.18 10.140 10.160 9.860 82.200 80.000   10.23 10.200 10.240 9.960 10.14 10.060 10.080 9.780 7.490 6.912 6.876 6.134 12.428 10.214 2.212 12.164 9.733 2.433 12.428 10.214 2.212 12.164 9.733 2.433
PRIMET_226 2019-09-29 15:30:00 226 3904.0 0.00 200   0.007     7.212 6.738 10.29 10.270 10.340 10.060 81.200 79.830   10.36 10.320 10.420 10.120 10.23 10.210 10.240 9.960 7.488 7.097 6.820 6.170 12.519 10.165 2.354 12.328 9.839 2.487 12.519 10.165 2.354 12.328 9.839 2.487
PRIMET_226 2019-09-29 15:25:00 226 3904.0 0.00 198   0.007     7.284 6.676 10.49 10.430 10.520 10.200 80.500 78.810   10.56 10.570 10.640 10.250 10.39 10.290 10.390 10.120 7.721 7.317 6.597 5.560 12.688 10.215 2.474 12.444 9.797 2.637 12.688 10.215 2.474 12.444 9.797 2.637
PRIMET_226 2019-09-29 15:20:00 226 3904.0 0.00 196   0.007     7.279 6.772 10.45 10.510 10.540 10.160 80.700 79.510   10.52 10.590 10.630 10.210 10.36 10.350 10.410 10.090 7.754 7.381 6.914 6.109 12.654 10.212 2.442 12.411 9.862 2.543 12.654 10.212 2.442 12.411 9.862 2.543
PRIMET_226 2019-09-29 15:15:00 226 3904.0 0.00 198   0.048     6.748 6.349 10.41 10.390 10.420 10.070 78.020 77.680   10.47 10.430 10.450 10.100 10.36 10.340 10.370 10.030 7.214 7.017 6.254 5.789 12.620 9.846 2.774 12.336 9.579 2.753 12.620 9.846 2.774 12.336 9.579 2.753
PRIMET_226 2019-09-29 15:10:00 226 3904.0 0.00 202   0.290 235.100 20.460 7.181 6.447 10.49 10.440 10.430 10.110 79.960 77.970   10.55 10.530 10.530 10.200 10.44 10.340 10.340 10.020 7.526 7.105 6.838 5.734 12.688 10.143 2.543 12.370 9.644 2.725 12.688 10.143 2.543 12.370 9.644 2.725
PRIMET_226 2019-09-29 15:05:00 226 3904.0 0.00 194   0.144 218.700 1.020 7.400 6.797 10.61 10.590 10.580 10.250 80.500 79.150   10.70 10.690 10.670 10.380 10.56 10.510 10.510 10.190 7.784 7.529 6.924 6.296 12.790 10.296 2.494 12.486 9.879 2.603 12.790 10.296 2.494 12.486 9.879 2.603
PRIMET_226 2019-09-29 15:00:00 226 3904.0 0.00 242   0.519 225.400 14.150 6.999 6.543 10.85 10.750 10.760 10.530 77.090 76.400   11.09 10.910 10.920 10.710 10.70 10.660 10.660 10.410 7.579 7.467 6.022 5.151 12.996 10.017 2.977 12.722 9.708 3.002 12.996 10.017 2.977 12.722 9.708 3.002
PRIMET_226 2019-09-29 14:55:00 226 3904.0 0.00 206   0.568 224.300 15.980 6.913 6.507 11.37 11.150 11.120 10.920 74.200 74.340 1.261 11.76 11.450 11.390 11.260 11.14 10.960 10.980 10.740 7.805 7.541 4.842 4.566 13.452 9.958 3.471 13.056 9.684 3.350 13.452 9.958 3.471 13.056 9.684 3.350
PRIMET_226 2019-09-29 14:50:00 226 3904.0 0.00 234   0.719 217.600 15.970 6.408 6.355 12.29 12.170 12.080 11.810 67.420 69.270 1.666 12.75 12.790 12.710 12.310 11.83 11.530 11.450 11.320 7.488 7.528 4.992 5.078 14.295 9.618 4.657 13.850 9.583 4.256 14.295 9.618 4.657 13.850 9.583 4.256
PRIMET_226 2019-09-29 14:45:00 226 3904.0 0.00 195 1.062 0.935 225.300 27.960 5.964 5.476 13.21 13.250 13.100 12.670 61.470 61.560 1.725 13.47 13.530 13.350 12.900 12.83 12.850 12.770 12.360 7.302 6.429 4.601 4.480 15.183 9.327 5.850 14.656 9.017 5.634 15.183 9.327 5.850 14.656 9.017 5.634
PRIMET_226 2019-09-29 14:40:00 226 3904.0 0.00 195   0.573 208.200 37.840 7.016 6.698 13.43 13.450 13.340 13.010 65.270 65.670 1.686 13.56 13.720 13.610 13.160 13.29 13.230 13.110 12.870 8.380 8.690 5.201 5.042 15.403 10.029 5.349 14.986 9.812 5.145 15.403 10.029 5.349 14.986 9.812 5.145
PRIMET_226 2019-09-29 14:35:00 226 3904.0 0.00 193   0.585 217.000 18.490 5.608 5.816 13.39 13.550 13.480 13.150 59.460 61.160 1.222 13.47 13.760 13.640 13.260 13.30 13.370 13.370 13.100 8.100 7.645 4.025 4.001 15.363 9.100 6.228 15.124 9.232 5.874 15.363 9.100 6.228 15.124 9.232 5.874
PRIMET_226 2019-09-29 14:30:00 226 3904.0 0.00 231   0.745 219.200 20.130 4.782 4.628 13.43 13.650 13.550 13.190 55.990 56.180 1.365 13.51 13.830 13.690 13.240 13.31 13.490 13.410 13.120 7.182 6.070 2.667 2.905 15.403 8.591 6.779 15.164 8.499 6.645 15.403 8.591 6.779 15.164 8.499 6.645
PRIMET_226 2019-09-29 14:25:00 226 3904.0 0.00 189   0.456 227.700 39.610 4.710 4.320 13.51 13.630 13.540 13.130 55.440 55.270 1.307 13.71 13.940 13.830 13.330 13.32 13.290 13.180 12.920 7.053 6.674 2.582 2.621 15.483 8.548 6.899 15.104 8.317 6.756 15.483 8.548 6.899 15.104 8.317 6.756
PRIMET_226 2019-09-29 14:20:00 226 3904.0 0.00 202   0.201 222.700 40.710 4.703 4.082 13.57 13.860 13.640 13.150 55.100 54.140 1.071 13.66 14.120 13.860 13.270 13.40 13.390 13.230 13.010 6.329 5.407 2.785 2.897 15.544 8.543 6.979 15.124 8.179 6.936 15.544 8.543 6.979 15.124 8.179 6.936
PRIMET_226 2019-09-29 14:15:00 226 3904.0 0.00 192   0.180 222.700 60.050 3.160 3.057 13.49 13.710 13.540 13.000 49.770 51.030 1.098 13.63 13.960 13.670 13.100 13.37 13.510 13.390 12.890 6.187 6.097 1.914 1.830 15.463 7.664 7.767 14.976 7.608 7.334 15.463 7.664 7.767 14.976 7.608 7.334
PRIMET_226 2019-09-29 14:10:00 226 3904.0 0.00 186   0.541 212.800 19.720 4.455 4.078 13.53 13.560 13.320 12.930 54.540 55.270 1.424 13.72 13.880 13.570 13.030 13.36 13.320 13.070 12.830 7.461 7.136 1.893 2.052 15.504 8.396 7.048 14.908 8.177 6.668 15.504 8.396 7.048 14.908 8.177 6.668
PRIMET_226 2019-09-29 14:05:00 226 3904.0 0.00 187   0.463 213.400 13.670 6.120 5.492 13.29 13.420 13.210 12.740 62.280 61.760 1.784 13.53 13.660 13.420 12.900 12.98 13.000 12.820 12.490 8.900 8.220 2.895 2.378 15.263 9.429 5.757 14.724 9.027 5.630 15.263 9.429 5.757 14.724 9.027 5.630
PRIMET_226 2019-09-29 14:00:00 226 3904.0 0.00 194   0.051     4.839 4.449 12.90 13.080 12.910 12.460 58.680 58.640   13.10 13.310 13.080 12.620 12.69 12.950 12.810 12.290 8.640 7.995 1.994 2.077 14.879 8.625 6.148 14.456 8.393 5.979 14.879 8.625 6.148 14.456 8.393 5.979
PRIMET_226 2019-09-29 13:55:00 226 3904.0 0.00 204   0.568 212.800 9.470 3.769 3.355 13.15 13.520 13.350 12.750 53.160 52.920 1.483 13.34 13.880 13.630 12.970 12.87 13.140 13.050 12.400 6.568 5.742 2.188 2.147 15.124 8.001 7.084 14.733 7.770 6.936 15.124 8.001 7.084 14.733 7.770 6.936
PRIMET_226 2019-09-29 13:50:00 226 3904.0 0.00 193   0.647 235.200 21.980 4.189 3.801 12.77 12.860 12.740 12.320 56.140 56.180 1.862 12.89 13.040 12.950 12.430 12.64 12.690 12.550 12.220 7.963 7.466 2.470 2.518 14.753 8.241 6.470 14.323 8.019 6.276 14.753 8.241 6.470 14.323 8.019 6.276
PRIMET_226 2019-09-29 13:45:00 226 3904.0 0.00 204   0.464 197.600 26.640 5.399 5.086 12.53 12.660 12.630 12.320 62.310 61.660 1.078 12.78 12.900 12.840 12.480 12.23 12.360 12.370 12.130 9.010 7.449 2.470 2.018 14.522 8.969 5.473 14.323 8.775 5.492 14.522 8.969 5.473 14.323 8.775 5.492
PRIMET_226 2019-09-29 13:40:00 226 3904.0 0.00 195   0.654 195.500 41.820 3.862 3.591 12.35 12.470 12.400 12.140 56.520 56.010 2.025 12.52 12.680 12.520 12.180 12.23 12.310 12.300 12.090 8.230 6.895 1.389 1.857 14.351 8.054 6.240 14.154 7.901 6.227 14.351 8.054 6.240 14.154 7.901 6.227
PRIMET_226 2019-09-29 13:35:00 226 3904.0 0.00 185   0.874 212.400 14.500 4.952 4.527 12.34 12.460 12.330 12.010 60.860 60.230 1.581 12.51 12.690 12.490 12.130 12.20 12.250 12.160 11.920 7.964 6.437 3.524 3.523 14.342 8.693 5.613 14.034 8.439 5.581 14.342 8.693 5.613 14.034 8.439 5.581
PRIMET_226 2019-09-29 13:30:00 226 3904.0 0.00 197   0.468 200.800 32.750 5.085 4.635 12.17 12.310 12.160 11.760 62.040 61.700 1.137 12.32 12.500 12.300 11.950 11.94 12.090 11.940 11.470 7.741 6.600 3.606 3.511 14.182 8.775 5.384 13.804 8.503 5.287 14.182 8.775 5.384 13.804 8.503 5.287
PRIMET_226 2019-09-29 13:25:00 226 3904.0 0.00 195   0.742 213.400 25.760 6.163 5.482 11.70 11.880 11.730 11.250 69.150 67.850 1.640 12.00 12.150 11.950 11.460 11.32 11.630 11.560 11.040 8.530 7.859 4.147 3.986 13.749 9.457 4.242 13.346 9.020 4.291 13.749 9.457 4.242 13.346 9.020 4.291
PRIMET_226 2019-09-29 13:20:00 226 3904.0 0.00 202   0.708 227.500 13.890 6.288 5.901 10.92 11.080 11.010 10.580 73.580 73.150 1.725 11.27 11.570 11.490 10.970 10.57 10.440 10.440 10.190 8.170 7.589 3.794 3.824 13.056 9.539 3.450 12.764 9.287 3.427 13.056 9.539 3.450 12.764 9.287 3.427
PRIMET_226 2019-09-29 13:15:00 226 3904.0 0.00 190   0.311 213.200 9.910 7.689 7.111 10.32 10.250 10.220 9.930 83.700 82.600   10.51 10.470 10.440 10.150 10.19 10.110 10.080 9.810 8.090 7.478 7.305 6.527 12.545 10.502 2.045 12.221 10.095 2.126 12.545 10.502 2.045 12.221 10.095 2.126
PRIMET_226 2019-09-29 13:10:00 226 3904.0 0.00 192   0.390 199.100 10.340 7.241 6.463 10.51 10.540 10.420 10.040 80.300 78.540   10.62 10.780 10.640 10.170 10.38 10.320 10.220 9.910 8.110 7.420 5.598 4.139 12.705 10.185 2.503 12.312 9.655 2.642 12.705 10.185 2.503 12.312 9.655 2.642
PRIMET_226 2019-09-29 13:05:00 226 3904.0 0.00 189   0.256 168.100 9.090 7.096 6.746 10.66 10.490 10.320 10.180 78.610 79.250   11.04 10.840 10.660 10.540 10.36 10.270 10.140 9.910 7.414 7.541 6.539 6.111 12.832 10.084 2.745 12.428 9.845 2.579 12.832 10.084 2.745 12.428 9.845 2.579
PRIMET_226 2019-09-29 13:00:00 226 3904.0 0.00 189   0.280 158.500 19.280 7.044 6.131 11.30 11.100 10.970 10.830 75.070 72.730   11.46 11.350 11.200 10.990 11.07 10.870 10.690 10.590 8.100 7.025 5.728 4.892 13.390 10.048 3.338 12.979 9.436 3.539 13.390 10.048 3.338 12.979 9.436 3.539
PRIMET_226 2019-09-29 12:55:00 226 3904.0 0.00 187   0.096 102.000 69.810 5.493 4.766 11.25 11.040 10.930 10.650 67.970 67.260 1.058 11.39 11.360 11.190 10.760 11.16 10.830 10.750 10.600 7.180 6.731 3.017 2.539 13.346 9.027 4.275 12.824 8.581 4.199 13.346 9.027 4.275 12.824 8.581 4.199
PRIMET_226 2019-09-29 12:50:00 226 3904.0 0.00 204   0.056 153.900 63.730 6.175 5.273 11.16 11.280 11.120 10.500 71.710 70.290   11.40 11.490 11.290 10.770 10.74 10.880 10.840 10.310 7.811 7.101 3.079 2.963 13.266 9.464 3.753 12.696 8.890 3.772 13.266 9.464 3.753 12.696 8.890 3.772
PRIMET_226 2019-09-29 12:45:00 226 3904.0 0.00 208   0.265 230.400 22.210 7.319 6.879 10.13 10.280 10.260 9.750 82.700 82.300 1.019 10.65 10.850 10.830 10.260 9.73 9.720 9.700 9.360 7.943 7.559 5.929 5.219 12.386 10.240 2.143 12.075 9.935 2.137 12.386 10.240 2.143 12.075 9.935 2.137
PRIMET_226 2019-09-29 12:40:00 226 3904.0 0.00 206   0.033     7.279 6.935 9.63 9.510 9.500 9.220 85.300 85.600   9.73 9.680 9.680 9.350 9.57 9.350 9.380 9.150 7.512 7.226 7.044 6.735 11.978 10.212 1.761 11.652 9.973 1.678 11.978 10.212 1.761 11.652 9.973 1.678
PRIMET_226 2019-09-29 12:35:00 226 3904.0 0.00 226   0.200 216.500 1.056 7.207 6.861 9.86 9.660 9.650 9.340 83.600 84.500   9.92 9.770 9.730 9.380 9.74 9.460 9.460 9.260 7.637 7.299 6.178 5.597 12.164 10.161 1.995 11.746 9.923 1.821 12.164 10.161 1.995 11.746 9.923 1.821
PRIMET_226 2019-09-29 12:30:00 226 3904.0 0.00 193   0.007     6.681 5.643 9.80 9.590 9.580 9.300 80.900 77.880   9.84 9.740 9.700 9.340 9.76 9.540 9.530 9.280 7.116 6.279 6.295 5.004 12.115 9.801 2.314 11.715 9.122 2.591 12.115 9.801 2.314 11.715 9.122 2.591
PRIMET_226 2019-09-29 12:25:00 226 3904.0 0.00 186   0.006     7.084 6.388 9.79 9.600 9.620 9.430 83.300 81.400   9.83 9.700 9.770 9.500 9.74 9.510 9.540 9.320 7.562 7.223 5.287 4.393 12.107 10.076 2.022 11.818 9.605 2.198 12.107 10.076 2.022 11.818 9.605 2.198
PRIMET_226 2019-09-29 12:20:00 226 3904.0 0.00 197   0.128 111.400 60.200 5.998 5.681 10.13 9.740 9.780 9.560 75.710 76.960   10.31 9.940 9.950 9.620 9.85 9.550 9.670 9.480 7.277 7.070 4.399 4.114 12.386 9.349 3.009 11.921 9.146 2.747 12.386 9.349 3.009 11.921 9.146 2.747
PRIMET_226 2019-09-29 12:15:00 226 3904.0 0.00 189   0.155 255.000 0.773 6.217 4.953 10.35 9.850 9.860 9.540 75.520 73.050   10.45 9.880 9.880 9.590 10.27 9.810 9.820 9.480 6.754 5.641 5.035 4.135 12.570 9.492 3.077 11.905 8.694 3.208 12.570 9.492 3.077 11.905 8.694 3.208
PRIMET_226 2019-09-29 12:10:00 226 3904.0 0.00 198   0.019     6.361 5.385 10.08 9.850 9.820 9.460 77.740 75.730   10.25 9.950 9.910 9.570 9.83 9.710 9.660 9.310 6.926 6.387 5.611 4.576 12.345 9.587 2.748 11.841 8.960 2.874 12.345 9.587 2.748 11.841 8.960 2.874
PRIMET_226 2019-09-29 12:05:00 226 3904.0 0.00 196   0.005     6.491 5.752 9.72 9.800 9.740 9.350 80.300 78.230   9.83 9.870 9.780 9.410 9.66 9.750 9.720 9.320 6.885 6.120 6.125 5.199 12.050 9.673 2.374 11.754 9.191 2.559 12.050 9.673 2.374 11.754 9.191 2.559
PRIMET_226 2019-09-29 12:00:00 226 3904.0 0.00 202   0.053     7.428 6.905 9.81 9.800 9.770 9.520 85.100 83.700   9.90 9.940 9.910 9.600 9.70 9.690 9.660 9.430 7.683 7.284 7.175 6.278 12.123 10.316 1.806 11.889 9.953 1.938 12.123 10.316 1.806 11.889 9.953 1.938
PRIMET_226 2019-09-29 11:55:00 226 3904.0 0.00 198   0.016     7.004 6.719 10.20 10.050 10.020 9.750 80.500 81.400   10.44 10.260 10.190 9.880 9.93 9.750 9.760 9.610 7.388 7.243 6.368 5.899 12.444 10.021 2.427 12.075 9.826 2.246 12.444 10.021 2.427 12.075 9.826 2.246
PRIMET_226 2019-09-29 11:50:00 226 3904.0 0.00 196   0.409 130.900 32.010 6.482 5.708 10.62 10.580 10.430 10.060 75.650 74.440 1.339 10.76 10.860 10.690 10.290 10.47 10.310 10.220 9.910 7.588 6.899 4.973 4.674 12.798 9.667 3.116 12.328 9.163 3.151 12.798 9.667 3.116 12.328 9.163 3.151
PRIMET_226 2019-09-29 11:45:00 226 3904.0 0.00 189   0.466 99.200 25.980 5.214 5.011 10.47 10.660 10.580 10.110 69.980 70.610 1.418 10.71 10.890 10.740 10.280 10.10 10.360 10.320 9.790 6.922 5.752 3.921 3.647 12.671 8.854 3.804 12.370 8.729 3.635 12.671 8.854 3.804 12.370 8.729 3.635
PRIMET_226 2019-09-29 11:40:00 226 3904.0 0.00 190   0.066     5.268 5.117 9.77 9.910 9.820 9.380 73.530 74.680   10.08 10.340 10.250 9.740 9.62 9.680 9.600 9.240 6.273 5.578 4.817 4.853 12.091 8.887 3.200 11.778 8.794 2.982 12.091 8.887 3.200 11.778 8.794 2.982
PRIMET_226 2019-09-29 11:35:00 226 3904.0 0.00 206   0.543 115.500 19.160 5.528 5.385 9.78 9.910 9.730 9.320 74.790 76.400 1.104 9.82 10.000 9.790 9.380 9.71 9.790 9.640 9.250 6.070 5.951 4.997 4.891 12.099 9.049 3.050 11.730 8.960 2.768 12.099 9.049 3.050 11.730 8.960 2.768
PRIMET_226 2019-09-29 11:30:00 226 3904.0 0.00 205   0.072     7.076 6.584 9.58 9.750 9.640 9.170 84.400 83.900   9.81 9.910 9.740 9.370 9.41 9.640 9.560 9.010 7.777 7.444 5.820 5.453 11.937 10.070 1.862 11.612 9.735 1.870 11.937 10.070 1.862 11.612 9.735 1.870
PRIMET_226 2019-09-29 11:25:00 226 3904.0 0.00 192   0.006     6.925 6.839 9.18 9.390 9.330 8.800 85.800 87.500   9.36 9.610 9.540 8.990 9.01 9.090 9.060 8.620 7.617 7.422 6.154 5.834 11.620 9.966 1.650 11.326 9.908 1.416 11.620 9.966 1.650 11.326 9.908 1.416
PRIMET_226 2019-09-29 11:20:00 226 3904.0 0.00 208   0.048     6.618 6.255 8.94 8.980 8.960 8.530 85.300 85.600   9.02 9.120 9.110 8.620 8.89 8.830 8.840 8.450 7.166 7.167 6.176 5.598 11.433 9.758 1.681 11.120 9.517 1.601 11.433 9.758 1.681 11.120 9.517 1.601
PRIMET_226 2019-09-29 11:15:00 226 3904.0 0.00 192   0.007     6.320 5.935 8.97 8.830 8.810 8.480 83.400 84.000   9.03 8.880 8.840 8.510 8.91 8.780 8.770 8.460 6.621 6.134 5.712 5.410 11.457 9.560 1.902 11.083 9.309 1.773 11.457 9.560 1.902 11.083 9.309 1.773
PRIMET_226 2019-09-29 11:10:00 226 3904.0 0.00 196   0.035     5.720 5.263 8.97 8.850 8.820 8.470 80.100 80.200   9.00 8.890 8.850 8.500 8.93 8.810 8.780 8.450 6.195 5.615 5.056 4.815 11.457 9.171 2.280 11.075 8.884 2.193 11.457 9.171 2.280 11.075 8.884 2.193
PRIMET_226 2019-09-29 11:05:00 226 3904.0 0.00 204   0.179 239.800 3.477 5.681 5.279 9.04 9.000 8.940 8.570 79.480 79.770   9.09 9.070 9.010 8.600 8.95 8.880 8.840 8.520 5.996 5.685 5.244 4.723 11.511 9.146 2.362 11.151 8.894 2.256 11.511 9.146 2.362 11.151 8.894 2.256
PRIMET_226 2019-09-29 11:00:00 226 3904.0 0.00 203   0.007     5.902 5.377 9.00 9.010 8.970 8.560 80.900 80.400   9.05 9.040 8.980 8.580 8.88 8.970 8.950 8.520 6.289 5.658 5.285 4.822 11.480 9.287 2.193 11.143 8.955 2.184 11.480 9.287 2.193 11.143 8.955 2.184
PRIMET_226 2019-09-29 10:55:00 226 3904.0 0.00 197   0.007     5.872 5.375 8.78 9.020 8.950 8.470 82.000 80.900   8.87 9.070 8.990 8.530 8.65 8.870 8.830 8.350 6.208 5.560 5.057 4.842 11.310 9.268 2.036 11.075 8.954 2.115 11.310 9.268 2.036 11.075 8.954 2.115
PRIMET_226 2019-09-29 10:50:00 226 3904.0 0.00 190   0.045     5.947 5.683 8.59 8.720 8.690 8.300 83.500 83.700   8.63 8.840 8.790 8.340 8.55 8.660 8.630 8.270 6.841 6.637 4.980 4.455 11.166 9.316 1.842 10.948 9.147 1.785 11.166 9.316 1.842 10.948 9.147 1.785
PRIMET_226 2019-09-29 10:45:00 226 3904.0 0.00 193   0.246 188.200 16.490 4.953 4.687 8.51 8.700 8.680 8.250 78.360 78.280   8.54 8.760 8.740 8.290 8.46 8.590 8.620 8.210 6.327 6.025 4.138 4.104 11.105 8.694 2.403 10.911 8.534 2.370 11.105 8.694 2.403 10.911 8.534 2.370
PRIMET_226 2019-09-29 10:40:00 226 3904.0 0.00 0   0.102 160.000 15.040 5.045 4.646 8.35 8.650 8.590 8.110 79.650 78.750   8.46 8.780 8.720 8.190 8.24 8.480 8.420 7.992 5.605 5.167 4.720 4.430 10.985 8.750 2.236 10.808 8.509 2.297 10.985 8.750 2.236 10.808 8.509 2.297
PRIMET_226 2019-09-29 10:35:00 226 3904.0 0.00 196   0.021     5.100 4.742 8.12 8.250 8.250 7.926 81.200 80.300   8.20 8.460 8.400 7.985 8.08 8.160 8.180 7.889 5.667 4.932 4.671 4.582 10.815 8.784 2.033 10.673 8.567 2.103 10.815 8.784 2.033 10.673 8.567 2.103
PRIMET_226 2019-09-29 10:30:00 226 3904.0 0.00 194   0.155 202.200 7.706 5.662 5.315 8.19 8.320 8.320 7.912 84.100 83.700   8.27 8.500 8.440 7.955 8.07 8.180 8.220 7.859 6.620 6.282 4.769 4.604 10.867 9.134 1.728 10.663 8.916 1.738 10.867 9.134 1.728 10.663 8.916 1.738
PRIMET_226 2019-09-29 10:25:00 226 3904.0 0.00 228   0.129 199.100 4.208 5.731 5.267 8.17 8.370 8.320 7.844 84.600 83.700   8.21 8.450 8.380 7.879 8.14 8.320 8.260 7.816 6.696 5.822 5.151 4.848 10.852 9.178 1.671 10.614 8.887 1.730 10.852 9.178 1.671 10.614 8.887 1.730
PRIMET_226 2019-09-29 10:20:00 226 3904.0 0.00 197   0.137 170.800 20.190 5.842 5.453 8.11 8.320 8.280 7.799 85.600 85.100   8.19 8.450 8.350 7.866 8.02 8.250 8.210 7.746 6.655 6.161 5.114 4.860 10.808 9.249 1.556 10.581 9.002 1.577 10.808 9.249 1.556 10.581 9.002 1.577
PRIMET_226 2019-09-29 10:15:00 226 3904.0 0.00 203   0.105 206.400 1.848 5.575 5.202 7.83 8.050 8.080 7.593 85.700 84.800   8.00 8.240 8.250 7.737 7.68 7.891 7.928 7.450 6.151 5.848 4.840 4.602 10.601 9.079 1.516 10.433 8.846 1.586 10.601 9.079 1.516 10.433 8.846 1.586
PRIMET_226 2019-09-29 10:10:00 226 3904.0 0.00 199   0.009     5.216 4.927 7.62 7.826 7.857 7.390 84.700 84.400   7.69 7.883 7.915 7.437 7.49 7.727 7.743 7.282 5.735 5.384 4.638 4.483 10.455 8.855 1.600 10.289 8.678 1.605 10.455 8.855 1.600 10.289 8.678 1.605
PRIMET_226 2019-09-29 10:05:00 226 3904.0 0.00 214   0.075     5.283 5.225 7.42 7.591 7.597 7.195 86.300 87.300   7.48 7.696 7.704 7.282 7.38 7.509 7.503 7.122 5.859 5.811 4.797 4.757 10.309 8.896 1.412 10.153 8.861 1.289 10.309 8.896 1.412 10.153 8.861 1.289
PRIMET_226 2019-09-29 10:00:00 226 3904.0 0.00 197   0.007     5.399 5.021 7.32 7.483 7.471 7.044 87.600 87.000   7.37 7.568 7.552 7.126 7.27 7.419 7.403 6.989 6.203 5.535 4.659 4.397 10.240 8.969 1.270 10.048 8.735 1.306 10.240 8.969 1.270 10.048 8.735 1.306
PRIMET_226 2019-09-29 09:55:00 226 3904.0 0.00 191   0.007     6.226 6.028 7.36 7.464 7.484 7.051 92.500 93.200   7.38 7.519 7.537 7.090 7.34 7.399 7.409 7.016 6.370 6.180 6.121 5.465 10.265 9.498 0.770 10.053 9.369 0.684 10.265 9.498 0.770 10.053 9.369 0.684
PRIMET_226 2019-09-29 09:50:00 226 3904.0 0.00 242   0.007     6.087 5.763 7.36 7.476 7.450 7.001 91.600 91.800   7.38 7.513 7.478 7.020 7.34 7.409 7.396 6.977 6.379 6.061 5.575 5.133 10.266 9.407 0.862 10.019 9.198 0.822 10.266 9.407 0.862 10.019 9.198 0.822
PRIMET_226 2019-09-29 09:45:00 226 3904.0 0.00 289   0.007     5.836 5.396 7.32 7.462 7.447 6.969 90.300 89.700   7.39 7.544 7.500 7.008 7.26 7.396 7.385 6.915 6.186 5.704 5.312 4.755 10.237 9.245 0.993 9.997 8.967 1.030 10.237 9.245 0.993 9.997 8.967 1.030
PRIMET_226 2019-09-29 09:40:00 226 3904.0 0.00 369   0.193 168.100 19.450 5.401 4.961 7.29 7.432 7.413 6.965 87.800 87.100   7.31 7.506 7.470 6.995 7.24 7.365 7.357 6.918 5.754 5.234 4.956 4.635 10.221 8.970 1.247 9.994 8.699 1.289 10.221 8.970 1.247 9.994 8.699 1.289
PRIMET_226 2019-09-29 09:35:00 226 3904.0 0.00 254   0.053     5.272 5.073 7.25 7.490 7.459 6.930 87.200 87.900   7.30 7.579 7.524 6.988 7.19 7.431 7.413 6.840 5.800 5.550 4.984 4.839 10.193 8.890 1.305 9.970 8.767 1.206 10.193 8.890 1.305 9.970 8.767 1.206
PRIMET_226 2019-09-29 09:30:00 226 3904.0 0.00 192   0.007     5.633 5.307 7.06 7.243 7.235 6.702 90.600 90.800   7.17 7.421 7.413 6.820 6.98 7.147 7.126 6.613 5.845 5.580 5.495 5.174 10.060 9.116 0.946 9.815 8.911 0.903 10.060 9.116 0.946 9.815 8.911 0.903
PRIMET_226 2019-09-29 09:25:00 226 3904.0 0.00 258   0.037 239.900 72.360 5.439 5.146 6.89 6.992 6.986 6.510 90.500 91.000   6.96 7.131 7.113 6.589 6.86 6.893 6.888 6.443 5.842 5.480 5.015 4.972 9.941 8.994 0.944 9.686 8.812 0.872 9.941 8.994 0.944 9.686 8.812 0.872
PRIMET_226 2019-09-29 09:20:00 226 3904.0 0.00 234   0.007     6.025 5.633 6.76 6.876 6.852 6.341 95.100 95.200   6.86 6.964 6.940 6.433 6.65 6.758 6.745 6.240 6.151 5.749 5.807 5.537 9.853 9.367 0.483 9.574 9.116 0.460 9.853 9.367 0.483 9.574 9.116 0.460
PRIMET_226 2019-09-29 09:15:00 226 3904.0 0.00 193   0.007     5.901 5.505 6.53 6.696 6.691 6.161 95.700 95.600   6.64 6.776 6.768 6.250 6.43 6.556 6.554 6.070 6.028 5.583 5.729 5.388 9.701 9.287 0.417 9.455 9.035 0.416 9.701 9.287 0.417 9.455 9.035 0.416
PRIMET_226 2019-09-29 09:10:00 226 3904.0 0.00 199   0.007     5.778 5.472 6.32 6.447 6.492 5.972 96.300 96.600   6.42 6.564 6.593 6.067 6.23 6.295 6.349 5.860 5.879 5.538 5.689 5.395 9.558 9.208 0.354 9.332 9.014 0.317 9.558 9.208 0.354 9.332 9.014 0.317
PRIMET_226 2019-09-29 09:05:00 226 3904.0 0.00 200   0.007     5.703 5.351 6.14 6.199 6.258 5.771 97.000 97.100   6.23 6.271 6.339 5.860 6.03 6.076 6.149 5.660 5.841 5.416 5.528 5.208 9.444 9.160 0.283 9.203 8.939 0.267 9.444 9.160 0.283 9.203 8.939 0.267
PRIMET_226 2019-09-29 09:00:00 226 3904.0 0.00 204   0.007     5.421 5.104 5.98 5.940 6.023 5.592 96.200 96.700   6.02 6.037 6.120 5.657 5.94 5.862 5.950 5.530 5.500 5.201 5.363 5.025 9.338 8.982 0.355 9.090 8.786 0.300 9.338 8.982 0.355 9.090 8.786 0.300
PRIMET_226 2019-09-29 08:55:00 226 3904.0 0.00 197   0.007     5.511 5.075 5.95 5.884 5.942 5.513 97.000 97.000   5.98 5.916 5.975 5.537 5.91 5.851 5.911 5.478 5.572 5.115 5.419 5.036 9.316 9.039 0.279 9.040 8.768 0.271 9.316 9.039 0.279 9.040 8.768 0.271
PRIMET_226 2019-09-29 08:50:00 226 3904.0 0.00 211   0.007     5.504 5.083 5.86 5.800 5.870 5.456 97.500 97.400   5.91 5.841 5.901 5.488 5.83 5.756 5.824 5.412 5.523 5.106 5.484 5.032 9.264 9.034 0.232 9.004 8.773 0.234 9.264 9.034 0.232 9.004 8.773 0.234
PRIMET_226 2019-09-29 08:45:00 226 3904.0 0.00 211   0.007     5.503 5.002 5.78 5.728 5.785 5.382 98.100 97.400   5.82 5.751 5.820 5.419 5.71 5.709 5.758 5.345 5.526 5.043 5.446 4.974 9.210 9.034 0.175 8.958 8.724 0.233 9.210 9.034 0.175 8.958 8.724 0.233
PRIMET_226 2019-09-29 08:40:00 226 3904.0 0.00 222   0.007     5.361 4.949 5.65 5.659 5.721 5.318 98.000 97.500   5.71 5.718 5.754 5.355 5.60 5.607 5.685 5.276 5.440 4.984 5.296 4.900 9.124 8.945 0.182 8.918 8.692 0.223 9.124 8.945 0.182 8.918 8.692 0.223
PRIMET_226 2019-09-29 08:35:00 226 3904.0 0.00 219   0.007     5.298 4.853 5.58 5.581 5.641 5.244 98.100 97.300   5.60 5.615 5.677 5.279 5.55 5.547 5.606 5.216 5.326 4.902 5.267 4.820 9.082 8.906 0.173 8.872 8.634 0.240 9.082 8.906 0.173 8.872 8.634 0.240
PRIMET_226 2019-09-29 08:30:00 226 3904.0 0.00 195   0.007     5.243 4.833 5.51 5.536 5.600 5.223 98.100 97.300   5.55 5.559 5.623 5.239 5.47 5.523 5.583 5.209 5.280 4.854 5.161 4.816 9.041 8.872 0.172 8.859 8.621 0.239 9.041 8.872 0.172 8.859 8.621 0.239
PRIMET_226 2019-09-29 08:25:00 226 3904.0 0.00 201   0.007     5.034 4.778 5.44 5.469 5.546 5.214 97.200 97.000   5.48 5.523 5.603 5.276 5.40 5.445 5.515 5.176 5.138 4.862 4.988 4.729 8.993 8.743 0.252 8.854 8.588 0.266 8.993 8.743 0.252 8.854 8.588 0.266
PRIMET_226 2019-09-29 08:20:00 226 3904.0 0.00 0   0.007     5.130 5.033 5.49 5.574 5.660 5.352 97.500 97.800   5.51 5.608 5.707 5.390 5.47 5.501 5.582 5.276 5.152 5.115 5.079 4.870 9.025 8.802 0.226 8.939 8.743 0.197 9.025 8.802 0.226 8.939 8.743 0.197
PRIMET_226 2019-09-29 08:15:00 226 3904.0 0.00 0   0.025     5.242 5.045 5.48 5.591 5.688 5.325 98.300 98.100   5.51 5.649 5.716 5.383 5.45 5.537 5.664 5.253 5.334 5.118 5.150 4.946 9.020 8.871 0.153 8.923 8.750 0.170 9.020 8.871 0.153 8.923 8.750 0.170
PRIMET_226 2019-09-29 08:10:00 226 3904.0 0.00 201   0.007     5.045 4.794 5.37 5.554 5.607 5.173 97.800 97.400   5.47 5.645 5.692 5.237 5.28 5.443 5.502 5.077 5.266 4.916 4.845 4.619 8.950 8.750 0.197 8.829 8.598 0.230 8.950 8.750 0.197 8.829 8.598 0.230
PRIMET_226 2019-09-29 08:05:00 226 3904.0 0.00 371   0.007     4.813 4.678 5.25 5.396 5.461 5.072 97.000 97.300   5.28 5.419 5.489 5.087 5.21 5.362 5.429 5.060 4.872 4.792 4.774 4.605 8.874 8.609 0.266 8.767 8.529 0.237 8.874 8.609 0.266 8.767 8.529 0.237
PRIMET_226 2019-09-29 08:00:00 226 3904.0 0.00 191   0.007     5.060 4.907 5.21 5.353 5.423 5.043 98.900 99.100   5.27 5.406 5.463 5.084 5.17 5.323 5.400 5.021 5.268 4.954 4.874 4.835 8.853 8.759 0.097 8.749 8.666 0.079 8.853 8.759 0.097 8.749 8.666 0.079
PRIMET_226 2019-09-29 07:55:00 226 3904.0 0.00 210   0.007     5.223 4.914 5.22 5.311 5.374 4.981 100.000 99.500   5.28 5.361 5.413 5.031 5.16 5.211 5.296 4.908 5.278 4.964 5.161 4.846 8.859 8.859 0.000 8.711 8.670 0.044 8.859 8.859 0.000 8.711 8.670 0.044
PRIMET_226 2019-09-29 07:50:00 226 3904.0 0.00 195   0.007     5.119 4.817 5.12 5.201 5.268 4.871 100.000 99.600   5.17 5.242 5.303 4.918 5.06 5.154 5.219 4.828 5.168 4.860 5.062 4.775 8.796 8.795 0.000 8.644 8.612 0.035 8.796 8.795 0.000 8.644 8.612 0.035
PRIMET_226 2019-09-29 07:45:00 226 3904.0 0.00 193   0.007     5.008 4.776 5.01 5.137 5.213 4.822 100.000 99.700   5.05 5.163 5.230 4.845 4.94 5.122 5.194 4.779 5.048 4.800 4.936 4.733 8.728 8.728 0.000 8.615 8.587 0.026 8.728 8.728 0.000 8.615 8.587 0.026
PRIMET_226 2019-09-29 07:40:00 226 3904.0 0.00 0   0.007     4.883 4.664 4.88 5.014 5.085 4.709 100.000 99.700   4.93 5.091 5.168 4.769 4.84 4.960 5.028 4.662 4.926 4.724 4.839 4.616 8.652 8.652 0.000 8.547 8.520 0.026 8.652 8.652 0.000 8.547 8.520 0.026
PRIMET_226 2019-09-29 07:35:00 226 3904.0 0.00 302   0.007     4.794 4.573 4.79 4.896 4.978 4.616 100.000 99.700   4.84 4.960 5.017 4.662 4.74 4.842 4.927 4.562 4.842 4.620 4.743 4.518 8.598 8.598 0.000 8.492 8.466 0.025 8.598 8.598 0.000 8.492 8.466 0.025
PRIMET_226 2019-09-29 07:30:00 226 3904.0 0.00 300   0.007     4.718 4.473 4.72 4.797 4.877 4.514 100.000 99.700   4.74 4.842 4.916 4.569 4.70 4.770 4.826 4.459 4.743 4.528 4.696 4.419 8.552 8.552 0.000 8.431 8.407 0.025 8.552 8.552 0.000 8.431 8.407 0.025
PRIMET_226 2019-09-29 07:25:00 226 3904.0 0.00 0   0.007     4.767 4.467 4.77 4.783 4.853 4.498 100.000 99.800   4.82 4.846 4.910 4.529 4.70 4.728 4.800 4.452 4.816 4.504 4.703 4.416 8.582 8.582 0.000 8.422 8.403 0.017 8.582 8.582 0.000 8.422 8.403 0.017
PRIMET_226 2019-09-29 07:20:00 226 3904.0 0.00 324   0.007     4.748 4.441 4.75 4.777 4.838 4.468 100.000 99.800   4.79 4.820 4.887 4.506 4.69 4.738 4.795 4.429 4.789 4.477 4.693 4.403 8.570 8.570 0.000 8.404 8.388 0.017 8.570 8.570 0.000 8.404 8.388 0.017
PRIMET_226 2019-09-29 07:15:00 226 3904.0 0.00 196   0.007     4.633 4.347 4.63 4.690 4.748 4.375 100.000 99.800   4.69 4.738 4.795 4.436 4.58 4.645 4.702 4.333 4.693 4.408 4.576 4.308 8.502 8.502 0.000 8.349 8.333 0.017 8.502 8.502 0.000 8.349 8.333 0.017
PRIMET_226 2019-09-29 07:10:00 226 3904.0 0.00 196   0.007     4.538 4.282 4.54 4.587 4.654 4.309 100.000 99.800   4.58 4.640 4.694 4.336 4.50 4.526 4.609 4.272 4.576 4.311 4.503 4.246 8.445 8.445 0.000 8.311 8.295 0.017 8.445 8.445 0.000 8.311 8.295 0.017
PRIMET_226 2019-09-29 07:05:00 226 3904.0 0.00 200   0.007     4.511 4.229 4.51 4.518 4.595 4.255 100.000 99.800   4.52 4.532 4.610 4.292 4.50 4.501 4.573 4.222 4.523 4.267 4.503 4.195 8.429 8.429 0.000 8.279 8.264 0.017 8.429 8.429 0.000 8.279 8.264 0.017
PRIMET_226 2019-09-29 07:00:00 226 3904.0 0.00 201   0.007     4.464 4.174 4.46 4.476 4.545 4.201 100.000 99.800   4.50 4.504 4.574 4.222 4.42 4.434 4.516 4.182 4.499 4.199 4.423 4.154 8.402 8.402 0.000 8.248 8.232 0.016 8.402 8.402 0.000 8.248 8.232 0.016
PRIMET_226 2019-09-29 06:55:00 226 3904.0 0.00 199   0.007     4.400 4.161 4.40 4.435 4.516 4.188 100.000 99.800   4.42 4.457 4.532 4.199 4.38 4.418 4.503 4.172 4.416 4.176 4.379 4.144 8.364 8.364 0.000 8.240 8.225 0.016 8.364 8.364 0.000 8.240 8.225 0.016
PRIMET_226 2019-09-29 06:50:00 226 3904.0 0.00 195   0.007     4.367 4.134 4.37 4.420 4.500 4.162 100.000 99.800   4.41 4.455 4.529 4.186 4.34 4.370 4.473 4.136 4.406 4.157 4.336 4.105 8.345 8.345 0.000 8.225 8.209 0.016 8.345 8.345 0.000 8.225 8.209 0.016
PRIMET_226 2019-09-29 06:45:00 226 3904.0 0.00 200   0.007     4.288 4.082 4.29 4.331 4.435 4.111 100.000 99.800   4.34 4.371 4.471 4.136 4.25 4.306 4.411 4.089 4.336 4.108 4.249 4.059 8.299 8.299 0.000 8.196 8.179 0.016 8.299 8.299 0.000 8.196 8.179 0.016
PRIMET_226 2019-09-29 06:40:00 226 3904.0 0.00 216   0.007     4.234 4.028 4.23 4.274 4.380 4.060 100.000 99.800   4.25 4.301 4.414 4.096 4.22 4.250 4.350 4.019 4.252 4.065 4.219 3.985 8.267 8.267 0.000 8.167 8.148 0.016 8.267 8.267 0.000 8.167 8.148 0.016
PRIMET_226 2019-09-29 06:35:00 226 3904.0 0.00 318   0.007     4.221 3.982 4.22 4.229 4.322 4.016 100.000 99.800   4.23 4.253 4.342 4.042 4.21 4.206 4.301 3.989 4.232 4.010 4.212 3.955 8.260 8.260 0.000 8.141 8.122 0.016 8.260 8.260 0.000 8.141 8.122 0.016
PRIMET_226 2019-09-29 06:30:00 226 3904.0 0.00 0   0.007     4.216 3.967 4.22 4.204 4.290 4.001 100.000 99.800   4.25 4.224 4.306 4.036 4.20 4.190 4.275 3.982 4.246 4.002 4.196 3.946 8.257 8.257 0.000 8.133 8.113 0.016 8.257 8.257 0.000 8.133 8.113 0.016
PRIMET_226 2019-09-29 06:25:00 226 3904.0 0.00 0   0.007     4.248 4.020 4.25 4.247 4.342 4.052 100.000 99.800   4.26 4.269 4.367 4.069 4.24 4.218 4.316 4.036 4.259 4.037 4.239 4.000 8.275 8.275 0.000 8.162 8.144 0.016 8.275 8.275 0.000 8.162 8.144 0.016
PRIMET_226 2019-09-29 06:20:00 226 3904.0 0.00 400   0.007     4.250 4.033 4.25 4.274 4.375 4.065 100.000 99.800   4.26 4.287 4.382 4.079 4.24 4.261 4.369 4.049 4.259 4.051 4.239 4.016 8.276 8.276 0.000 8.169 8.151 0.016 8.276 8.276 0.000 8.169 8.151 0.016
PRIMET_226 2019-09-29 06:15:00 226 3904.0 0.00 0   0.007     4.223 3.993 4.22 4.247 4.345 4.028 100.000 99.800   4.25 4.269 4.375 4.056 4.21 4.207 4.305 4.002 4.246 4.023 4.206 3.966 8.261 8.261 0.000 8.148 8.128 0.016 8.261 8.261 0.000 8.148 8.128 0.016
PRIMET_226 2019-09-29 06:10:00 226 3904.0 0.00 211   0.007     4.217 3.978 4.22 4.224 4.316 4.012 100.000 99.800   4.23 4.234 4.339 4.026 4.21 4.208 4.301 3.996 4.229 3.995 4.206 3.962 8.257 8.257 0.000 8.139 8.120 0.016 8.257 8.257 0.000 8.139 8.120 0.016
PRIMET_226 2019-09-29 06:05:00 226 3904.0 0.00 0   0.007     4.177 3.962 4.18 4.204 4.316 3.998 100.000 99.700   4.21 4.229 4.350 4.029 4.14 4.177 4.288 3.976 4.212 3.993 4.139 3.939 8.234 8.234 0.000 8.131 8.110 0.024 8.234 8.234 0.000 8.131 8.110 0.024
PRIMET_226 2019-09-29 06:00:00 226 3904.0 0.00 0   0.007     4.133 3.930 4.13 4.154 4.265 3.968 100.000 99.700   4.16 4.175 4.290 3.986 4.12 4.138 4.252 3.956 4.159 3.949 4.122 3.916 8.209 8.209 0.000 8.114 8.092 0.024 8.209 8.209 0.000 8.114 8.092 0.024
PRIMET_226 2019-09-29 05:55:00 226 3904.0 0.00 394   0.007     4.124 3.910 4.12 4.135 4.245 3.949 100.000 99.700   4.14 4.143 4.256 3.972 4.12 4.122 4.230 3.929 4.136 3.936 4.116 3.890 8.203 8.203 0.000 8.103 8.081 0.024 8.203 8.203 0.000 8.103 8.081 0.024
PRIMET_226 2019-09-29 05:50:00 226 3904.0 0.00 384   0.007     4.136 3.913 4.14 4.138 4.246 3.952 100.000 99.700   4.15 4.152 4.260 3.969 4.12 4.123 4.230 3.932 4.149 3.931 4.119 3.893 8.210 8.210 0.000 8.105 8.083 0.024 8.210 8.210 0.000 8.105 8.083 0.024
PRIMET_226 2019-09-29 05:45:00 226 3904.0 0.00 363   0.007     4.117 3.885 4.12 4.122 4.222 3.925 100.000 99.700   4.14 4.134 4.233 3.939 4.10 4.111 4.209 3.902 4.136 3.900 4.102 3.859 8.199 8.199 0.000 8.089 8.067 0.024 8.199 8.199 0.000 8.089 8.067 0.024
PRIMET_226 2019-09-29 05:40:00 226 3904.0 0.00 373   0.007     4.098 3.869 4.10 4.117 4.209 3.912 100.000 99.700   4.11 4.128 4.221 3.922 4.08 4.106 4.193 3.896 4.112 3.883 4.079 3.853 8.188 8.188 0.000 8.082 8.058 0.024 8.188 8.188 0.000 8.082 8.058 0.024
PRIMET_226 2019-09-29 05:35:00 226 3904.0 0.00 0   0.007     4.100 3.864 4.10 4.123 4.215 3.906 100.000 99.700   4.11 4.134 4.232 3.919 4.08 4.113 4.204 3.889 4.109 3.877 4.079 3.845 8.190 8.190 0.000 8.079 8.055 0.024 8.190 8.190 0.000 8.079 8.055 0.024
PRIMET_226 2019-09-29 05:30:00 226 3904.0 0.00 413   0.007     4.074 3.828 4.07 4.094 4.185 3.872 100.000 99.700   4.09 4.119 4.209 3.895 4.06 4.071 4.162 3.842 4.086 3.853 4.062 3.796 8.175 8.175 0.000 8.059 8.034 0.024 8.175 8.175 0.000 8.059 8.034 0.024
PRIMET_226 2019-09-29 05:25:00 226 3904.0 0.00 370   0.007     4.081 3.804 4.08 4.072 4.154 3.848 100.000 99.700   4.10 4.085 4.170 3.859 4.07 4.065 4.143 3.836 4.099 3.816 4.066 3.790 8.179 8.179 0.000 8.046 8.021 0.024 8.179 8.179 0.000 8.046 8.021 0.024
PRIMET_226 2019-09-29 05:20:00 226 3904.0 0.00 192   0.007     4.080 3.828 4.08 4.076 4.161 3.871 100.000 99.700   4.10 4.087 4.172 3.889 4.06 4.064 4.150 3.846 4.099 3.845 4.059 3.802 8.178 8.178 0.000 8.059 8.034 0.024 8.178 8.178 0.000 8.059 8.034 0.024
PRIMET_226 2019-09-29 05:15:00 226 3904.0 0.00 375   0.007     4.050 3.828 4.05 4.062 4.159 3.871 100.000 99.700   4.06 4.072 4.174 3.899 4.04 4.051 4.142 3.856 4.062 3.858 4.036 3.813 8.161 8.161 0.000 8.059 8.034 0.024 8.161 8.161 0.000 8.059 8.034 0.024
PRIMET_226 2019-09-29 05:10:00 226 3904.0 0.00 254   0.007     4.060 3.855 4.06 4.067 4.181 3.897 100.000 99.700   4.10 4.102 4.213 3.919 4.03 4.051 4.167 3.876 4.096 3.877 4.032 3.832 8.167 8.167 0.000 8.073 8.050 0.024 8.167 8.167 0.000 8.073 8.050 0.024
PRIMET_226 2019-09-29 05:05:00 226 3904.0 0.00 208   0.007     4.084 3.861 4.08 4.089 4.197 3.902 100.000 99.700   4.11 4.104 4.212 3.919 4.06 4.077 4.187 3.886 4.106 3.879 4.062 3.841 8.180 8.180 0.000 8.076 8.053 0.024 8.180 8.180 0.000 8.076 8.053 0.024
PRIMET_226 2019-09-29 05:00:00 226 3904.0 0.00 0   0.007     4.052 3.861 4.05 4.079 4.191 3.902 100.000 99.700   4.07 4.095 4.208 3.922 4.03 4.067 4.173 3.879 4.072 3.884 4.032 3.836 8.162 8.162 0.000 8.076 8.053 0.024 8.162 8.162 0.000 8.076 8.053 0.024
PRIMET_226 2019-09-29 04:55:00 226 3904.0 0.00 314   0.007     4.041 3.816 4.04 4.053 4.146 3.859 100.000 99.700   4.06 4.070 4.162 3.872 4.03 4.045 4.135 3.846 4.059 3.832 4.032 3.805 8.156 8.156 0.000 8.052 8.027 0.024 8.156 8.156 0.000 8.052 8.027 0.024
PRIMET_226 2019-09-29 04:50:00 226 3904.0 0.00 206   0.007     4.093 3.836 4.09 4.083 4.173 3.877 100.000 99.700   4.12 4.114 4.206 3.896 4.06 4.050 4.145 3.859 4.119 3.856 4.059 3.818 8.186 8.186 0.000 8.062 8.039 0.024 8.186 8.186 0.000 8.062 8.039 0.024
PRIMET_226 2019-09-29 04:45:00 226 3904.0 0.00 195   0.007     4.076 3.806 4.08 4.066 4.154 3.849 100.000 99.700   4.10 4.088 4.176 3.876 4.07 4.042 4.134 3.829 4.096 3.836 4.066 3.784 8.176 8.176 0.000 8.046 8.022 0.024 8.176 8.176 0.000 8.046 8.022 0.024
PRIMET_226 2019-09-29 04:40:00 226 3904.0 0.00 202   0.007     4.056 3.780 4.06 4.027 4.118 3.824 100.000 99.700   4.07 4.042 4.132 3.842 4.04 4.012 4.107 3.802 4.072 3.799 4.042 3.758 8.164 8.164 0.000 8.032 8.007 0.024 8.164 8.164 0.000 8.032 8.007 0.024
PRIMET_226 2019-09-29 04:35:00 226 3904.0 0.00 199   0.007     4.035 3.782 4.03 4.035 4.124 3.826 100.000 99.700   4.06 4.046 4.134 3.846 4.01 4.021 4.113 3.809 4.059 3.804 4.006 3.767 8.152 8.152 0.000 8.033 8.008 0.024 8.152 8.152 0.000 8.033 8.008 0.024
PRIMET_226 2019-09-29 04:30:00 226 3904.0 0.00 213   0.007     3.997 3.760 4.00 4.008 4.108 3.805 100.000 99.700   4.03 4.033 4.128 3.819 3.98 3.993 4.098 3.792 4.026 3.775 3.982 3.747 8.130 8.130 0.000 8.021 7.996 0.024 8.130 8.130 0.000 8.021 7.996 0.024
PRIMET_226 2019-09-29 04:25:00 226 3904.0 0.00 204   0.007     4.015 3.778 4.01 4.025 4.123 3.822 100.000 99.700   4.03 4.037 4.130 3.832 4.00 4.006 4.107 3.802 4.026 3.790 3.999 3.757 8.141 8.141 0.000 8.031 8.006 0.024 8.141 8.141 0.000 8.031 8.006 0.024
PRIMET_226 2019-09-29 04:20:00 226 3904.0 0.00 202   0.007     3.989 3.739 3.99 4.002 4.096 3.786 100.000 99.700   4.02 4.032 4.127 3.806 3.97 3.976 4.077 3.769 4.016 3.762 3.969 3.718 8.126 8.126 0.000 8.011 7.984 0.024 8.126 8.126 0.000 8.011 7.984 0.024
PRIMET_226 2019-09-29 04:15:00 226 3904.0 0.00 209   0.007     4.003 3.745 4.00 3.977 4.076 3.791 100.000 99.700   4.02 3.998 4.096 3.806 3.99 3.961 4.067 3.782 4.022 3.757 3.986 3.734 8.134 8.134 0.000 8.013 7.987 0.024 8.134 8.134 0.000 8.013 7.987 0.024
PRIMET_226 2019-09-29 04:10:00 226 3904.0 0.00 207   0.007     4.020 3.762 4.02 3.992 4.094 3.808 100.000 99.700   4.04 4.008 4.119 3.829 4.01 3.977 4.075 3.789 4.039 3.784 4.006 3.743 8.144 8.144 0.000 8.023 7.997 0.024 8.144 8.144 0.000 8.023 7.997 0.024
PRIMET_226 2019-09-29 04:05:00 226 3904.0 0.00 200   0.007     3.988 3.745 3.99 3.985 4.094 3.793 100.000 99.700   4.02 4.003 4.116 3.819 3.96 3.972 4.077 3.779 4.019 3.772 3.962 3.732 8.125 8.125 0.000 8.014 7.987 0.024 8.125 8.125 0.000 8.014 7.987 0.024
PRIMET_226 2019-09-29 04:00:00 226 3904.0 0.00 202   0.007     3.947 3.733 3.95 3.965 4.074 3.782 100.000 99.700   3.97 3.978 4.085 3.792 3.93 3.954 4.068 3.772 3.972 3.743 3.932 3.722 8.102 8.102 0.000 8.008 7.981 0.024 8.102 8.102 0.000 8.008 7.981 0.024
PRIMET_226 2019-09-29 03:55:00 226 3904.0 0.00 197   0.007     3.966 3.730 3.97 3.982 4.083 3.780 100.000 99.700   3.98 4.001 4.101 3.796 3.95 3.952 4.060 3.769 3.979 3.746 3.949 3.718 8.113 8.113 0.000 8.007 7.979 0.024 8.113 8.113 0.000 8.007 7.979 0.024
PRIMET_226 2019-09-29 03:50:00 226 3904.0 0.00 203   0.007     3.960 3.718 3.96 3.985 4.088 3.769 100.000 99.600   3.98 4.000 4.100 3.779 3.94 3.969 4.075 3.749 3.982 3.729 3.942 3.695 8.109 8.109 0.000 8.001 7.972 0.032 8.109 8.109 0.000 8.001 7.972 0.032
PRIMET_226 2019-09-29 03:45:00 226 3904.0 0.00 192   0.007     3.968 3.703 3.97 3.981 4.074 3.755 100.000 99.600   3.99 4.000 4.096 3.769 3.96 3.962 4.052 3.746 3.986 3.717 3.956 3.693 8.114 8.114 0.000 7.993 7.964 0.032 8.114 8.114 0.000 7.993 7.964 0.032
PRIMET_226 2019-09-29 03:40:00 226 3904.0 0.00 216   0.007     3.989 3.739 3.99 3.991 4.084 3.790 100.000 99.600   4.00 4.029 4.117 3.822 3.97 3.952 4.052 3.752 4.002 3.772 3.972 3.701 8.126 8.126 0.000 8.013 7.984 0.032 8.126 8.126 0.000 8.013 7.984 0.032
PRIMET_226 2019-09-29 03:35:00 226 3904.0 0.00 198   0.007     3.986 3.752 3.99 4.004 4.098 3.804 100.000 99.600   4.01 4.027 4.115 3.816 3.98 3.990 4.087 3.792 4.006 3.765 3.976 3.739 8.125 8.124 0.000 8.021 7.991 0.032 8.125 8.124 0.000 8.021 7.991 0.032
PRIMET_226 2019-09-29 03:30:00 226 3904.0 0.00 204   0.007     3.987 3.750 3.99 3.995 4.097 3.803 100.000 99.600   4.01 4.018 4.121 3.816 3.97 3.976 4.074 3.779 4.006 3.762 3.966 3.726 8.125 8.125 0.000 8.020 7.990 0.032 8.125 8.125 0.000 8.020 7.990 0.032
PRIMET_226 2019-09-29 03:25:00 226 3904.0 0.00 201   0.007     3.947 3.694 3.95 3.979 4.070 3.753 100.000 99.600   3.97 3.995 4.103 3.766 3.92 3.964 4.051 3.733 3.969 3.708 3.919 3.669 8.102 8.102 0.000 7.992 7.959 0.032 8.102 8.102 0.000 7.992 7.959 0.032
PRIMET_226 2019-09-29 03:20:00 226 3904.0 0.00 206   0.007     3.865 3.624 3.87 3.911 4.005 3.689 100.000 99.500   3.93 3.961 4.054 3.726 3.82 3.853 3.958 3.649 3.929 3.665 3.822 3.582 8.055 8.055 0.000 7.956 7.920 0.040 8.055 8.055 0.000 7.956 7.920 0.040
PRIMET_226 2019-09-29 03:15:00 226 3904.0 0.00 198   0.007     3.810 3.556 3.81 3.825 3.922 3.627 100.000 99.500   3.83 3.850 3.956 3.645 3.80 3.810 3.905 3.619 3.829 3.573 3.795 3.545 8.024 8.024 0.000 7.921 7.882 0.040 8.024 8.024 0.000 7.921 7.882 0.040
PRIMET_226 2019-09-29 03:10:00 226 3904.0 0.00 222   0.007     3.790 3.521 3.79 3.806 3.902 3.597 100.000 99.500   3.82 3.822 3.925 3.629 3.74 3.773 3.876 3.565 3.816 3.552 3.745 3.487 8.013 8.013 0.000 7.904 7.862 0.040 8.013 8.013 0.000 7.904 7.862 0.040
PRIMET_226 2019-09-29 03:05:00 226 3904.0 0.00 209   0.007     3.753 3.483 3.75 3.748 3.849 3.565 100.000 99.400   3.77 3.766 3.874 3.579 3.74 3.728 3.825 3.555 3.765 3.499 3.739 3.473 7.992 7.992 0.000 7.887 7.841 0.047 7.992 7.992 0.000 7.887 7.841 0.047
PRIMET_226 2019-09-29 03:00:00 226 3904.0 0.00 0   0.007     3.760 3.484 3.76 3.737 3.837 3.570 100.000 99.400   3.77 3.753 3.844 3.585 3.74 3.725 3.830 3.559 3.772 3.498 3.745 3.472 7.996 7.996 -0.000 7.889 7.842 0.047 7.996 7.996 -0.000 7.889 7.842 0.047
PRIMET_226 2019-09-29 02:55:00 226 3904.0 0.00 200   0.007     3.752 3.483 3.75 3.740 3.846 3.573 100.000 99.400   3.76 3.758 3.871 3.599 3.74 3.729 3.833 3.539 3.762 3.511 3.739 3.444 7.991 7.991 0.000 7.891 7.841 0.047 7.991 7.991 0.000 7.891 7.841 0.047
PRIMET_226 2019-09-29 02:50:00 226 3904.0 0.00 200   0.007     3.763 3.465 3.76 3.742 3.841 3.560 100.000 99.300   3.78 3.751 3.846 3.575 3.75 3.736 3.835 3.552 3.775 3.480 3.752 3.452 7.998 7.998 0.000 7.884 7.831 0.055 7.998 7.998 0.000 7.884 7.831 0.055
PRIMET_226 2019-09-29 02:45:00 226 3904.0 0.00 208   0.007     3.768 3.468 3.77 3.739 3.840 3.566 100.000 99.300   3.78 3.750 3.845 3.582 3.76 3.728 3.835 3.545 3.779 3.483 3.759 3.447 8.000 8.000 0.000 7.887 7.833 0.055 8.000 8.000 0.000 7.887 7.833 0.055
PRIMET_226 2019-09-29 02:40:00 226 3904.0 0.00 201   0.007     3.801 3.479 3.80 3.750 3.857 3.581 100.000 99.300   3.83 3.778 3.883 3.592 3.77 3.729 3.834 3.565 3.829 3.491 3.769 3.464 8.019 8.019 0.000 7.895 7.839 0.055 8.019 8.019 0.000 7.895 7.839 0.055
PRIMET_226 2019-09-29 02:35:00 226 3904.0 0.00 200   0.007     3.793 3.459 3.79 3.759 3.856 3.567 100.000 99.200   3.83 3.781 3.878 3.589 3.75 3.725 3.825 3.535 3.826 3.487 3.752 3.423 8.014 8.014 0.000 7.888 7.828 0.063 8.014 8.014 0.000 7.888 7.828 0.063
PRIMET_226 2019-09-29 02:30:00 226 3904.0 0.00 198   0.007     3.754 3.401 3.75 3.717 3.816 3.518 100.000 99.200   3.77 3.725 3.828 3.532 3.74 3.709 3.802 3.495 3.772 3.420 3.742 3.374 7.992 7.992 -0.000 7.860 7.796 0.063 7.992 7.992 -0.000 7.860 7.796 0.063
PRIMET_226 2019-09-29 02:25:00 226 3904.0 0.00 192   0.007     3.760 3.384 3.76 3.716 3.804 3.505 100.000 99.100   3.78 3.725 3.813 3.515 3.74 3.710 3.797 3.492 3.775 3.393 3.745 3.368 7.996 7.996 -0.000 7.853 7.786 0.071 7.996 7.996 -0.000 7.853 7.786 0.071
PRIMET_226 2019-09-29 02:20:00 226 3904.0 0.00 208   0.007     3.802 3.416 3.80 3.736 3.828 3.536 100.000 99.200   3.85 3.774 3.864 3.562 3.77 3.712 3.797 3.502 3.846 3.443 3.769 3.380 8.020 8.020 0.000 7.870 7.804 0.063 8.020 8.020 0.000 7.870 7.804 0.063
PRIMET_226 2019-09-29 02:15:00 226 3904.0 0.00 198   0.007     3.849 3.444 3.85 3.775 3.866 3.564 100.000 99.200   3.86 3.784 3.879 3.585 3.83 3.769 3.853 3.545 3.862 3.468 3.829 3.424 8.046 8.046 0.000 7.886 7.819 0.063 8.046 8.046 0.000 7.886 7.819 0.063
PRIMET_226 2019-09-29 02:10:00 226 3904.0 0.00 194   0.007     3.874 3.500 3.87 3.793 3.893 3.612 100.000 99.200   3.90 3.827 3.933 3.652 3.86 3.774 3.866 3.575 3.902 3.544 3.856 3.459 8.060 8.060 0.000 7.913 7.850 0.063 8.060 8.060 0.000 7.913 7.850 0.063
PRIMET_226 2019-09-29 02:05:00 226 3904.0 0.00 194   0.007     3.913 3.568 3.91 3.860 3.946 3.672 100.000 99.300   3.94 3.888 3.981 3.702 3.88 3.836 3.922 3.642 3.936 3.603 3.882 3.530 8.083 8.083 0.000 7.946 7.888 0.056 8.083 8.083 0.000 7.946 7.888 0.056
PRIMET_226 2019-09-29 02:00:00 226 3904.0 0.00 198   0.007     3.958 3.639 3.96 3.930 4.015 3.735 100.000 99.300   3.99 3.962 4.055 3.782 3.93 3.881 3.973 3.695 3.989 3.689 3.929 3.595 8.108 8.108 0.000 7.982 7.928 0.056 8.108 8.108 0.000 7.982 7.928 0.056
PRIMET_226 2019-09-29 01:55:00 226 3904.0 0.00 209   0.007     3.997 3.716 4.00 4.011 4.106 3.806 100.000 99.400   4.02 4.038 4.136 3.826 3.98 3.965 4.050 3.776 4.016 3.737 3.976 3.680 8.130 8.130 0.000 8.022 7.971 0.048 8.130 8.130 0.000 8.022 7.971 0.048
PRIMET_226 2019-09-29 01:50:00 226 3904.0 0.00 202   0.007     3.954 3.689 3.95 3.993 4.092 3.782 100.000 99.300   3.99 4.020 4.128 3.799 3.94 3.968 4.068 3.766 3.986 3.709 3.939 3.670 8.106 8.106 0.000 8.008 7.956 0.056 8.106 8.106 0.000 8.008 7.956 0.056
PRIMET_226 2019-09-29 01:45:00 226 3904.0 0.00 201   0.007     3.921 3.645 3.92 3.947 4.040 3.742 100.000 99.300   3.94 3.985 4.072 3.766 3.90 3.911 4.014 3.719 3.939 3.670 3.899 3.619 8.087 8.087 0.000 7.986 7.931 0.056 8.087 8.087 0.000 7.986 7.931 0.056
PRIMET_226 2019-09-29 01:40:00 226 3904.0 0.00 206   0.007     3.892 3.628 3.89 3.919 4.024 3.726 100.000 99.300   3.92 3.929 4.037 3.745 3.86 3.901 4.012 3.705 3.916 3.650 3.862 3.606 8.071 8.071 0.000 7.977 7.922 0.056 8.071 8.071 0.000 7.977 7.922 0.056
PRIMET_226 2019-09-29 01:35:00 226 3904.0 0.00 204   0.007     3.881 3.620 3.88 3.899 4.004 3.717 100.000 99.300   3.92 3.932 4.029 3.729 3.84 3.865 3.973 3.702 3.916 3.635 3.842 3.601 8.064 8.064 0.000 7.972 7.917 0.056 8.064 8.064 0.000 7.972 7.917 0.056
PRIMET_226 2019-09-29 01:30:00 226 3904.0 0.00 208   0.007     3.940 3.662 3.94 3.961 4.049 3.756 100.000 99.300   3.97 4.008 4.090 3.796 3.91 3.937 4.017 3.725 3.972 3.705 3.912 3.629 8.098 8.098 0.000 7.994 7.941 0.056 8.098 8.098 0.000 7.994 7.941 0.056
PRIMET_226 2019-09-29 01:25:00 226 3904.0 0.00 267   0.007     3.916 3.658 3.92 3.954 4.051 3.754 100.000 99.300   3.94 4.010 4.093 3.796 3.90 3.925 4.023 3.725 3.942 3.700 3.899 3.626 8.084 8.084 0.000 7.992 7.939 0.056 8.084 8.084 0.000 7.992 7.939 0.056
PRIMET_226 2019-09-29 01:20:00 226 3904.0 0.00 196   0.007     3.915 3.609 3.91 3.922 4.017 3.711 100.000 99.300   3.93 3.947 4.042 3.732 3.91 3.902 3.997 3.695 3.929 3.636 3.906 3.593 8.084 8.084 0.000 7.968 7.911 0.056 8.084 8.084 0.000 7.968 7.911 0.056
PRIMET_226 2019-09-29 01:15:00 226 3904.0 0.00 200   0.007     3.900 3.581 3.90 3.892 3.989 3.687 100.000 99.300   3.92 3.909 4.007 3.705 3.88 3.866 3.953 3.649 3.922 3.602 3.879 3.540 8.075 8.075 0.000 7.955 7.895 0.056 8.075 8.075 0.000 7.955 7.895 0.056
PRIMET_226 2019-09-29 01:10:00 226 3904.0 0.00 209   0.007     3.894 3.557 3.89 3.872 3.958 3.665 100.000 99.200   3.93 3.890 3.980 3.685 3.86 3.858 3.935 3.645 3.932 3.581 3.859 3.536 8.072 8.072 0.000 7.942 7.882 0.064 8.072 8.072 0.000 7.942 7.882 0.064
PRIMET_226 2019-09-29 01:05:00 226 3904.0 0.00 209   0.007     3.960 3.613 3.96 3.922 4.015 3.717 100.000 99.300   3.99 3.952 4.042 3.745 3.93 3.894 3.980 3.685 3.986 3.641 3.929 3.578 8.109 8.109 0.000 7.972 7.913 0.056 8.109 8.109 0.000 7.972 7.913 0.056
PRIMET_226 2019-09-29 01:00:00 226 3904.0 0.00 206   0.007     3.981 3.631 3.98 3.939 4.033 3.733 100.000 99.300   4.01 3.984 4.079 3.782 3.96 3.906 3.998 3.702 4.012 3.687 3.962 3.600 8.121 8.121 0.000 7.981 7.923 0.056 8.121 8.121 0.000 7.981 7.923 0.056
PRIMET_226 2019-09-29 00:55:00 226 3904.0 0.00 199   0.007     4.005 3.697 4.01 4.001 4.108 3.794 100.000 99.300   4.02 4.020 4.123 3.812 3.98 3.989 4.079 3.776 4.022 3.718 3.982 3.680 8.135 8.135 0.000 8.015 7.960 0.056 8.135 8.135 0.000 8.015 7.960 0.056
PRIMET_226 2019-09-29 00:50:00 226 3904.0 0.00 0   0.007     3.945 3.641 3.94 3.952 4.062 3.742 100.000 99.300   3.98 4.006 4.114 3.776 3.91 3.899 4.014 3.712 3.979 3.675 3.912 3.609 8.101 8.101 0.000 7.986 7.929 0.056 8.101 8.101 0.000 7.986 7.929 0.056
PRIMET_226 2019-09-29 00:45:00 226 3904.0 0.00 208   0.007     3.940 3.645 3.94 3.918 4.026 3.745 100.000 99.300   4.00 3.973 4.065 3.782 3.91 3.893 4.003 3.709 3.996 3.683 3.906 3.608 8.098 8.098 0.000 7.987 7.931 0.056 8.098 8.098 0.000 7.987 7.931 0.056
PRIMET_226 2019-09-29 00:40:00 226 3904.0 0.00 218   0.007     3.986 3.670 3.99 3.981 4.071 3.768 100.000 99.300   4.01 3.993 4.088 3.779 3.96 3.970 4.055 3.752 4.009 3.681 3.959 3.654 8.124 8.124 0.000 8.000 7.945 0.056 8.124 8.124 0.000 8.000 7.945 0.056
PRIMET_226 2019-09-29 00:35:00 226 3904.0 0.00 205   0.007     3.888 3.597 3.89 3.930 4.026 3.707 100.000 99.200   3.94 3.985 4.078 3.779 3.83 3.862 3.957 3.648 3.945 3.677 3.828 3.532 8.068 8.068 0.000 7.966 7.904 0.064 8.068 8.068 0.000 7.966 7.904 0.064
PRIMET_226 2019-09-29 00:30:00 226 3904.0 0.00 211   0.007     3.798 3.494 3.80 3.832 3.920 3.613 100.000 99.200   3.84 3.875 3.965 3.652 3.77 3.798 3.891 3.595 3.842 3.535 3.772 3.477 8.017 8.017 0.000 7.913 7.847 0.063 8.017 8.017 0.000 7.913 7.847 0.063
PRIMET_226 2019-09-29 00:25:00 226 3904.0 0.00 203   0.007     3.796 3.490 3.80 3.793 3.888 3.608 100.000 99.200   3.83 3.800 3.897 3.622 3.78 3.784 3.877 3.592 3.825 3.504 3.775 3.473 8.016 8.016 0.000 7.911 7.845 0.063 8.016 8.016 0.000 7.911 7.845 0.063
PRIMET_226 2019-09-29 00:20:00 226 3904.0 0.00 198   0.007     3.837 3.510 3.84 3.835 3.925 3.628 100.000 99.200   3.85 3.852 3.947 3.642 3.82 3.805 3.895 3.611 3.848 3.525 3.822 3.492 8.039 8.039 0.000 7.922 7.856 0.063 8.039 8.039 0.000 7.922 7.856 0.063
PRIMET_226 2019-09-29 00:15:00 226 3904.0 0.00 200   0.007     3.818 3.492 3.82 3.823 3.913 3.614 100.000 99.100   3.83 3.839 3.924 3.631 3.81 3.808 3.901 3.591 3.825 3.511 3.811 3.465 8.029 8.029 0.000 7.914 7.846 0.071 8.029 8.029 0.000 7.914 7.846 0.071
PRIMET_226 2019-09-29 00:10:00 226 3904.0 0.00 220   0.007     3.835 3.509 3.84 3.822 3.922 3.633 100.000 99.100   3.88 3.860 3.965 3.664 3.80 3.800 3.900 3.604 3.877 3.540 3.804 3.479 8.038 8.038 0.000 7.925 7.855 0.071 8.038 8.038 0.000 7.925 7.855 0.071
PRIMET_226 2019-09-29 00:05:00 226 3904.0 0.00 271   0.007     3.891 3.543 3.89 3.873 3.967 3.668 100.000 99.100   3.91 3.893 3.986 3.681 3.87 3.854 3.952 3.654 3.911 3.558 3.867 3.527 8.070 8.070 0.000 7.944 7.874 0.071 8.070 8.070 0.000 7.944 7.874 0.071
PRIMET_226 2019-09-29 00:00:00 226 3904.0 0.00 207   0.007     3.895 3.509 3.89 3.858 3.933 3.640 100.000 99.100   3.91 3.895 3.962 3.664 3.88 3.834 3.904 3.617 3.911 3.537 3.884 3.486 8.072 8.072 0.000 7.928 7.855 0.071 8.072 8.072 0.000 7.928 7.855 0.071
PRIMET_226 2019-09-28 23:55:00 226 3904.0 0.00 195   0.007     3.892 3.547 3.89 3.887 3.959 3.671 100.000 99.100   3.92 3.947 4.032 3.725 3.88 3.852 3.924 3.631 3.925 3.608 3.875 3.499 8.071 8.071 0.000 7.946 7.877 0.072 8.071 8.071 0.000 7.946 7.877 0.072
PRIMET_226 2019-09-28 23:50:00 226 3904.0 0.00 246   0.007     3.923 3.629 3.92 3.955 4.043 3.738 100.000 99.200   3.96 4.003 4.093 3.801 3.90 3.939 4.020 3.714 3.964 3.702 3.904 3.599 8.088 8.088 0.000 7.983 7.922 0.064 8.088 8.088 0.000 7.983 7.922 0.064
PRIMET_226 2019-09-28 23:45:00 226 3904.0 0.00 208   0.007     3.993 3.722 3.99 4.027 4.116 3.816 100.000 99.300   4.03 4.037 4.126 3.844 3.96 4.005 4.100 3.777 4.034 3.756 3.964 3.675 8.128 8.128 0.000 8.027 7.974 0.056 8.128 8.128 0.000 8.027 7.974 0.056
PRIMET_226 2019-09-28 23:40:00 226 3904.0 0.00 200   0.010     4.089 3.817 4.09 4.108 4.196 3.901 100.000 99.400   4.13 4.158 4.256 3.940 4.02 4.031 4.119 3.838 4.134 3.858 4.024 3.747 8.183 8.183 0.000 8.076 8.028 0.048 8.183 8.183 0.000 8.076 8.028 0.048
PRIMET_226 2019-09-28 23:35:00 226 3904.0 0.00 208   0.007     4.114 3.825 4.11 4.123 4.216 3.909 100.000 99.400   4.14 4.155 4.240 3.934 4.10 4.108 4.198 3.893 4.141 3.851 4.100 3.806 8.198 8.198 0.000 8.080 8.033 0.048 8.198 8.198 0.000 8.080 8.033 0.048
PRIMET_226 2019-09-28 23:30:00 226 3904.0 0.00 208   0.007     4.156 3.849 4.16 4.145 4.232 3.932 100.000 99.400   4.17 4.172 4.257 3.961 4.13 4.126 4.213 3.917 4.171 3.879 4.131 3.833 8.222 8.222 0.000 8.093 8.046 0.049 8.222 8.222 0.000 8.093 8.046 0.049
PRIMET_226 2019-09-28 23:25:00 226 3904.0 0.00 201   0.007     4.126 3.867 4.13 4.142 4.242 3.951 100.000 99.400   4.16 4.167 4.259 3.971 4.09 4.104 4.206 3.914 4.165 3.889 4.094 3.831 8.205 8.205 0.000 8.104 8.056 0.049 8.205 8.205 0.000 8.104 8.056 0.049
PRIMET_226 2019-09-28 23:20:00 226 3904.0 0.00 198   0.007     4.112 3.873 4.11 4.149 4.264 3.959 100.000 99.400   4.13 4.167 4.280 3.980 4.08 4.131 4.237 3.934 4.131 3.894 4.084 3.847 8.197 8.197 0.000 8.109 8.060 0.049 8.197 8.197 0.000 8.109 8.060 0.049
PRIMET_226 2019-09-28 23:15:00 226 3904.0 0.00 197   0.007     4.044 3.811 4.04 4.088 4.202 3.904 100.000 99.400   4.08 4.147 4.260 3.954 4.02 4.054 4.163 3.871 4.081 3.867 4.017 3.778 8.157 8.157 0.000 8.077 8.025 0.048 8.157 8.157 0.000 8.077 8.025 0.048
PRIMET_226 2019-09-28 23:10:00 226 3904.0 0.00 229   0.007     4.016 3.767 4.02 4.056 4.160 3.863 100.000 99.300   4.04 4.073 4.174 3.881 4.00 4.042 4.148 3.851 4.037 3.785 3.997 3.752 8.141 8.141 0.000 8.054 8.000 0.056 8.141 8.141 0.000 8.054 8.000 0.056
PRIMET_226 2019-09-28 23:05:00 226 3904.0 0.00 205   0.007     4.048 3.812 4.05 4.090 4.192 3.902 100.000 99.400   4.08 4.139 4.240 3.934 4.00 4.042 4.148 3.864 4.077 3.846 4.004 3.768 8.160 8.160 0.000 8.076 8.025 0.048 8.160 8.160 0.000 8.076 8.025 0.048
PRIMET_226 2019-09-28 23:00:00 226 3904.0 0.00 200   0.007     4.051 3.812 4.05 4.098 4.198 3.901 100.000 99.400   4.09 4.116 4.219 3.920 4.03 4.082 4.182 3.890 4.087 3.831 4.033 3.802 8.161 8.161 0.000 8.076 8.025 0.048 8.161 8.161 0.000 8.076 8.025 0.048
PRIMET_226 2019-09-28 22:55:00 226 3904.0 0.00 207   0.007     4.104 3.828 4.10 4.129 4.212 3.913 100.000 99.400   4.13 4.147 4.228 3.933 4.08 4.101 4.188 3.893 4.127 3.851 4.080 3.806 8.192 8.192 0.000 8.083 8.034 0.048 8.192 8.192 0.000 8.083 8.034 0.048
PRIMET_226 2019-09-28 22:50:00 226 3904.0 0.00 213   0.007     4.142 3.867 4.14 4.152 4.247 3.952 100.000 99.400   4.17 4.174 4.266 3.977 4.11 4.119 4.217 3.927 4.167 3.894 4.113 3.844 8.214 8.214 0.000 8.105 8.056 0.049 8.214 8.214 0.000 8.105 8.056 0.049
PRIMET_226 2019-09-28 22:45:00 226 3904.0 0.00 289   0.007     4.130 3.840 4.13 4.131 4.225 3.927 100.000 99.400   4.15 4.150 4.251 3.936 4.12 4.117 4.207 3.913 4.149 3.850 4.116 3.824 8.207 8.207 0.000 8.091 8.041 0.049 8.207 8.207 0.000 8.091 8.041 0.049
PRIMET_226 2019-09-28 22:40:00 226 3904.0 0.00 209   0.007     4.120 3.808 4.12 4.107 4.198 3.899 100.000 99.400   4.14 4.137 4.227 3.926 4.11 4.086 4.176 3.879 4.140 3.838 4.106 3.787 8.201 8.201 0.000 8.075 8.023 0.048 8.201 8.201 0.000 8.075 8.023 0.048
PRIMET_226 2019-09-28 22:35:00 226 3904.0 0.00 198   0.007     4.109 3.801 4.11 4.097 4.185 3.891 100.000 99.400   4.14 4.126 4.221 3.943 4.09 4.076 4.162 3.853 4.136 3.856 4.089 3.758 8.195 8.195 0.000 8.070 8.019 0.048 8.195 8.195 0.000 8.070 8.019 0.048
PRIMET_226 2019-09-28 22:30:00 226 3904.0 0.00 198   0.007     4.153 3.873 4.15 4.137 4.235 3.957 100.000 99.400   4.20 4.198 4.293 4.006 4.11 4.100 4.197 3.923 4.203 3.927 4.110 3.839 8.220 8.220 0.000 8.108 8.060 0.049 8.220 8.220 0.000 8.108 8.060 0.049
PRIMET_226 2019-09-28 22:25:00 226 3904.0 0.00 204   0.007     4.230 3.958 4.23 4.239 4.337 4.036 100.000 99.500   4.26 4.279 4.375 4.066 4.20 4.162 4.272 3.996 4.260 3.990 4.196 3.917 8.265 8.265 0.000 8.153 8.108 0.041 8.265 8.265 0.000 8.153 8.108 0.041
PRIMET_226 2019-09-28 22:20:00 226 3904.0 0.00 193   0.007     4.170 3.894 4.17 4.181 4.274 3.977 100.000 99.400   4.21 4.228 4.328 4.020 4.13 4.143 4.235 3.949 4.210 3.937 4.132 3.867 8.230 8.230 0.000 8.119 8.072 0.049 8.230 8.230 0.000 8.119 8.072 0.049
PRIMET_226 2019-09-28 22:15:00 226 3904.0 0.00 0   0.007     4.201 3.945 4.20 4.203 4.299 4.024 100.000 99.400   4.24 4.231 4.338 4.076 4.17 4.171 4.259 3.979 4.242 3.998 4.169 3.896 8.248 8.248 0.000 8.146 8.101 0.049 8.248 8.248 0.000 8.146 8.101 0.049
PRIMET_226 2019-09-28 22:10:00 226 3904.0 0.00 199   0.007     4.248 4.001 4.25 4.255 4.349 4.077 100.000 99.500   4.26 4.269 4.357 4.102 4.24 4.228 4.338 4.062 4.265 4.026 4.235 3.985 8.275 8.275 0.000 8.176 8.133 0.041 8.275 8.275 0.000 8.176 8.133 0.041
PRIMET_226 2019-09-28 22:05:00 226 3904.0 0.00 199   0.007     4.270 4.025 4.27 4.279 4.375 4.101 100.000 99.500   4.30 4.311 4.407 4.115 4.24 4.252 4.350 4.089 4.295 4.039 4.245 4.015 8.288 8.288 0.000 8.190 8.147 0.041 8.288 8.288 0.000 8.190 8.147 0.041
PRIMET_226 2019-09-28 22:00:00 226 3904.0 0.00 287   0.007     4.291 4.024 4.29 4.309 4.405 4.101 100.000 99.500   4.30 4.324 4.417 4.112 4.28 4.295 4.396 4.085 4.305 4.035 4.279 4.009 8.300 8.300 0.000 8.190 8.146 0.041 8.300 8.300 0.000 8.190 8.146 0.041
PRIMET_226 2019-09-28 21:55:00 226 3904.0 0.00 208   0.007     4.280 4.019 4.28 4.297 4.395 4.097 100.000 99.400   4.30 4.313 4.421 4.119 4.26 4.285 4.378 4.075 4.299 4.042 4.259 3.998 8.294 8.294 0.000 8.188 8.143 0.049 8.294 8.294 0.000 8.188 8.143 0.049
PRIMET_226 2019-09-28 21:50:00 226 3904.0 0.00 229   0.007     4.286 4.035 4.29 4.305 4.416 4.112 100.000 99.500   4.31 4.333 4.439 4.129 4.27 4.292 4.400 4.095 4.306 4.053 4.269 4.015 8.297 8.297 0.000 8.197 8.152 0.041 8.297 8.297 0.000 8.197 8.152 0.041
PRIMET_226 2019-09-28 21:45:00 226 3904.0 0.00 193   0.007     4.297 4.038 4.30 4.300 4.395 4.115 100.000 99.500   4.33 4.315 4.423 4.145 4.28 4.287 4.377 4.102 4.329 4.072 4.279 4.023 8.304 8.304 0.000 8.198 8.154 0.041 8.304 8.304 0.000 8.198 8.154 0.041
PRIMET_226 2019-09-28 21:40:00 226 3904.0 0.00 0   0.007     4.367 4.077 4.37 4.375 4.462 4.149 100.000 99.500   4.40 4.404 4.496 4.159 4.34 4.314 4.404 4.135 4.395 4.087 4.339 4.062 8.345 8.345 0.000 8.218 8.176 0.041 8.345 8.345 0.000 8.218 8.176 0.041
PRIMET_226 2019-09-28 21:35:00 226 3904.0 0.00 200   0.007     4.387 4.099 4.39 4.395 4.492 4.169 100.000 99.500   4.41 4.408 4.506 4.195 4.37 4.372 4.483 4.139 4.405 4.128 4.369 4.068 8.356 8.356 0.000 8.229 8.189 0.041 8.356 8.356 0.000 8.229 8.189 0.041
PRIMET_226 2019-09-28 21:30:00 226 3904.0 0.00 189   0.007     4.408 4.113 4.41 4.400 4.504 4.182 100.000 99.500   4.44 4.429 4.537 4.209 4.38 4.363 4.460 4.149 4.439 4.140 4.382 4.078 8.369 8.369 0.000 8.237 8.197 0.041 8.369 8.369 0.000 8.237 8.197 0.041
PRIMET_226 2019-09-28 21:25:00 226 3904.0 0.00 202   0.007     4.411 4.110 4.41 4.420 4.511 4.178 100.000 99.500   4.42 4.450 4.540 4.192 4.40 4.391 4.488 4.155 4.422 4.126 4.395 4.085 8.370 8.370 0.000 8.235 8.195 0.041 8.370 8.370 0.000 8.235 8.195 0.041
PRIMET_226 2019-09-28 21:20:00 226 3904.0 0.00 200   0.007     4.383 4.099 4.38 4.408 4.503 4.170 100.000 99.500   4.41 4.435 4.530 4.195 4.36 4.385 4.478 4.139 4.409 4.130 4.359 4.065 8.354 8.354 0.000 8.230 8.189 0.041 8.354 8.354 0.000 8.230 8.189 0.041
PRIMET_226 2019-09-28 21:15:00 226 3904.0 0.00 205   0.007     4.347 4.043 4.35 4.347 4.441 4.119 100.000 99.500   4.38 4.380 4.468 4.145 4.31 4.306 4.388 4.085 4.375 4.074 4.309 4.005 8.333 8.333 0.000 8.201 8.157 0.041 8.333 8.333 0.000 8.201 8.157 0.041
PRIMET_226 2019-09-28 21:10:00 226 3904.0 0.00 205   0.007     4.342 4.028 4.34 4.307 4.397 4.105 100.000 99.500   4.36 4.333 4.421 4.129 4.32 4.275 4.370 4.065 4.365 4.051 4.315 3.986 8.330 8.330 0.000 8.193 8.148 0.041 8.330 8.330 0.000 8.193 8.148 0.041
PRIMET_226 2019-09-28 21:05:00 226 3904.0 0.00 202   0.007     4.348 4.048 4.35 4.314 4.403 4.124 100.000 99.500   4.36 4.338 4.424 4.152 4.33 4.280 4.383 4.102 4.362 4.078 4.329 4.025 8.334 8.334 0.000 8.203 8.160 0.041 8.334 8.334 0.000 8.203 8.160 0.041
PRIMET_226 2019-09-28 21:00:00 226 3904.0 0.00 202   0.007     4.408 4.113 4.41 4.371 4.461 4.186 100.000 99.500   4.44 4.404 4.484 4.222 4.36 4.337 4.432 4.159 4.439 4.152 4.362 4.086 8.369 8.369 0.000 8.239 8.197 0.041 8.369 8.369 0.000 8.239 8.197 0.041
PRIMET_226 2019-09-28 20:55:00 226 3904.0 0.00 202   0.007     4.440 4.166 4.44 4.409 4.510 4.237 100.000 99.500   4.46 4.445 4.540 4.262 4.43 4.391 4.489 4.209 4.462 4.190 4.429 4.136 8.388 8.388 0.000 8.269 8.228 0.041 8.388 8.388 0.000 8.269 8.228 0.041
PRIMET_226 2019-09-28 20:50:00 226 3904.0 0.00 198   0.007     4.412 4.138 4.41 4.408 4.511 4.215 100.000 99.500   4.46 4.443 4.553 4.259 4.37 4.355 4.453 4.171 4.459 4.189 4.372 4.094 8.371 8.371 0.000 8.256 8.212 0.041 8.371 8.371 0.000 8.256 8.212 0.041
PRIMET_226 2019-09-28 20:45:00 226 3904.0 0.00 206   0.007     4.376 4.088 4.38 4.340 4.444 4.169 100.000 99.400   4.39 4.355 4.455 4.178 4.36 4.327 4.427 4.155 4.388 4.100 4.362 4.074 8.350 8.350 0.000 8.229 8.183 0.049 8.350 8.350 0.000 8.229 8.183 0.049
PRIMET_226 2019-09-28 20:40:00 226 3904.0 0.00 207   0.007     4.381 4.088 4.38 4.360 4.461 4.172 100.000 99.400   4.40 4.387 4.479 4.185 4.36 4.329 4.440 4.161 4.398 4.102 4.358 4.077 8.353 8.353 0.000 8.231 8.183 0.049 8.353 8.353 0.000 8.231 8.183 0.049
PRIMET_226 2019-09-28 20:35:00 226 3904.0 0.00 196   0.007     4.395 4.146 4.39 4.409 4.507 4.228 100.000 99.400   4.41 4.440 4.548 4.280 4.39 4.379 4.464 4.178 4.414 4.199 4.385 4.094 8.361 8.361 0.000 8.264 8.216 0.050 8.361 8.361 0.000 8.264 8.216 0.050
PRIMET_226 2019-09-28 20:30:00 226 3904.0 0.00 205   0.007     4.439 4.219 4.44 4.450 4.566 4.300 100.000 99.400   4.49 4.479 4.590 4.333 4.41 4.427 4.545 4.277 4.487 4.252 4.410 4.196 8.387 8.387 0.000 8.306 8.258 0.050 8.387 8.387 0.000 8.306 8.258 0.050
PRIMET_226 2019-09-28 20:25:00 226 3904.0 0.00 202   0.007     4.508 4.268 4.51 4.500 4.613 4.348 100.000 99.400   4.56 4.518 4.639 4.370 4.48 4.483 4.586 4.330 4.557 4.290 4.480 4.250 8.428 8.428 0.000 8.334 8.287 0.050 8.428 8.428 0.000 8.334 8.287 0.050
PRIMET_226 2019-09-28 20:20:00 226 3904.0 0.00 216   0.007     4.562 4.294 4.56 4.562 4.668 4.375 100.000 99.400   4.58 4.577 4.688 4.383 4.55 4.528 4.639 4.359 4.576 4.301 4.549 4.271 8.460 8.460 0.000 8.349 8.302 0.050 8.460 8.460 0.000 8.349 8.302 0.050
PRIMET_226 2019-09-28 20:15:00 226 3904.0 0.00 202   0.007     4.482 4.220 4.48 4.475 4.589 4.311 100.000 99.400   4.54 4.536 4.649 4.359 4.45 4.440 4.559 4.289 4.543 4.275 4.449 4.194 8.412 8.412 0.000 8.312 8.259 0.050 8.412 8.412 0.000 8.312 8.259 0.050
PRIMET_226 2019-09-28 20:10:00 226 3904.0 0.00 206   0.007     4.395 4.160 4.39 4.409 4.518 4.259 100.000 99.300   4.45 4.458 4.559 4.290 4.36 4.363 4.481 4.236 4.446 4.193 4.356 4.132 8.361 8.361 0.000 8.282 8.224 0.058 8.361 8.361 0.000 8.282 8.224 0.058
PRIMET_226 2019-09-28 20:05:00 226 3904.0 0.00 198   0.007     4.383 4.152 4.38 4.382 4.497 4.256 100.000 99.300   4.41 4.417 4.528 4.292 4.36 4.360 4.471 4.226 4.415 4.190 4.359 4.122 8.354 8.354 0.000 8.280 8.220 0.058 8.354 8.354 0.000 8.280 8.220 0.058
PRIMET_226 2019-09-28 20:00:00 226 3904.0 0.00 0   0.007     4.446 4.198 4.45 4.455 4.567 4.303 100.000 99.300   4.46 4.471 4.581 4.319 4.42 4.412 4.531 4.275 4.456 4.214 4.422 4.170 8.391 8.391 0.000 8.307 8.246 0.058 8.391 8.391 0.000 8.307 8.246 0.058
PRIMET_226 2019-09-28 19:55:00 226 3904.0 0.00 240   0.007     4.439 4.190 4.44 4.453 4.555 4.301 100.000 99.200   4.46 4.477 4.583 4.318 4.41 4.423 4.529 4.282 4.458 4.209 4.415 4.168 8.387 8.387 0.000 8.306 8.242 0.066 8.387 8.387 0.000 8.306 8.242 0.066
PRIMET_226 2019-09-28 19:50:00 226 3904.0 0.00 0   0.007     4.516 4.250 4.52 4.474 4.576 4.357 100.000 99.200   4.59 4.552 4.648 4.415 4.44 4.428 4.531 4.302 4.585 4.315 4.442 4.191 8.432 8.432 0.000 8.339 8.276 0.067 8.432 8.432 0.000 8.339 8.276 0.067
PRIMET_226 2019-09-28 19:45:00 226 3904.0 0.00 216   0.007     4.633 4.370 4.63 4.600 4.701 4.467 100.000 99.300   4.69 4.648 4.751 4.509 4.57 4.557 4.655 4.425 4.692 4.415 4.572 4.327 8.502 8.502 0.000 8.403 8.346 0.059 8.502 8.502 0.000 8.403 8.346 0.059
PRIMET_226 2019-09-28 19:40:00 226 3904.0 0.00 320   0.007     4.711 4.457 4.71 4.691 4.795 4.547 100.000 99.400   4.73 4.706 4.816 4.579 4.68 4.653 4.751 4.515 4.732 4.488 4.685 4.424 8.548 8.548 0.000 8.451 8.398 0.051 8.548 8.548 0.000 8.451 8.398 0.051
PRIMET_226 2019-09-28 19:35:00 226 3904.0 0.00 191   0.007     4.761 4.517 4.76 4.736 4.850 4.604 100.000 99.400   4.81 4.789 4.910 4.642 4.72 4.703 4.819 4.569 4.809 4.557 4.725 4.480 8.578 8.578 0.000 8.484 8.433 0.051 8.578 8.578 0.000 8.484 8.433 0.051
PRIMET_226 2019-09-28 19:30:00 226 3904.0 0.00 203   0.007     4.822 4.574 4.82 4.818 4.930 4.658 100.000 99.400   4.85 4.846 4.957 4.682 4.79 4.794 4.910 4.635 4.848 4.597 4.792 4.552 8.615 8.615 0.000 8.517 8.467 0.051 8.615 8.615 0.000 8.517 8.467 0.051
PRIMET_226 2019-09-28 19:25:00 226 3904.0 0.00 0   0.007     4.833 4.569 4.83 4.831 4.935 4.655 100.000 99.400   4.86 4.843 4.946 4.668 4.81 4.819 4.917 4.642 4.865 4.585 4.808 4.557 8.621 8.621 0.000 8.515 8.464 0.051 8.621 8.621 0.000 8.515 8.464 0.051
PRIMET_226 2019-09-28 19:20:00 226 3904.0 0.00 200   0.006     4.894 4.620 4.89 4.876 4.980 4.704 100.000 99.400   4.93 4.907 5.016 4.744 4.86 4.838 4.943 4.658 4.928 4.663 4.858 4.571 8.658 8.658 0.000 8.544 8.494 0.051 8.658 8.658 0.000 8.544 8.494 0.051
PRIMET_226 2019-09-28 19:15:00 226 3904.0 0.00 195   0.007     4.939 4.661 4.94 4.916 5.019 4.743 100.000 99.400   4.96 4.936 5.060 4.787 4.92 4.900 5.003 4.718 4.964 4.710 4.921 4.634 8.686 8.686 0.000 8.567 8.518 0.051 8.686 8.686 0.000 8.567 8.518 0.051
PRIMET_226 2019-09-28 19:10:00 226 3904.0 0.00 0   0.007     5.000 4.727 5.00 4.987 5.092 4.807 100.000 99.400   5.06 5.031 5.135 4.853 4.95 4.951 5.065 4.780 5.060 4.776 4.954 4.700 8.723 8.723 0.000 8.606 8.558 0.052 8.723 8.723 0.000 8.606 8.558 0.052
PRIMET_226 2019-09-28 19:05:00 226 3904.0 0.00 262   0.007     5.012 4.735 5.01 5.020 5.114 4.820 100.000 99.400   5.06 5.070 5.161 4.873 4.95 4.956 5.054 4.773 5.063 4.791 4.946 4.683 8.730 8.730 0.000 8.614 8.563 0.052 8.730 8.730 0.000 8.614 8.563 0.052
PRIMET_226 2019-09-28 19:00:00 226 3904.0 0.00 212   0.007     4.936 4.665 4.94 4.952 5.048 4.759 100.000 99.300   4.97 4.982 5.080 4.799 4.91 4.935 5.035 4.733 4.969 4.711 4.912 4.637 8.684 8.684 0.000 8.577 8.521 0.060 8.684 8.684 0.000 8.577 8.521 0.060
PRIMET_226 2019-09-28 18:55:00 226 3904.0 0.00 359   0.007     4.880 4.612 4.88 4.898 4.997 4.715 100.000 99.300   4.91 4.935 5.038 4.745 4.86 4.880 4.970 4.688 4.909 4.647 4.865 4.584 8.650 8.650 0.000 8.551 8.489 0.060 8.650 8.650 0.000 8.551 8.489 0.060
PRIMET_226 2019-09-28 18:50:00 226 3904.0 0.00 0   0.007     4.913 4.636 4.91 4.908 5.003 4.740 100.000 99.300   4.94 4.939 5.037 4.762 4.89 4.892 4.979 4.715 4.938 4.658 4.885 4.607 8.670 8.670 0.000 8.566 8.503 0.060 8.670 8.670 0.000 8.566 8.503 0.060
PRIMET_226 2019-09-28 18:45:00 226 3904.0 0.00 189   0.007     4.955 4.691 4.95 4.959 5.060 4.795 100.000 99.300   4.98 4.979 5.081 4.825 4.93 4.939 5.042 4.775 4.982 4.721 4.925 4.673 8.695 8.695 0.000 8.599 8.536 0.060 8.695 8.695 0.000 8.599 8.536 0.060
PRIMET_226 2019-09-28 18:40:00 226 3904.0 0.00 204   0.007     4.973 4.715 4.97 4.988 5.095 4.823 100.000 99.200   4.99 4.996 5.107 4.838 4.96 4.979 5.086 4.805 4.988 4.728 4.962 4.699 8.706 8.706 0.000 8.615 8.551 0.069 8.706 8.706 0.000 8.615 8.551 0.069
PRIMET_226 2019-09-28 18:35:00 226 3904.0 0.00 0   0.007     4.972 4.712 4.97 4.980 5.091 4.828 100.000 99.200   4.99 4.995 5.106 4.838 4.96 4.958 5.075 4.815 4.988 4.724 4.958 4.695 8.706 8.706 0.000 8.618 8.549 0.069 8.706 8.706 0.000 8.618 8.549 0.069
PRIMET_226 2019-09-28 18:30:00 226 3904.0 0.00 200   0.007     4.992 4.712 4.99 4.980 5.088 4.835 100.000 99.100   5.01 4.994 5.105 4.848 4.97 4.956 5.070 4.821 5.011 4.723 4.975 4.698 8.718 8.718 0.000 8.623 8.549 0.078 8.718 8.718 0.000 8.623 8.549 0.078
PRIMET_226 2019-09-28 18:25:00 226 3904.0 0.00 0   0.007     5.018 4.738 5.02 5.002 5.108 4.864 100.000 99.100   5.03 5.014 5.121 4.874 5.00 4.981 5.085 4.841 5.027 4.749 5.004 4.714 8.734 8.734 0.000 8.640 8.564 0.078 8.734 8.734 0.000 8.640 8.564 0.078
PRIMET_226 2019-09-28 18:20:00 226 3904.0 0.00 196   0.007     5.037 4.751 5.04 5.034 5.137 4.882 100.000 99.100   5.07 5.067 5.175 4.906 5.02 5.016 5.116 4.863 5.066 4.774 5.017 4.728 8.745 8.745 0.000 8.651 8.572 0.078 8.745 8.745 0.000 8.651 8.572 0.078
PRIMET_226 2019-09-28 18:15:00 226 3904.0 0.00 195   0.007     5.083 4.790 5.08 5.093 5.199 4.922 100.000 99.100   5.11 5.115 5.219 4.949 5.05 5.069 5.173 4.899 5.105 4.816 5.053 4.768 8.773 8.773 0.000 8.675 8.596 0.078 8.773 8.773 0.000 8.675 8.596 0.078
PRIMET_226 2019-09-28 18:10:00 226 3904.0 0.00 200   0.007     5.116 4.823 5.12 5.136 5.242 4.958 100.000 99.100   5.14 5.153 5.259 4.978 5.10 5.115 5.213 4.935 5.135 4.846 5.102 4.801 8.794 8.794 0.000 8.697 8.615 0.078 8.794 8.794 0.000 8.697 8.615 0.078
PRIMET_226 2019-09-28 18:05:00 226 3904.0 0.00 0   0.007     5.103 4.805 5.10 5.134 5.246 4.952 100.000 99.000   5.13 5.151 5.267 4.965 5.08 5.117 5.226 4.935 5.128 4.826 5.078 4.786 8.786 8.786 0.000 8.693 8.605 0.087 8.786 8.786 0.000 8.693 8.605 0.087
PRIMET_226 2019-09-28 18:00:00 226 3904.0 0.00 206   0.007     5.077 4.768 5.08 5.097 5.208 4.929 100.000 98.900   5.09 5.113 5.231 4.951 5.07 5.081 5.192 4.918 5.094 4.801 5.068 4.749 8.770 8.770 0.000 8.680 8.582 0.095 8.770 8.770 0.000 8.680 8.582 0.095
PRIMET_226 2019-09-28 17:55:00 226 3904.0 0.00 198   0.007     5.041 4.695 5.04 5.044 5.146 4.885 100.000 98.700   5.06 5.093 5.191 4.918 5.02 5.021 5.116 4.861 5.064 4.745 5.024 4.664 8.748 8.748 0.000 8.653 8.539 0.112 8.748 8.748 0.000 8.653 8.539 0.112
PRIMET_226 2019-09-28 17:50:00 226 3904.0 0.00 0   0.007     5.035 4.679 5.06 5.038 5.134 4.891 99.800 98.500   5.09 5.066 5.164 4.924 5.04 5.025 5.121 4.864 5.049 4.704 5.025 4.657 8.759 8.744 0.018 8.657 8.529 0.130 8.759 8.744 0.018 8.657 8.529 0.130
PRIMET_226 2019-09-28 17:45:00 226 3904.0 0.00 197   0.007     5.106 4.775 5.16 5.111 5.211 4.994 99.600 98.500   5.22 5.161 5.261 5.062 5.11 5.060 5.161 4.917 5.160 4.846 5.063 4.697 8.819 8.787 0.035 8.719 8.587 0.131 8.819 8.787 0.035 8.719 8.587 0.131
PRIMET_226 2019-09-28 17:40:00 226 3904.0 0.00 0   0.007     5.235 4.928 5.28 5.239 5.348 5.132 99.700 98.600   5.34 5.287 5.403 5.181 5.23 5.167 5.275 5.069 5.284 4.980 5.175 4.856 8.898 8.867 0.027 8.803 8.679 0.123 8.898 8.867 0.027 8.803 8.679 0.123
PRIMET_226 2019-09-28 17:35:00 226 3904.0 0.00 0   0.007     5.326 5.018 5.39 5.337 5.454 5.222 99.500 98.600   5.44 5.373 5.495 5.274 5.34 5.292 5.408 5.178 5.358 5.065 5.291 4.979 8.964 8.923 0.045 8.859 8.734 0.124 8.964 8.923 0.045 8.859 8.734 0.124
PRIMET_226 2019-09-28 17:30:00 226 3904.0 0.00 0   0.007     5.472 5.114 5.53 5.445 5.558 5.318 99.600 98.600   5.57 5.504 5.599 5.351 5.44 5.365 5.495 5.267 5.533 5.142 5.364 5.059 9.049 9.014 0.036 8.918 8.792 0.125 9.049 9.014 0.036 8.918 8.792 0.125
PRIMET_226 2019-09-28 17:25:00 226 3904.0 0.00 196   0.007     5.598 5.162 5.63 5.547 5.639 5.376 99.800 98.500   5.66 5.589 5.671 5.410 5.58 5.506 5.602 5.334 5.628 5.195 5.546 5.122 9.114 9.094 0.018 8.954 8.822 0.134 9.114 9.094 0.018 8.954 8.822 0.134
PRIMET_226 2019-09-28 17:20:00 226 3904.0 0.00 193   0.007     5.627 5.221 5.68 5.597 5.694 5.438 99.600 98.500   5.71 5.624 5.715 5.456 5.66 5.573 5.671 5.403 5.642 5.240 5.615 5.186 9.147 9.112 0.037 8.993 8.858 0.135 9.147 9.112 0.037 8.993 8.858 0.135
PRIMET_226 2019-09-28 17:15:00 226 3904.0 0.00 204   0.007     5.712 5.259 5.75 5.667 5.754 5.481 99.700 98.500   5.81 5.743 5.831 5.547 5.69 5.608 5.701 5.429 5.803 5.337 5.628 5.198 9.189 9.166 0.028 9.020 8.882 0.135 9.189 9.166 0.028 9.020 8.882 0.135
PRIMET_226 2019-09-28 17:10:00 226 3904.0 0.00 210   0.007     5.877 5.404 5.88 5.817 5.902 5.606 100.000 98.600   5.90 5.863 5.959 5.637 5.82 5.738 5.821 5.544 5.904 5.437 5.816 5.334 9.271 9.271 0.000 9.099 8.972 0.127 9.271 9.271 0.000 9.099 8.972 0.127
PRIMET_226 2019-09-28 17:05:00 226 3904.0 0.00 198   0.007     5.856 5.421 5.87 5.856 5.942 5.637 99.900 98.500   5.89 5.882 5.964 5.653 5.85 5.819 5.912 5.607 5.883 5.452 5.815 5.381 9.269 9.258 0.009 9.118 8.982 0.137 9.269 9.258 0.009 9.118 8.982 0.137
PRIMET_226 2019-09-28 17:00:00 226 3904.0 0.00 414   0.007     5.802 5.393 5.88 5.855 5.951 5.643 99.500 98.300   5.91 5.880 5.976 5.659 5.86 5.826 5.919 5.626 5.824 5.418 5.780 5.358 9.273 9.223 0.046 9.122 8.965 0.155 9.273 9.223 0.046 9.122 8.965 0.155
PRIMET_226 2019-09-28 16:55:00 226 3904.0 0.00 199   0.007     5.690 5.293 5.91 5.834 5.925 5.617 98.500 97.800   5.93 5.873 5.969 5.655 5.89 5.775 5.860 5.578 5.770 5.378 5.583 5.201 9.290 9.152 0.139 9.106 8.903 0.200 9.290 9.152 0.139 9.106 8.903 0.200
PRIMET_226 2019-09-28 16:50:00 226 3904.0 0.00 200   0.007     5.573 5.226 5.97 5.819 5.912 5.644 97.300 97.100   6.06 5.860 5.941 5.697 5.91 5.771 5.865 5.587 5.610 5.240 5.539 5.199 9.334 9.078 0.252 9.123 8.861 0.265 9.334 9.078 0.252 9.123 8.861 0.265
PRIMET_226 2019-09-28 16:45:00 226 3904.0 0.00 286   0.070     5.708 5.331 6.19 5.974 6.050 5.824 96.700 96.600   6.30 6.093 6.173 5.943 6.07 5.866 5.951 5.720 5.793 5.433 5.626 5.256 9.474 9.163 0.313 9.237 8.926 0.314 9.474 9.163 0.313 9.237 8.926 0.314
PRIMET_226 2019-09-28 16:40:00 226 3904.0 0.00 212   0.129 266.100 2.126 5.936 5.513 6.46 6.249 6.310 6.075 96.500 96.200   6.62 6.450 6.496 6.240 6.31 6.126 6.204 5.957 6.140 5.690 5.781 5.436 9.651 9.309 0.338 9.399 9.040 0.357 9.651 9.309 0.338 9.399 9.040 0.357
PRIMET_226 2019-09-28 16:35:00 226 3904.0 0.00 252   0.547 301.300 26.980 6.165 5.750 6.78 6.535 6.590 6.386 95.900 95.700 1.424 6.98 6.673 6.719 6.586 6.63 6.423 6.482 6.247 6.303 5.870 6.098 5.685 9.865 9.458 0.404 9.603 9.190 0.413 9.865 9.458 0.404 9.603 9.190 0.413
PRIMET_226 2019-09-28 16:30:00 226 3904.0 0.00 330   0.815 304.300 18.640 6.709 6.340 7.29 7.052 7.111 6.957 96.100 95.800 1.372 7.54 7.388 7.445 7.279 7.02 6.683 6.730 6.616 7.090 6.825 6.365 5.913 10.217 9.820 0.398 9.988 9.573 0.420 10.217 9.820 0.398 9.988 9.573 0.420
PRIMET_226 2019-09-28 16:25:00 226 3904.0 0.00 0   0.564 315.900 36.340 7.480 7.129 7.75 7.689 7.747 7.496 98.100 97.500 1.627 7.89 7.821 7.881 7.639 7.57 7.421 7.478 7.306 7.613 7.297 7.182 6.891 10.549 10.353 0.200 10.364 10.107 0.259 10.549 10.353 0.200 10.364 10.107 0.259
PRIMET_226 2019-09-28 16:20:00 226 3904.0 0.00 226   0.124 220.800 2.414 7.883 7.542 8.07 8.030 8.110 7.829 98.700 98.100   8.26 8.280 8.360 8.010 7.90 7.855 7.920 7.659 8.220 7.775 7.622 7.321 10.778 10.642 0.140 10.603 10.397 0.201 10.778 10.642 0.140 10.603 10.397 0.201
PRIMET_226 2019-09-28 16:15:00 226 3904.0 0.00 195   0.040     8.190 7.737 8.27 8.300 8.360 7.998 99.400 98.200   8.29 8.340 8.390 8.020 8.24 8.280 8.330 7.968 8.260 7.783 8.120 7.704 10.926 10.867 0.066 10.726 10.536 0.193 10.926 10.867 0.066 10.726 10.536 0.193
PRIMET_226 2019-09-28 16:10:00 226 3904.0 0.00 192   0.007     8.060 7.706 8.26 8.310 8.380 8.010 98.600 98.000   8.28 8.330 8.390 8.020 8.24 8.290 8.350 7.988 8.110 7.727 8.030 7.668 10.918 10.771 0.153 10.734 10.514 0.215 10.918 10.771 0.153 10.734 10.514 0.215
PRIMET_226 2019-09-28 16:05:00 226 3904.0 0.00 0   0.007     8.050 7.694 8.31 8.340 8.400 8.030 98.200 97.700   8.38 8.410 8.470 8.100 8.27 8.310 8.370 7.993 8.130 7.773 7.998 7.655 10.956 10.764 0.197 10.749 10.505 0.247 10.956 10.764 0.197 10.749 10.505 0.247
PRIMET_226 2019-09-28 16:00:00 226 3904.0 0.00 188   0.007     8.150 7.815 8.42 8.470 8.520 8.130 98.200 97.900   8.43 8.500 8.570 8.170 8.38 8.400 8.470 8.090 8.190 7.861 8.110 7.765 11.038 10.837 0.199 10.822 10.593 0.227 11.038 10.837 0.199 10.822 10.593 0.227
PRIMET_226 2019-09-28 15:55:00 226 3904.0 0.00 193   0.007     8.100 7.756 8.44 8.460 8.520 8.110 97.700 97.600   8.46 8.480 8.540 8.140 8.42 8.430 8.490 8.080 8.120 7.809 8.070 7.706 11.053 10.800 0.254 10.808 10.550 0.259 11.053 10.800 0.254 10.808 10.550 0.259
PRIMET_226 2019-09-28 15:50:00 226 3904.0 0.00 198   0.007     8.070 7.656 8.44 8.430 8.480 8.070 97.500 97.200   8.47 8.450 8.500 8.090 8.42 8.410 8.460 8.050 8.130 7.702 8.030 7.625 11.053 10.778 0.276 10.778 10.478 0.302 11.053 10.778 0.276 10.778 10.478 0.302
PRIMET_226 2019-09-28 15:45:00 226 3904.0 0.00 201   0.007     8.030 7.644 8.43 8.480 8.510 8.070 97.300 97.100   8.46 8.530 8.540 8.090 8.41 8.440 8.480 8.060 8.070 7.660 7.991 7.632 11.045 10.749 0.298 10.778 10.470 0.313 11.045 10.749 0.298 10.778 10.470 0.313
PRIMET_226 2019-09-28 15:40:00 226 3904.0 0.00 200   0.007     8.120 7.685 8.47 8.540 8.550 8.110 97.600 97.100   8.51 8.620 8.620 8.150 8.44 8.500 8.520 8.080 8.210 7.739 8.040 7.642 11.075 10.815 0.266 10.808 10.499 0.313 11.075 10.815 0.266 10.808 10.499 0.313
PRIMET_226 2019-09-28 15:35:00 226 3904.0 0.00 196   0.007     8.030 7.669 8.48 8.570 8.610 8.150 97.000 96.800   8.55 8.600 8.630 8.180 8.45 8.540 8.570 8.130 8.150 7.724 7.962 7.611 11.083 10.749 0.332 10.837 10.488 0.347 11.083 10.749 0.332 10.837 10.488 0.347
PRIMET_226 2019-09-28 15:30:00 226 3904.0 0.00 237   0.007     8.120 7.746 8.63 8.680 8.700 8.260 96.600 96.600   8.69 8.720 8.750 8.340 8.56 8.600 8.610 8.200 8.190 7.867 8.070 7.661 11.196 10.815 0.381 10.918 10.543 0.371 11.196 10.815 0.381 10.918 10.543 0.371
PRIMET_226 2019-09-28 15:25:00 226 3904.0 0.00 196   0.007     8.380 7.967 8.75 8.850 8.860 8.370 97.500 97.300   8.78 8.900 8.920 8.410 8.70 8.750 8.770 8.320 8.430 8.010 8.240 7.910 11.287 11.008 0.282 11.000 10.703 0.297 11.287 11.008 0.282 11.000 10.703 0.297
PRIMET_226 2019-09-28 15:20:00 226 3904.0 0.00 211   0.007     8.190 7.759 8.56 8.640 8.670 8.170 97.500 97.200   8.70 8.790 8.780 8.290 8.45 8.480 8.500 8.040 8.390 7.925 7.966 7.541 11.143 10.867 0.279 10.852 10.552 0.304 11.143 10.867 0.279 10.852 10.552 0.304
PRIMET_226 2019-09-28 15:15:00 226 3904.0 0.00 230   0.007     7.836 7.465 8.44 8.430 8.450 8.020 96.000 96.300   8.46 8.450 8.470 8.040 8.41 8.400 8.410 7.990 7.939 7.537 7.781 7.376 11.053 10.608 0.442 10.742 10.342 0.397 11.053 10.608 0.442 10.742 10.342 0.397
PRIMET_226 2019-09-28 15:10:00 226 3904.0 0.00 196   0.007     7.760 7.402 8.51 8.430 8.440 8.050 95.100 95.700   8.57 8.480 8.490 8.100 8.45 8.380 8.390 8.010 7.794 7.418 7.717 7.384 11.105 10.553 0.544 10.764 10.298 0.463 11.105 10.553 0.544 10.764 10.298 0.463
PRIMET_226 2019-09-28 15:05:00 226 3904.0 0.00 205   0.007     7.844 7.412 8.67 8.550 8.550 8.150 94.500 95.100   8.75 8.580 8.600 8.210 8.58 8.480 8.490 8.090 7.987 7.484 7.789 7.384 11.226 10.614 0.617 10.837 10.305 0.531 11.226 10.614 0.617 10.837 10.305 0.531
PRIMET_226 2019-09-28 15:00:00 226 3904.0 0.00 197   0.007     8.180 7.612 8.76 8.670 8.680 8.260 96.100 95.700   8.78 8.730 8.720 8.290 8.74 8.610 8.620 8.220 8.330 7.725 8.060 7.516 11.295 10.859 0.441 10.918 10.447 0.469 11.295 10.859 0.441 10.918 10.447 0.469
PRIMET_226 2019-09-28 14:55:00 226 3904.0 0.00 192   0.006     8.210 7.737 8.68 8.710 8.750 8.290 96.800 96.300   8.76 8.760 8.810 8.320 8.58 8.650 8.710 8.260 8.380 7.814 7.952 7.644 11.234 10.881 0.359 10.941 10.536 0.405 11.234 10.881 0.359 10.941 10.536 0.405
PRIMET_226 2019-09-28 14:50:00 226 3904.0 0.00 222   0.050     7.987 7.703 8.55 8.610 8.670 8.250 96.300 96.400   8.58 8.650 8.720 8.270 8.53 8.580 8.640 8.220 8.130 7.786 7.868 7.617 11.135 10.717 0.412 10.911 10.512 0.393 11.135 10.717 0.412 10.911 10.512 0.393
PRIMET_226 2019-09-28 14:45:00 226 3904.0 0.00 198   0.007     7.896 7.632 8.38 8.480 8.500 8.080 96.800 97.000   8.50 8.600 8.630 8.200 8.29 8.330 8.370 7.981 8.120 7.790 7.694 7.450 11.008 10.651 0.352 10.786 10.461 0.324 11.008 10.651 0.352 10.786 10.461 0.324
PRIMET_226 2019-09-28 14:40:00 226 3904.0 0.00 198   0.007     7.710 7.406 8.32 8.370 8.420 7.968 95.900 96.200   8.35 8.440 8.500 8.000 8.30 8.300 8.330 7.920 7.789 7.499 7.621 7.259 10.963 10.517 0.449 10.704 10.301 0.407 10.963 10.517 0.449 10.704 10.301 0.407
PRIMET_226 2019-09-28 14:35:00 226 3904.0 0.00 194   0.007     7.615 7.235 8.37 8.390 8.440 7.987 95.000 95.000   8.45 8.480 8.530 8.090 8.30 8.300 8.370 7.923 7.722 7.257 7.513 7.222 11.000 10.449 0.550 10.717 10.181 0.536 11.000 10.449 0.550 10.717 10.181 0.536
PRIMET_226 2019-09-28 14:30:00 226 3904.0 0.00 185   0.007     7.513 7.278 8.52 8.600 8.680 8.230 93.400 93.700   8.61 8.710 8.790 8.330 8.46 8.450 8.530 8.090 7.589 7.309 7.320 7.222 11.113 10.376 0.733 10.896 10.211 0.686 11.113 10.376 0.733 10.896 10.211 0.686
PRIMET_226 2019-09-28 14:25:00 226 3904.0 0.00 195   0.006     7.729 7.580 8.80 9.000 9.000 8.480 93.000 94.100   8.87 9.210 9.200 8.570 8.63 8.730 8.800 8.330 8.050 7.866 7.315 7.266 11.326 10.531 0.793 11.083 10.424 0.654 11.326 10.531 0.793 11.083 10.424 0.654
PRIMET_226 2019-09-28 14:20:00 226 3904.0 0.00 198   0.083     8.130 7.760 8.71 8.940 8.930 8.360 96.100 96.000   8.86 9.140 9.090 8.500 8.40 8.660 8.650 8.060 8.310 7.909 7.752 7.381 11.257 10.822 0.439 10.993 10.553 0.440 11.257 10.822 0.439 10.993 10.553 0.440
PRIMET_226 2019-09-28 14:15:00 226 3904.0 0.00 206   0.007     7.558 7.249 8.28 8.470 8.450 7.951 95.200 95.300   8.34 8.580 8.560 7.998 8.24 8.410 8.410 7.937 7.681 7.330 7.429 7.155 10.933 10.408 0.525 10.691 10.191 0.502 10.933 10.408 0.525 10.691 10.191 0.502
PRIMET_226 2019-09-28 14:10:00 226 3904.0 0.00 192   0.007     7.544 7.264 8.24 8.370 8.360 7.926 95.400 95.600   8.25 8.460 8.410 7.947 8.22 8.300 8.310 7.911 7.728 7.332 7.442 7.211 10.904 10.398 0.502 10.673 10.201 0.470 10.904 10.398 0.502 10.673 10.201 0.470
PRIMET_226 2019-09-28 14:05:00 226 3904.0 0.00 187   0.007     7.231 6.953 8.01 7.969 7.989 7.712 94.900 94.900   8.22 8.290 8.300 7.906 7.86 7.687 7.734 7.573 7.676 7.323 6.857 6.653 10.734 10.178 0.547 10.518 9.986 0.536 10.734 10.178 0.547 10.518 9.986 0.536
PRIMET_226 2019-09-28 14:00:00 226 3904.0 0.00 190   0.006     7.016 6.795 8.04 7.935 7.958 7.706 93.200 94.000   8.11 8.020 8.050 7.765 7.96 7.804 7.835 7.632 7.283 6.987 6.798 6.565 10.756 10.029 0.731 10.514 9.878 0.631 10.756 10.029 0.731 10.514 9.878 0.631
PRIMET_226 2019-09-28 13:55:00 226 3904.0 0.00 248   0.375 197.600 4.723 7.288 7.012 8.27 8.090 8.120 7.926 93.500 93.900   8.48 8.280 8.330 8.150 8.10 7.949 7.996 7.765 7.452 7.107 7.145 6.943 10.926 10.218 0.710 10.673 10.026 0.651 10.926 10.218 0.710 10.673 10.026 0.651
PRIMET_226 2019-09-28 13:50:00 226 3904.0 0.00 192   0.325 158.900 39.170 7.217 7.116 8.74 8.530 8.590 8.350 90.200 91.900   8.90 8.690 8.770 8.440 8.51 8.280 8.320 8.190 7.552 7.461 6.514 6.743 11.280 10.168 1.105 10.985 10.098 0.890 11.280 10.168 1.105 10.985 10.098 0.890
PRIMET_226 2019-09-28 13:45:00 226 3904.0 0.00 200   0.143 207.600 64.350 7.373 6.880 9.22 8.860 8.910 8.650 88.200 88.600 1.209 9.48 9.170 9.160 8.860 8.95 8.540 8.600 8.440 7.927 7.190 6.325 6.017 11.652 10.277 1.375 11.211 9.936 1.278 11.652 10.277 1.375 11.211 9.936 1.278
PRIMET_226 2019-09-28 13:40:00 226 3904.0 0.00 190   0.117 285.100 4.099 7.690 7.072 9.68 9.380 9.380 9.050 87.400 87.400   9.81 9.520 9.520 9.220 9.50 9.170 9.180 8.880 7.913 7.258 7.479 6.921 12.018 10.503 1.514 11.519 10.068 1.451 12.018 10.503 1.514 11.519 10.068 1.451
PRIMET_226 2019-09-28 13:35:00 226 3904.0 0.00 192   0.173 268.500 21.020 7.254 6.811 9.99 9.770 9.760 9.450 83.100 83.600   10.20 9.990 9.950 9.620 9.84 9.550 9.550 9.250 7.771 7.217 6.535 6.275 12.271 10.194 2.074 11.833 9.889 1.941 12.271 10.194 2.074 11.833 9.889 1.941
PRIMET_226 2019-09-28 13:30:00 226 3904.0 0.00 186   0.466 252.400 35.950 7.078 6.811 10.44 10.270 10.200 9.890 79.730 81.200 1.516 10.79 10.630 10.550 10.150 10.20 9.980 9.950 9.650 7.727 7.306 6.331 6.232 12.645 10.072 2.563 12.189 9.889 2.291 12.645 10.072 2.563 12.189 9.889 2.291
PRIMET_226 2019-09-28 13:25:00 226 3904.0 0.00 192   0.549 219.100 24.930 7.148 6.850 11.10 10.970 10.880 10.500 76.630 78.150 1.261 11.35 11.300 11.240 10.820 10.82 10.650 10.570 10.180 8.030 7.804 6.165 6.037 13.214 10.120 3.088 12.696 9.915 2.774 13.214 10.120 3.088 12.696 9.915 2.774
PRIMET_226 2019-09-28 13:20:00 226 3904.0 0.00 195   0.237 242.800 36.180 7.101 6.729 11.48 11.500 11.470 11.070 74.520 74.590 1.130 11.58 11.670 11.650 11.200 11.39 11.310 11.310 10.880 8.730 7.678 6.078 6.062 13.551 10.088 3.453 13.187 9.833 3.351 13.551 10.088 3.453 13.187 9.833 3.351
PRIMET_226 2019-09-28 13:15:00 226 3904.0 0.00 200   0.286 200.500 47.750 6.887 6.455 11.57 11.510 11.490 11.050 72.960 73.310 1.699 11.66 11.650 11.620 11.100 11.48 11.370 11.340 10.950 8.110 7.274 6.162 5.817 13.632 9.941 3.686 13.170 9.649 3.515 13.632 9.941 3.686 13.170 9.649 3.515
PRIMET_226 2019-09-28 13:10:00 226 3904.0 0.00 191   0.664 239.700 24.890 6.802 6.166 11.55 11.420 11.280 10.910 72.690 72.520 2.084 11.75 11.590 11.420 10.980 11.29 11.220 11.110 10.760 8.240 6.991 5.850 5.719 13.614 9.883 3.718 13.048 9.459 3.586 13.614 9.883 3.718 13.048 9.459 3.586
PRIMET_226 2019-09-28 13:05:00 226 3904.0 0.00 203   0.588 215.800 43.340 6.587 6.332 11.44 11.300 11.210 10.940 72.100 73.220 1.862 11.63 11.530 11.440 11.050 11.23 11.040 10.930 10.700 8.070 7.233 5.396 5.543 13.515 9.737 3.771 13.074 9.568 3.501 13.515 9.737 3.771 13.074 9.568 3.501
PRIMET_226 2019-09-28 13:00:00 226 3904.0 0.00 224   0.719 224.200 31.700 7.133 6.576 11.43 11.540 11.430 10.930 74.940 74.500 2.483 11.63 11.730 11.570 11.040 11.19 11.340 11.230 10.770 8.420 7.421 6.045 5.733 13.506 10.110 3.385 13.065 9.730 3.332 13.506 10.110 3.385 13.065 9.730 3.332
PRIMET_226 2019-09-28 12:55:00 226 3904.0 0.00 189   0.607 247.200 48.680 7.064 6.614 10.83 10.930 10.900 10.470 77.580 77.050 1.744 11.12 11.300 11.200 10.730 10.51 10.450 10.450 10.220 8.180 7.735 6.334 6.077 12.979 10.062 2.910 12.671 9.756 2.908 12.979 10.062 2.910 12.671 9.756 2.908
PRIMET_226 2019-09-28 12:50:00 226 3904.0 0.00 185 1.730 1.555 227.000 25.720 7.075 6.777 10.75 10.840 10.790 10.480 78.040 77.840 2.907 11.05 11.240 11.130 10.770 10.55 10.440 10.430 10.270 8.740 7.801 6.101 5.982 12.910 10.070 2.835 12.679 9.866 2.810 12.910 10.070 2.835 12.679 9.866 2.810
PRIMET_226 2019-09-28 12:45:00 226 3904.0 0.00 194   0.622 214.200 40.640 7.203 6.882 10.92 11.230 11.140 10.660 77.890 77.470 1.986 11.09 11.500 11.370 10.810 10.69 10.870 10.860 10.430 8.460 7.364 6.402 6.415 13.056 10.158 2.887 12.832 9.937 2.891 13.056 10.158 2.887 12.832 9.937 2.891
PRIMET_226 2019-09-28 12:40:00 226 3904.0 0.00 193 1.407 1.227 215.800 28.980 7.029 6.796 10.66 10.950 10.760 10.250 78.260 79.130 2.875 10.81 11.070 10.960 10.410 10.47 10.820 10.590 10.060 8.220 7.955 6.368 6.240 12.832 10.038 2.790 12.486 9.879 2.606 12.832 10.038 2.790 12.486 9.879 2.606
PRIMET_226 2019-09-28 12:35:00 226 3904.0 0.00 202 1.195 1.056 211.200 27.610 7.230 6.909 9.93 10.180 10.010 9.530 83.300 83.700 2.332 10.44 10.970 10.700 10.000 9.59 9.670 9.630 9.260 7.979 7.838 6.635 6.311 12.221 10.177 2.041 11.897 9.956 1.939 12.221 10.177 2.041 11.897 9.956 1.939
PRIMET_226 2019-09-28 12:30:00 226 3904.0 0.00 190   0.240 256.400 52.360 7.272 7.068 10.02 10.090 9.990 9.520 83.000 84.700 1.490 10.41 10.550 10.330 9.750 9.68 9.740 9.720 9.300 8.540 8.030 6.448 6.394 12.295 10.207 2.090 11.889 10.065 1.819 12.295 10.207 2.090 11.889 10.065 1.819
PRIMET_226 2019-09-28 12:25:00 226 3904.0 0.00 194   0.116 135.100 43.460 7.611 7.101 10.10 10.210 10.120 9.530 84.600 84.800   10.34 10.480 10.350 9.700 10.01 9.970 9.930 9.440 8.520 7.778 6.925 6.718 12.361 10.446 1.904 11.897 10.088 1.808 12.361 10.446 1.904 11.897 10.088 1.808
PRIMET_226 2019-09-28 12:20:00 226 3904.0 0.00 191   0.213 26.460 15.140 7.953 7.522 10.02 10.430 10.340 9.610 87.000 86.900   10.14 10.630 10.530 9.710 9.75 10.170 10.100 9.440 8.690 8.300 7.305 6.821 12.295 10.693 1.598 11.962 10.383 1.567 12.295 10.693 1.598 11.962 10.383 1.567
PRIMET_226 2019-09-28 12:15:00 226 3904.0 0.00 195   0.198 109.500 21.340 6.712 6.685 9.36 9.640 9.610 9.040 83.500 85.200 1.013 9.67 10.130 10.080 9.400 9.15 9.360 9.330 8.750 7.520 7.350 6.223 6.237 11.762 9.822 1.941 11.511 9.803 1.704 11.762 9.822 1.941 11.511 9.803 1.704
PRIMET_226 2019-09-28 12:10:00 226 3904.0 0.00 198   0.517 221.600 25.580 6.861 6.641 9.16 9.230 9.220 8.760 85.600 86.600 1.235 9.25 9.320 9.280 8.810 9.10 9.120 9.160 8.730 7.244 6.990 6.348 6.328 11.604 9.923 1.671 11.295 9.774 1.514 11.604 9.923 1.671 11.295 9.774 1.514
PRIMET_226 2019-09-28 12:05:00 226 3904.0 0.00 195 1.007 0.930 218.400 22.420 6.968 6.645 9.33 9.380 9.330 8.920 85.200 85.600 1.790 9.41 9.490 9.420 9.000 9.26 9.230 9.190 8.800 7.524 6.985 6.280 6.196 11.738 9.996 1.737 11.418 9.776 1.644 11.738 9.996 1.737 11.418 9.776 1.644
PRIMET_226 2019-09-28 12:00:00 226 3904.0 0.00 193   0.749 222.500 13.300 7.306 7.082 9.33 9.450 9.380 8.980 87.200 87.900 1.614 9.40 9.560 9.470 9.040 9.24 9.240 9.240 8.930 7.846 7.429 6.551 6.649 11.738 10.230 1.502 11.464 10.075 1.387 11.738 10.230 1.502 11.464 10.075 1.387
PRIMET_226 2019-09-28 11:55:00 226 3904.0 0.00 199   0.558 227.300 23.010 7.163 6.945 9.45 9.630 9.530 9.020 85.700 86.900 1.241 9.69 10.060 9.940 9.200 9.24 9.340 9.280 8.830 8.530 8.060 6.379 6.387 11.833 10.131 1.692 11.495 9.980 1.506 11.833 10.131 1.692 11.495 9.980 1.506
PRIMET_226 2019-09-28 11:50:00 226 3904.0 0.00 197 1.060 0.974 208.000 23.130 6.754 6.378 9.20 9.240 9.150 8.800 84.700 84.800 2.476 9.40 9.410 9.310 8.900 9.05 9.070 8.980 8.730 7.578 6.973 6.047 5.919 11.636 9.850 1.780 11.326 9.598 1.721 11.636 9.850 1.780 11.326 9.598 1.721
PRIMET_226 2019-09-28 11:45:00 226 3904.0 0.00 190   0.763 214.200 25.390 6.815 6.615 9.24 9.550 9.500 9.020 84.800 84.900 1.790 9.31 9.710 9.670 9.080 9.14 9.310 9.230 8.850 7.678 7.260 6.354 6.063 11.667 9.891 1.773 11.495 9.756 1.736 11.667 9.891 1.773 11.495 9.756 1.736
PRIMET_226 2019-09-28 11:40:00 226 3904.0 0.00 200   0.314 203.000 28.340 7.263 7.168 9.11 9.430 9.350 8.810 88.200 89.400 1.163 9.17 9.580 9.540 8.960 8.99 9.280 9.180 8.630 8.070 7.599 6.742 6.764 11.565 10.200 1.365 11.333 10.134 1.201 11.565 10.200 1.365 11.333 10.134 1.201
PRIMET_226 2019-09-28 11:35:00 226 3904.0 0.00 184   0.715 213.800 13.140 7.107 6.829 8.94 9.130 9.000 8.540 88.300 89.000 1.176 9.04 9.330 9.200 8.680 8.74 8.830 8.660 8.220 7.811 7.460 6.505 6.377 11.433 10.092 1.338 11.128 9.901 1.224 11.433 10.092 1.338 11.128 9.901 1.224
PRIMET_226 2019-09-28 11:30:00 226 3904.0 0.00 369 1.101 1.064 191.700 14.770 7.134 6.720 8.43 8.570 8.470 8.060 91.500 91.300 1.699 8.68 8.790 8.610 8.190 8.32 8.440 8.380 8.000 7.522 6.897 6.844 6.398 11.045 10.111 0.939 10.771 9.827 0.937 11.045 10.111 0.939 10.771 9.827 0.937
PRIMET_226 2019-09-28 11:25:00 226 3904.0 0.00 331   0.117 167.300 7.108 6.926 6.771 8.37 8.380 8.360 7.981 90.600 92.100   8.48 8.540 8.490 8.030 8.31 8.260 8.230 7.925 7.573 7.303 6.652 6.527 11.000 9.967 1.034 10.713 9.862 0.846 11.000 9.967 1.034 10.713 9.862 0.846
PRIMET_226 2019-09-28 11:20:00 226 3904.0 0.00 285   0.007     7.589 7.396 8.38 8.380 8.390 7.892 94.800 96.700   8.46 8.590 8.550 8.030 8.26 8.070 8.050 7.612 7.722 7.631 7.476 6.997 11.008 10.430 0.572 10.648 10.294 0.351 11.008 10.430 0.572 10.648 10.294 0.351
PRIMET_226 2019-09-28 11:15:00 226 3904.0 0.00 0   0.007     7.521 6.728 8.02 7.856 7.796 7.412 96.700 95.400   8.26 8.030 7.986 7.578 7.85 7.778 7.720 7.338 7.748 6.940 7.370 6.644 10.742 10.382 0.354 10.305 9.832 0.474 10.742 10.382 0.354 10.305 9.832 0.474
PRIMET_226 2019-09-28 11:10:00 226 3904.0 0.00 250   0.018     7.178 6.619 7.79 7.784 7.760 7.367 95.900 95.000   7.85 7.825 7.778 7.399 7.77 7.731 7.734 7.349 7.358 6.755 7.086 6.477 10.576 10.141 0.434 10.273 9.759 0.514 10.576 10.141 0.434 10.273 9.759 0.514
PRIMET_226 2019-09-28 11:05:00 226 3904.0 0.00 196   0.250 206.800 5.138 6.885 6.567 7.78 7.823 7.825 7.394 94.100 94.500   7.83 7.859 7.875 7.429 7.75 7.791 7.778 7.373 7.134 6.798 6.682 6.455 10.567 9.939 0.623 10.292 9.724 0.566 10.567 9.939 0.623 10.292 9.724 0.566
PRIMET_226 2019-09-28 11:00:00 226 3904.0 0.00 187   0.533 237.100 13.870 6.838 6.354 7.77 7.844 7.846 7.413 93.800 93.000 1.098 7.85 7.916 7.891 7.447 7.69 7.799 7.797 7.386 7.123 6.550 6.497 6.136 10.557 9.907 0.655 10.306 9.582 0.721 10.557 9.907 0.655 10.306 9.582 0.721
PRIMET_226 2019-09-28 10:55:00 226 3904.0 0.00 195   0.449 213.600 18.310 6.324 6.155 7.57 7.695 7.735 7.363 91.800 92.000 1.085 7.70 7.844 7.881 7.457 7.47 7.565 7.614 7.288 6.755 6.455 5.992 5.957 10.413 9.562 0.854 10.270 9.451 0.822 10.413 9.562 0.854 10.270 9.451 0.822
PRIMET_226 2019-09-28 10:50:00 226 3904.0 0.00 199   0.140 238.000 23.860 6.574 6.515 7.44 7.515 7.593 7.226 94.300 95.200   7.51 7.607 7.675 7.288 7.34 7.418 7.506 7.115 6.954 6.662 5.815 6.011 10.324 9.729 0.588 10.174 9.689 0.488 10.324 9.729 0.588 10.174 9.689 0.488
PRIMET_226 2019-09-28 10:45:00 226 3904.0 0.00 204   0.428 215.400 9.450 6.537 6.337 7.34 7.365 7.425 7.072 94.600 95.100 1.098 7.42 7.428 7.509 7.115 7.31 7.321 7.363 7.032 6.662 6.568 6.410 6.202 10.256 9.704 0.554 10.068 9.571 0.493 10.256 9.704 0.554 10.068 9.571 0.493
PRIMET_226 2019-09-28 10:40:00 226 3904.0 0.00 192   0.464 197.200 22.950 6.682 6.394 7.47 7.483 7.510 7.136 94.700 95.000 1.281 7.57 7.559 7.585 7.179 7.43 7.435 7.456 7.105 6.924 6.536 6.513 6.279 10.347 9.801 0.548 10.112 9.609 0.506 10.347 9.801 0.548 10.112 9.609 0.506
PRIMET_226 2019-09-28 10:35:00 226 3904.0 0.00 231   0.315 241.300 26.220 6.777 6.439 7.55 7.560 7.573 7.156 94.800 95.200 1.026 7.59 7.611 7.619 7.189 7.49 7.460 7.520 7.136 7.005 6.558 6.540 6.368 10.403 9.866 0.541 10.126 9.639 0.486 10.403 9.866 0.541 10.126 9.639 0.486
PRIMET_226 2019-09-28 10:30:00 226 3904.0 0.00 190   0.251 228.200 4.929 6.944 6.518 7.65 7.623 7.598 7.171 95.300 95.600 1.137 7.71 7.707 7.652 7.213 7.60 7.558 7.548 7.139 7.106 6.615 6.794 6.418 10.474 9.980 0.492 10.136 9.691 0.446 10.474 9.980 0.492 10.136 9.691 0.446
PRIMET_226 2019-09-28 10:25:00 226 3904.0 0.00 190   0.034     6.935 6.385 7.65 7.519 7.533 7.130 95.200 95.000   7.69 7.614 7.575 7.146 7.61 7.431 7.481 7.107 7.041 6.470 6.778 6.232 10.475 9.973 0.503 10.108 9.603 0.505 10.475 9.973 0.503 10.108 9.603 0.505
PRIMET_226 2019-09-28 10:20:00 226 3904.0 0.00 186   0.308 266.100 24.590 6.577 6.175 7.68 7.552 7.590 7.220 92.700 93.100 1.045 7.78 7.657 7.675 7.301 7.59 7.444 7.483 7.130 6.862 6.370 6.435 5.945 10.494 9.731 0.766 10.170 9.464 0.702 10.494 9.731 0.766 10.170 9.464 0.702
PRIMET_226 2019-09-28 10:15:00 226 3904.0 0.00 195   0.366 258.500 30.940 6.929 6.541 7.79 7.760 7.796 7.375 94.300 94.400 1.241 7.86 7.866 7.910 7.435 7.71 7.630 7.661 7.308 7.133 6.634 6.664 6.430 10.576 9.969 0.603 10.279 9.707 0.576 10.576 9.969 0.603 10.279 9.707 0.576
PRIMET_226 2019-09-28 10:10:00 226 3904.0 0.00 204   0.256 254.300 11.490 6.862 6.499 7.74 7.746 7.777 7.355 94.100 94.300   7.78 7.804 7.811 7.372 7.72 7.698 7.750 7.332 7.015 6.559 6.714 6.383 10.542 9.923 0.622 10.265 9.679 0.585 10.542 9.923 0.622 10.265 9.679 0.585
PRIMET_226 2019-09-28 10:05:00 226 3904.0 0.00 203   0.224 299.300 43.530 6.895 6.463 7.69 7.726 7.750 7.292 94.700 94.500   7.74 7.820 7.812 7.332 7.63 7.632 7.685 7.253 7.020 6.530 6.672 6.358 10.500 9.946 0.556 10.221 9.655 0.562 10.500 9.946 0.556 10.221 9.655 0.562
PRIMET_226 2019-09-28 10:00:00 226 3904.0 0.00 304   0.387 221.400 20.340 6.808 6.350 7.47 7.544 7.535 7.070 95.600 95.200 1.287 7.62 7.711 7.719 7.236 7.36 7.416 7.421 6.953 6.936 6.526 6.684 6.215 10.344 9.887 0.455 10.066 9.580 0.483 10.344 9.887 0.455 10.066 9.580 0.483
PRIMET_226 2019-09-28 09:55:00 226 3904.0 0.00 197   0.029     6.794 6.308 7.29 7.413 7.405 6.927 96.600 95.800   7.35 7.507 7.481 6.963 7.20 7.342 7.347 6.887 6.902 6.381 6.688 6.257 10.222 9.877 0.348 9.968 9.552 0.419 10.222 9.877 0.348 9.968 9.552 0.419
PRIMET_226 2019-09-28 09:50:00 226 3904.0 0.00 193   0.020     6.540 6.161 7.05 7.180 7.199 6.758 96.500 96.000   7.19 7.321 7.339 6.877 6.89 7.051 7.083 6.661 6.784 6.355 6.133 5.938 10.054 9.706 0.352 9.853 9.455 0.394 10.054 9.706 0.352 9.853 9.455 0.394
PRIMET_226 2019-09-28 09:45:00 226 3904.0 0.00 0   0.559 220.200 5.332 6.161 5.913 6.87 6.990 7.024 6.642 95.300 95.100 1.065 6.90 7.078 7.102 6.671 6.85 6.906 6.937 6.614 6.337 6.022 5.917 5.758 9.927 9.455 0.467 9.774 9.294 0.479 9.927 9.455 0.467 9.774 9.294 0.479
PRIMET_226 2019-09-28 09:40:00 226 3904.0 0.00 0   0.007     6.163 5.984 6.81 6.966 7.017 6.619 95.600 95.700   6.85 7.019 7.066 6.656 6.75 6.933 6.975 6.566 6.235 6.066 6.071 5.913 9.891 9.457 0.435 9.759 9.340 0.420 9.891 9.457 0.435 9.759 9.340 0.420
PRIMET_226 2019-09-28 09:35:00 226 3904.0 0.00 258   0.093     5.950 5.728 6.68 6.843 6.872 6.477 95.100 94.900   6.73 6.929 6.983 6.533 6.64 6.789 6.820 6.449 6.031 5.847 5.857 5.630 9.797 9.318 0.480 9.664 9.176 0.493 9.797 9.318 0.480 9.664 9.176 0.493
PRIMET_226 2019-09-28 09:30:00 226 3904.0 0.00 318   0.173 205.400 8.310 5.946 5.862 6.60 6.740 6.791 6.425 95.600 96.200   6.65 6.858 6.881 6.473 6.55 6.632 6.715 6.399 6.276 5.980 5.693 5.773 9.745 9.316 0.429 9.629 9.262 0.366 9.745 9.316 0.429 9.629 9.262 0.366
PRIMET_226 2019-09-28 09:25:00 226 3904.0 0.00 0   0.025     6.082 5.799 6.51 6.725 6.800 6.317 97.100 96.500   6.63 6.805 6.875 6.439 6.37 6.583 6.666 6.186 6.276 5.992 5.827 5.545 9.688 9.404 0.281 9.558 9.221 0.335 9.688 9.404 0.281 9.558 9.221 0.335
PRIMET_226 2019-09-28 09:20:00 226 3904.0 0.00 280   0.007     5.707 5.567 6.30 6.535 6.605 6.143 96.000 96.100   6.37 6.609 6.687 6.196 6.26 6.454 6.508 6.096 5.865 5.640 5.582 5.503 9.547 9.163 0.382 9.444 9.074 0.368 9.547 9.163 0.382 9.444 9.074 0.368
PRIMET_226 2019-09-28 09:15:00 226 3904.0 0.00 332   0.007     5.507 5.329 6.21 6.465 6.483 6.026 95.300 95.300   6.30 6.582 6.586 6.113 6.10 6.332 6.345 5.943 5.672 5.573 5.319 5.114 9.487 9.036 0.446 9.367 8.925 0.440 9.487 9.036 0.446 9.367 8.925 0.440
PRIMET_226 2019-09-28 09:10:00 226 3904.0 0.00 360   0.006     5.433 5.370 6.01 6.292 6.318 5.886 96.100 96.500   6.09 6.348 6.365 5.949 5.93 6.172 6.198 5.769 5.527 5.487 5.332 5.176 9.359 8.990 0.365 9.277 8.950 0.325 9.359 8.990 0.365 9.277 8.950 0.325
PRIMET_226 2019-09-28 09:05:00 226 3904.0 0.00 302   0.007     5.618 5.322 5.82 5.991 6.019 5.631 98.600 97.900   5.92 6.136 6.183 5.753 5.69 5.830 5.895 5.526 5.668 5.389 5.539 5.263 9.235 9.106 0.129 9.114 8.921 0.191 9.235 9.106 0.129 9.114 8.921 0.191
PRIMET_226 2019-09-28 09:00:00 226 3904.0 0.00 236   0.007     5.527 5.240 5.61 5.745 5.824 5.449 99.400 98.600   5.70 5.816 5.891 5.516 5.52 5.641 5.721 5.370 5.638 5.293 5.424 5.172 9.100 9.049 0.055 9.000 8.870 0.126 9.100 9.049 0.055 9.000 8.870 0.126
PRIMET_226 2019-09-28 08:55:00 226 3904.0 0.00 316   0.007     5.502 5.200 5.53 5.650 5.736 5.350 99.800 99.000   5.54 5.680 5.768 5.370 5.51 5.615 5.711 5.317 5.527 5.227 5.452 5.178 9.049 9.033 0.018 8.938 8.845 0.089 9.049 9.033 0.018 8.938 8.845 0.089
PRIMET_226 2019-09-28 08:50:00 226 3904.0 0.00 191   0.007     5.480 5.127 5.48 5.614 5.691 5.270 100.000 99.000   5.53 5.672 5.760 5.330 5.43 5.545 5.607 5.180 5.533 5.192 5.427 5.025 9.019 9.019 0.000 8.888 8.800 0.089 9.019 9.019 0.000 8.888 8.800 0.089
PRIMET_226 2019-09-28 08:45:00 226 3904.0 0.00 183   0.043     5.390 4.988 5.39 5.473 5.515 5.127 100.000 99.000   5.42 5.543 5.589 5.170 5.37 5.443 5.479 5.100 5.417 5.017 5.374 4.960 8.963 8.963 0.000 8.800 8.715 0.088 8.963 8.963 0.000 8.800 8.715 0.088
PRIMET_226 2019-09-28 08:40:00 226 3904.0 0.00 194   0.007     5.347 4.992 5.35 5.406 5.462 5.097 100.000 99.300   5.37 5.466 5.523 5.124 5.33 5.373 5.430 5.074 5.367 5.029 5.327 4.968 8.936 8.936 0.000 8.782 8.718 0.061 8.936 8.936 0.000 8.782 8.718 0.061
PRIMET_226 2019-09-28 08:35:00 226 3904.0 0.00 0   0.007     5.329 4.996 5.33 5.401 5.466 5.085 100.000 99.400   5.37 5.447 5.493 5.124 5.26 5.331 5.414 5.007 5.367 5.030 5.260 4.912 8.925 8.925 0.000 8.775 8.720 0.053 8.925 8.925 0.000 8.775 8.720 0.053
PRIMET_226 2019-09-28 08:30:00 226 3904.0 0.00 360   0.007     5.185 4.842 5.18 5.231 5.316 4.940 100.000 99.300   5.26 5.305 5.391 5.010 5.15 5.189 5.279 4.903 5.264 4.917 5.150 4.801 8.836 8.836 0.000 8.686 8.627 0.061 8.836 8.836 0.000 8.686 8.627 0.061
PRIMET_226 2019-09-28 08:25:00 226 3904.0 0.00 193   0.007     5.073 4.729 5.07 5.134 5.207 4.834 100.000 99.300   5.15 5.207 5.285 4.893 5.02 5.093 5.161 4.800 5.153 4.789 5.024 4.694 8.767 8.767 0.000 8.622 8.559 0.060 8.767 8.767 0.000 8.622 8.559 0.060
PRIMET_226 2019-09-28 08:20:00 226 3904.0 0.00 208   0.007     5.017 4.665 5.02 5.093 5.150 4.767 100.000 99.300   5.03 5.116 5.178 4.817 5.00 5.067 5.108 4.723 5.033 4.715 4.997 4.624 8.733 8.733 0.000 8.582 8.521 0.060 8.733 8.733 0.000 8.582 8.521 0.060
PRIMET_226 2019-09-28 08:15:00 226 3904.0 0.00 302   0.007     5.011 4.636 5.01 5.030 5.089 4.730 100.000 99.300   5.04 5.069 5.121 4.753 4.99 5.008 5.057 4.713 5.043 4.664 4.987 4.615 8.729 8.729 0.000 8.560 8.503 0.060 8.729 8.729 0.000 8.560 8.503 0.060
PRIMET_226 2019-09-28 08:10:00 226 3904.0 0.00 295   0.007     4.992 4.619 4.99 4.992 5.072 4.711 100.000 99.400   5.05 5.049 5.122 4.747 4.93 4.946 5.027 4.666 5.047 4.654 4.930 4.573 8.718 8.718 0.000 8.548 8.493 0.051 8.718 8.718 0.000 8.548 8.493 0.051
PRIMET_226 2019-09-28 08:05:00 226 3904.0 0.00 348   0.007     4.921 4.578 4.92 4.922 5.004 4.668 100.000 99.400   4.95 4.944 5.026 4.680 4.91 4.884 4.972 4.653 4.947 4.590 4.909 4.561 8.675 8.675 0.000 8.523 8.469 0.051 8.675 8.675 0.000 8.523 8.469 0.051
PRIMET_226 2019-09-28 08:00:00 226 3904.0 0.00 310   0.007     4.973 4.587 4.97 4.954 5.027 4.675 100.000 99.400   5.00 4.985 5.041 4.690 4.94 4.933 5.005 4.650 5.003 4.604 4.936 4.558 8.706 8.706 0.000 8.527 8.474 0.051 8.706 8.706 0.000 8.527 8.474 0.051
PRIMET_226 2019-09-28 07:55:00 226 3904.0 0.00 206   0.007     4.931 4.500 4.93 4.919 4.968 4.596 100.000 99.300   4.99 4.980 5.031 4.660 4.88 4.867 4.913 4.549 4.993 4.570 4.879 4.450 8.681 8.681 0.000 8.480 8.423 0.059 8.681 8.681 0.000 8.480 8.423 0.059
PRIMET_226 2019-09-28 07:50:00 226 3904.0 0.00 194   0.007     4.847 4.441 4.85 4.840 4.888 4.539 100.000 99.300   4.88 4.859 4.907 4.553 4.82 4.809 4.866 4.525 4.879 4.456 4.815 4.425 8.630 8.630 0.000 8.446 8.388 0.059 8.630 8.630 0.000 8.446 8.388 0.059
PRIMET_226 2019-09-28 07:45:00 226 3904.0 0.00 453   0.007     4.824 4.444 4.82 4.847 4.905 4.539 100.000 99.300   4.84 4.861 4.928 4.559 4.81 4.830 4.876 4.522 4.839 4.467 4.809 4.427 8.616 8.616 0.000 8.446 8.390 0.059 8.616 8.616 0.000 8.446 8.390 0.059
PRIMET_226 2019-09-28 07:40:00 226 3904.0 0.00 195   0.007     4.763 4.411 4.76 4.779 4.855 4.508 100.000 99.300   4.81 4.829 4.912 4.546 4.71 4.742 4.829 4.489 4.812 4.447 4.709 4.388 8.579 8.579 0.000 8.428 8.370 0.059 8.579 8.579 0.000 8.428 8.370 0.059
PRIMET_226 2019-09-28 07:35:00 226 3904.0 0.00 215   0.007     4.680 4.375 4.68 4.704 4.788 4.476 100.000 99.300   4.71 4.732 4.827 4.489 4.64 4.687 4.775 4.462 4.706 4.390 4.639 4.359 8.530 8.530 0.000 8.409 8.349 0.059 8.530 8.530 0.000 8.409 8.349 0.059
PRIMET_226 2019-09-28 07:30:00 226 3904.0 0.00 200   0.007     4.584 4.302 4.58 4.635 4.727 4.412 100.000 99.200   4.64 4.683 4.771 4.459 4.53 4.589 4.682 4.358 4.639 4.355 4.528 4.241 8.473 8.473 0.000 8.371 8.307 0.067 8.473 8.473 0.000 8.371 8.307 0.067
PRIMET_226 2019-09-28 07:25:00 226 3904.0 0.00 191   0.007     4.495 4.200 4.49 4.545 4.619 4.322 100.000 99.200   4.53 4.581 4.666 4.355 4.47 4.511 4.581 4.295 4.528 4.237 4.465 4.170 8.420 8.420 0.000 8.318 8.247 0.067 8.420 8.420 0.000 8.318 8.247 0.067
PRIMET_226 2019-09-28 07:20:00 226 3904.0 0.00 194   0.007     4.479 4.191 4.48 4.512 4.595 4.315 100.000 99.100   4.49 4.522 4.610 4.332 4.46 4.499 4.586 4.292 4.488 4.211 4.462 4.166 8.410 8.410 0.000 8.314 8.242 0.075 8.410 8.410 0.000 8.314 8.242 0.075
PRIMET_226 2019-09-28 07:15:00 226 3904.0 0.00 200   0.007     4.484 4.203 4.48 4.527 4.626 4.332 100.000 99.100   4.50 4.537 4.643 4.355 4.46 4.509 4.614 4.315 4.501 4.233 4.462 4.182 8.413 8.413 0.000 8.324 8.249 0.075 8.413 8.413 0.000 8.324 8.249 0.075
PRIMET_226 2019-09-28 07:10:00 226 3904.0 0.00 210   0.007     4.480 4.154 4.48 4.512 4.608 4.296 100.000 99.000   4.50 4.538 4.633 4.318 4.45 4.465 4.569 4.271 4.501 4.184 4.455 4.120 8.411 8.411 0.000 8.303 8.221 0.083 8.411 8.411 0.000 8.303 8.221 0.083
PRIMET_226 2019-09-28 07:05:00 226 3904.0 0.00 445   0.007     4.408 4.044 4.41 4.411 4.498 4.214 100.000 98.800   4.45 4.476 4.571 4.261 4.39 4.384 4.461 4.184 4.445 4.108 4.391 4.007 8.369 8.369 0.000 8.256 8.157 0.099 8.369 8.369 0.000 8.256 8.157 0.099
PRIMET_226 2019-09-28 07:00:00 226 3904.0 0.00 200   0.007     4.415 4.024 4.42 4.408 4.498 4.212 100.000 98.700   4.44 4.423 4.510 4.224 4.39 4.385 4.480 4.198 4.438 4.040 4.391 4.004 8.373 8.373 0.000 8.254 8.146 0.107 8.373 8.373 0.000 8.254 8.146 0.107
PRIMET_226 2019-09-28 06:55:00 226 3904.0 0.00 312   0.006     4.386 4.000 4.39 4.390 4.477 4.210 100.000 98.500   4.41 4.414 4.504 4.220 4.37 4.373 4.458 4.200 4.411 4.017 4.374 3.975 8.356 8.356 0.000 8.253 8.132 0.124 8.356 8.356 0.000 8.253 8.132 0.124
PRIMET_226 2019-09-28 06:50:00 226 3904.0 0.00 253   0.007     4.423 3.984 4.42 4.381 4.462 4.227 100.000 98.300   4.48 4.429 4.506 4.277 4.39 4.363 4.445 4.193 4.483 4.030 4.387 3.957 8.378 8.378 0.000 8.263 8.123 0.140 8.378 8.378 0.000 8.263 8.123 0.140
PRIMET_226 2019-09-28 06:45:00 226 3904.0 0.00 0   0.007     4.545 4.099 4.55 4.497 4.566 4.342 100.000 98.300   4.61 4.571 4.633 4.416 4.49 4.434 4.506 4.287 4.612 4.185 4.490 4.043 8.449 8.449 0.000 8.330 8.189 0.142 8.449 8.449 0.000 8.330 8.189 0.142
PRIMET_226 2019-09-28 06:40:00 226 3904.0 0.00 0   0.007     4.697 4.303 4.70 4.654 4.729 4.503 100.000 98.600   4.76 4.767 4.834 4.588 4.62 4.570 4.642 4.426 4.765 4.420 4.619 4.199 8.540 8.540 0.000 8.425 8.307 0.118 8.540 8.540 0.000 8.425 8.307 0.118
PRIMET_226 2019-09-28 06:35:00 226 3904.0 0.00 200   0.006     4.829 4.503 4.83 4.823 4.909 4.652 100.000 99.000   4.86 4.862 4.944 4.672 4.78 4.764 4.849 4.605 4.859 4.528 4.782 4.444 8.619 8.619 0.000 8.513 8.425 0.085 8.619 8.619 0.000 8.513 8.425 0.085
PRIMET_226 2019-09-28 06:30:00 226 3904.0 0.00 240   0.260 128.600 15.050 4.948 4.638 4.95 4.931 5.018 4.757 100.000 99.200   5.01 5.031 5.116 4.835 4.86 4.859 4.938 4.675 5.012 4.729 4.865 4.539 8.691 8.691 0.000 8.576 8.505 0.069 8.691 8.691 0.000 8.576 8.505 0.069
PRIMET_226 2019-09-28 06:25:00 226 3904.0 0.00 200   0.066     4.971 4.684 4.97 4.991 5.088 4.799 100.000 99.200   4.99 5.013 5.110 4.822 4.96 4.973 5.074 4.781 4.995 4.709 4.958 4.664 8.705 8.705 0.000 8.601 8.532 0.069 8.705 8.705 0.000 8.601 8.532 0.069
PRIMET_226 2019-09-28 06:20:00 226 3904.0 0.00 292   0.007     4.953 4.662 4.95 4.971 5.070 4.789 100.000 99.100   4.97 4.984 5.089 4.798 4.93 4.943 5.059 4.774 4.971 4.669 4.934 4.646 8.694 8.694 0.000 8.595 8.519 0.077 8.694 8.694 0.000 8.595 8.519 0.077
PRIMET_226 2019-09-28 06:15:00 226 3904.0 0.00 398   0.007     4.937 4.638 4.94 4.953 5.057 4.779 100.000 99.000   4.95 4.966 5.067 4.798 4.90 4.936 5.036 4.741 4.954 4.668 4.904 4.587 8.684 8.684 0.000 8.589 8.505 0.086 8.684 8.684 0.000 8.589 8.505 0.086
PRIMET_226 2019-09-28 06:10:00 226 3904.0 0.00 451   0.007     4.919 4.546 4.92 4.905 4.993 4.724 100.000 98.800   4.95 4.928 5.034 4.748 4.90 4.892 4.972 4.711 4.954 4.591 4.898 4.521 8.673 8.673 0.000 8.556 8.450 0.103 8.673 8.673 0.000 8.556 8.450 0.103
PRIMET_226 2019-09-28 06:05:00 226 3904.0 0.00 378   0.007     5.015 4.629 5.01 4.961 5.042 4.805 100.000 98.800   5.06 5.008 5.103 4.860 4.96 4.909 4.986 4.734 5.064 4.693 4.964 4.540 8.732 8.732 0.000 8.605 8.499 0.103 8.732 8.732 0.000 8.605 8.499 0.103
PRIMET_226 2019-09-28 06:00:00 226 3904.0 0.00 330   0.006     5.155 4.801 5.16 5.085 5.170 4.948 100.000 99.000   5.27 5.175 5.255 5.044 5.05 5.023 5.101 4.867 5.267 4.915 5.054 4.702 8.817 8.817 0.000 8.691 8.602 0.087 8.817 8.817 0.000 8.691 8.602 0.087
PRIMET_226 2019-09-28 05:55:00 226 3904.0 0.00 269   0.006     5.324 5.015 5.32 5.287 5.387 5.132 100.000 99.200   5.35 5.336 5.447 5.164 5.27 5.183 5.263 5.047 5.351 5.051 5.270 4.923 8.922 8.922 0.000 8.803 8.732 0.070 8.922 8.922 0.000 8.803 8.732 0.070
PRIMET_226 2019-09-28 05:50:00 226 3904.0 0.00 312   0.007     5.289 4.987 5.29 5.278 5.384 5.119 100.000 99.100   5.33 5.326 5.437 5.146 5.27 5.251 5.354 5.099 5.333 5.025 5.266 4.962 8.900 8.900 0.000 8.795 8.715 0.079 8.900 8.900 0.000 8.795 8.715 0.079
PRIMET_226 2019-09-28 05:45:00 226 3904.0 0.00 190   0.007     5.305 4.972 5.30 5.270 5.364 5.120 100.000 99.000   5.34 5.291 5.387 5.155 5.27 5.251 5.346 5.099 5.335 4.998 5.272 4.951 8.910 8.910 0.000 8.796 8.706 0.088 8.910 8.910 0.000 8.796 8.706 0.088
PRIMET_226 2019-09-28 05:40:00 226 3904.0 0.00 199   0.007     5.384 5.052 5.38 5.340 5.425 5.211 100.000 98.900   5.46 5.416 5.501 5.305 5.34 5.299 5.389 5.146 5.459 5.151 5.342 4.990 8.959 8.959 0.000 8.852 8.754 0.097 8.959 8.959 0.000 8.852 8.754 0.097
PRIMET_226 2019-09-28 05:35:00 226 3904.0 0.00 199   0.007     5.616 5.359 5.62 5.562 5.652 5.485 100.000 99.100   5.81 5.735 5.826 5.652 5.46 5.426 5.503 5.319 5.812 5.546 5.462 5.165 9.105 9.105 0.000 9.022 8.944 0.081 9.105 9.105 0.000 9.022 8.944 0.081
PRIMET_226 2019-09-28 05:30:00 226 3904.0 0.00 205   0.007     5.891 5.615 5.89 5.878 5.961 5.716 100.000 99.300   5.92 5.922 6.008 5.741 5.82 5.764 5.844 5.662 5.922 5.638 5.825 5.557 9.280 9.280 0.000 9.168 9.104 0.064 9.280 9.280 0.000 9.168 9.104 0.064
PRIMET_226 2019-09-28 05:25:00 226 3904.0 0.00 192   0.006     5.926 5.625 5.93 5.915 6.010 5.734 100.000 99.200   5.94 5.927 6.018 5.752 5.91 5.901 6.005 5.725 5.942 5.642 5.912 5.609 9.303 9.303 0.000 9.180 9.111 0.073 9.303 9.303 0.000 9.180 9.111 0.073
PRIMET_226 2019-09-28 05:20:00 226 3904.0 0.00 190   0.007     5.951 5.609 5.95 5.919 6.004 5.734 100.000 99.100   5.97 5.935 6.022 5.755 5.93 5.910 5.985 5.715 5.975 5.637 5.928 5.585 9.319 9.319 0.000 9.180 9.100 0.083 9.319 9.319 0.000 9.180 9.100 0.083
PRIMET_226 2019-09-28 05:15:00 226 3904.0 0.00 220   0.007     6.003 5.633 6.00 5.929 6.011 5.767 100.000 99.100   6.06 5.973 6.048 5.811 5.96 5.902 5.988 5.735 6.061 5.677 5.958 5.604 9.352 9.352 0.000 9.201 9.116 0.083 9.352 9.352 0.000 9.201 9.116 0.083
PRIMET_226 2019-09-28 05:10:00 226 3904.0 0.00 194   0.007     6.147 5.765 6.15 6.049 6.122 5.887 100.000 99.200   6.22 6.117 6.189 5.965 6.07 5.994 6.061 5.818 6.215 5.848 6.075 5.687 9.446 9.446 0.000 9.278 9.200 0.074 9.446 9.446 0.000 9.278 9.200 0.074
PRIMET_226 2019-09-28 05:05:00 226 3904.0 0.00 210   0.007     6.295 5.946 6.30 6.211 6.292 6.048 100.000 99.300   6.36 6.276 6.361 6.108 6.22 6.122 6.202 5.958 6.362 6.016 6.218 5.844 9.543 9.543 0.000 9.382 9.316 0.066 9.543 9.543 0.000 9.382 9.316 0.066
PRIMET_226 2019-09-28 05:00:00 226 3904.0 0.00 0   0.068     6.457 6.129 6.46 6.366 6.440 6.207 100.000 99.500   6.54 6.477 6.560 6.335 6.37 6.278 6.358 6.112 6.542 6.275 6.368 6.017 9.651 9.651 0.000 9.485 9.434 0.047 9.651 9.651 0.000 9.485 9.434 0.047
PRIMET_226 2019-09-28 04:55:00 226 3904.0 0.00 0   0.007     6.664 6.417 6.66 6.627 6.718 6.467 100.000 99.700   6.77 6.773 6.851 6.585 6.56 6.493 6.584 6.358 6.768 6.543 6.558 6.297 9.789 9.789 0.000 9.657 9.624 0.029 9.789 9.789 0.000 9.657 9.624 0.029
PRIMET_226 2019-09-28 04:50:00 226 3904.0 0.00 197   0.007     6.762 6.564 6.76 6.808 6.900 6.601 100.000 99.700   6.78 6.853 6.947 6.642 6.74 6.781 6.867 6.575 6.778 6.610 6.735 6.534 9.855 9.855 0.000 9.747 9.722 0.029 9.855 9.855 0.000 9.747 9.722 0.029
PRIMET_226 2019-09-28 04:45:00 226 3904.0 0.00 196   0.175 212.900 12.920 6.888 6.731 6.89 6.932 7.045 6.757 100.000 99.800   6.93 6.985 7.095 6.802 6.78 6.804 6.924 6.658 6.932 6.780 6.782 6.627 9.941 9.941 0.000 9.852 9.834 0.020 9.941 9.941 0.000 9.852 9.834 0.020
PRIMET_226 2019-09-28 04:40:00 226 3904.0 0.00 208   0.007     6.905 6.731 6.91 6.957 7.062 6.758 100.000 99.800   6.91 6.968 7.075 6.772 6.89 6.941 7.048 6.748 6.915 6.749 6.895 6.719 9.953 9.953 0.000 9.853 9.834 0.020 9.953 9.953 0.000 9.853 9.834 0.020
PRIMET_226 2019-09-28 04:35:00 226 3904.0 0.00 200   0.007     6.917 6.744 6.92 6.962 7.070 6.770 100.000 99.800   6.93 6.975 7.093 6.785 6.90 6.950 7.057 6.752 6.932 6.758 6.902 6.726 9.961 9.961 0.000 9.861 9.843 0.020 9.961 9.961 0.000 9.861 9.843 0.020
PRIMET_226 2019-09-28 04:30:00 226 3904.0 0.00 211   0.007     6.942 6.759 6.94 6.988 7.099 6.786 100.000 99.800   6.97 7.017 7.118 6.798 6.92 6.977 7.088 6.765 6.965 6.773 6.922 6.739 9.978 9.978 0.000 9.872 9.853 0.020 9.978 9.978 0.000 9.872 9.853 0.020
PRIMET_226 2019-09-28 04:25:00 226 3904.0 0.00 281   0.007     6.890 6.704 6.89 6.953 7.052 6.734 100.000 99.800   6.95 7.017 7.113 6.775 6.85 6.905 7.007 6.692 6.948 6.748 6.852 6.657 9.943 9.943 0.000 9.836 9.816 0.020 9.943 9.943 0.000 9.836 9.816 0.020
PRIMET_226 2019-09-28 04:20:00 226 3904.0 0.00 410   0.007     6.856 6.663 6.86 6.898 7.002 6.695 100.000 99.800   6.87 6.911 7.012 6.708 6.84 6.890 6.994 6.682 6.872 6.676 6.842 6.648 9.919 9.919 0.000 9.810 9.789 0.020 9.919 9.919 0.000 9.810 9.789 0.020
PRIMET_226 2019-09-28 04:15:00 226 3904.0 0.00 302   0.007     6.882 6.685 6.88 6.908 7.016 6.718 100.000 99.800   6.91 6.921 7.028 6.738 6.86 6.898 7.002 6.695 6.915 6.705 6.865 6.662 9.937 9.937 0.000 9.826 9.803 0.020 9.937 9.937 0.000 9.826 9.803 0.020
PRIMET_226 2019-09-28 04:10:00 226 3904.0 0.00 204   0.007     6.864 6.670 6.86 6.900 7.011 6.705 100.000 99.800   6.89 6.926 7.033 6.738 6.82 6.866 6.978 6.668 6.895 6.707 6.825 6.631 9.925 9.925 0.000 9.817 9.793 0.020 9.925 9.925 0.000 9.817 9.793 0.020
PRIMET_226 2019-09-28 04:05:00 226 3904.0 0.00 372   0.007     6.821 6.632 6.82 6.852 6.964 6.670 100.000 99.700   6.84 6.863 6.975 6.685 6.81 6.845 6.950 6.658 6.835 6.647 6.812 6.622 9.896 9.896 0.000 9.793 9.768 0.029 9.896 9.896 0.000 9.793 9.768 0.029
PRIMET_226 2019-09-28 04:00:00 226 3904.0 0.00 207   0.091     6.837 6.651 6.84 6.860 6.967 6.689 100.000 99.700   6.88 6.896 7.000 6.725 6.82 6.841 6.950 6.668 6.878 6.692 6.818 6.630 9.907 9.906 0.000 9.806 9.780 0.029 9.907 9.906 0.000 9.806 9.780 0.029
PRIMET_226 2019-09-28 03:55:00 226 3904.0 0.00 280   0.007     6.912 6.732 6.91 6.945 7.054 6.766 100.000 99.800   6.96 6.995 7.104 6.808 6.87 6.906 7.008 6.735 6.958 6.776 6.868 6.701 9.958 9.958 0.000 9.858 9.835 0.020 9.958 9.958 0.000 9.858 9.835 0.020
PRIMET_226 2019-09-28 03:50:00 226 3904.0 0.00 361   0.007     6.997 6.808 7.00 7.035 7.140 6.838 100.000 99.800   7.03 7.089 7.201 6.878 6.95 6.997 7.096 6.808 7.035 6.849 6.952 6.776 10.016 10.016 0.000 9.907 9.887 0.020 10.016 10.016 0.000 9.907 9.887 0.020
PRIMET_226 2019-09-28 03:45:00 226 3904.0 0.00 238   0.007     6.972 6.785 6.97 7.054 7.150 6.817 100.000 99.800   7.03 7.107 7.204 6.875 6.90 6.992 7.094 6.755 7.028 6.846 6.898 6.719 9.999 9.999 0.000 9.893 9.871 0.020 9.999 9.999 0.000 9.893 9.871 0.020
PRIMET_226 2019-09-28 03:40:00 226 3904.0 0.00 298   0.007     6.877 6.701 6.88 6.944 7.051 6.740 100.000 99.700   6.89 6.973 7.075 6.762 6.86 6.922 7.033 6.725 6.895 6.728 6.865 6.684 9.934 9.934 0.000 9.841 9.814 0.030 9.934 9.934 0.000 9.841 9.814 0.030
PRIMET_226 2019-09-28 03:35:00 226 3904.0 0.00 205   0.007     6.870 6.706 6.87 6.926 7.040 6.746 100.000 99.700   6.88 6.937 7.044 6.765 6.86 6.911 7.033 6.722 6.882 6.727 6.855 6.677 9.930 9.929 0.000 9.845 9.818 0.030 9.930 9.929 0.000 9.845 9.818 0.030
PRIMET_226 2019-09-28 03:30:00 226 3904.0 0.00 0   0.007     6.857 6.716 6.86 6.911 7.043 6.758 100.000 99.700   6.88 6.923 7.051 6.775 6.84 6.898 7.036 6.748 6.882 6.732 6.842 6.707 9.920 9.920 0.000 9.853 9.824 0.030 9.920 9.920 0.000 9.853 9.824 0.030
PRIMET_226 2019-09-28 03:25:00 226 3904.0 0.00 345   0.007     6.823 6.674 6.82 6.868 6.988 6.720 100.000 99.700   6.86 6.921 7.051 6.772 6.79 6.807 6.940 6.675 6.865 6.732 6.792 6.625 9.897 9.897 0.000 9.827 9.796 0.029 9.897 9.897 0.000 9.827 9.796 0.029
PRIMET_226 2019-09-28 03:20:00 226 3904.0 0.00 399   0.007     6.809 6.617 6.81 6.814 6.934 6.668 100.000 99.600   6.82 6.832 6.949 6.685 6.79 6.800 6.924 6.655 6.821 6.635 6.791 6.601 9.887 9.887 0.000 9.792 9.758 0.039 9.887 9.887 0.000 9.792 9.758 0.039
PRIMET_226 2019-09-28 03:15:00 226 3904.0 0.00 204   0.007     6.832 6.641 6.83 6.849 6.965 6.693 100.000 99.600   6.85 6.861 6.973 6.705 6.81 6.827 6.949 6.681 6.848 6.653 6.814 6.631 9.903 9.903 0.000 9.809 9.774 0.039 9.903 9.903 0.000 9.809 9.774 0.039
PRIMET_226 2019-09-28 03:10:00 226 3904.0 0.00 400   0.007     6.849 6.671 6.85 6.878 6.994 6.724 100.000 99.600   6.87 6.896 7.013 6.748 6.83 6.858 6.968 6.708 6.871 6.696 6.828 6.655 9.915 9.915 0.000 9.830 9.794 0.039 9.915 9.915 0.000 9.830 9.794 0.039
PRIMET_226 2019-09-28 03:05:00 226 3904.0 0.00 215   0.007     6.890 6.724 6.89 6.926 7.046 6.775 100.000 99.600   6.91 6.961 7.083 6.811 6.86 6.891 7.016 6.741 6.915 6.758 6.861 6.688 9.943 9.943 0.000 9.864 9.830 0.039 9.943 9.943 0.000 9.864 9.830 0.039
PRIMET_226 2019-09-28 03:00:00 226 3904.0 0.00 236   0.007     6.942 6.765 6.94 6.980 7.097 6.815 100.000 99.700   6.97 7.003 7.107 6.831 6.92 6.958 7.088 6.801 6.971 6.781 6.921 6.748 9.978 9.978 0.000 9.891 9.857 0.030 9.978 9.978 0.000 9.891 9.857 0.030
PRIMET_226 2019-09-28 02:55:00 226 3904.0 0.00 284   0.007     6.959 6.776 6.96 7.010 7.122 6.828 100.000 99.600   6.97 7.021 7.133 6.847 6.94 7.000 7.107 6.813 6.974 6.799 6.940 6.760 9.990 9.990 0.000 9.900 9.865 0.040 9.990 9.990 0.000 9.900 9.865 0.040
PRIMET_226 2019-09-28 02:50:00 226 3904.0 0.00 321   0.007     6.962 6.768 6.96 7.008 7.119 6.823 100.000 99.600   6.99 7.016 7.130 6.833 6.94 6.995 7.109 6.813 6.987 6.782 6.943 6.755 9.992 9.992 0.000 9.897 9.860 0.040 9.992 9.992 0.000 9.897 9.860 0.040
PRIMET_226 2019-09-28 02:45:00 226 3904.0 0.00 0   0.007     7.011 6.763 7.01 7.041 7.137 6.820 100.000 99.600   7.03 7.060 7.149 6.834 6.99 7.013 7.122 6.807 7.031 6.776 6.990 6.748 10.026 10.026 0.000 9.895 9.856 0.040 10.026 10.026 0.000 9.895 9.856 0.040
PRIMET_226 2019-09-28 02:40:00 226 3904.0 0.00 198   0.007     6.982 6.751 6.98 7.033 7.130 6.812 100.000 99.600   7.01 7.062 7.149 6.828 6.96 7.012 7.115 6.797 7.014 6.769 6.960 6.736 10.006 10.006 0.000 9.889 9.848 0.040 10.006 10.006 0.000 9.889 9.848 0.040
PRIMET_226 2019-09-28 02:35:00 226 3904.0 0.00 207   0.007     6.968 6.755 6.97 7.015 7.124 6.818 100.000 99.600   6.98 7.023 7.129 6.829 6.96 7.009 7.117 6.799 6.983 6.768 6.956 6.738 9.996 9.996 0.000 9.893 9.851 0.040 9.996 9.996 0.000 9.893 9.851 0.040
PRIMET_226 2019-09-28 02:30:00 226 3904.0 0.00 211   0.007     6.954 6.746 6.95 7.007 7.115 6.812 100.000 99.500   6.98 7.019 7.129 6.826 6.94 6.988 7.100 6.796 6.976 6.760 6.936 6.728 9.986 9.986 0.000 9.889 9.845 0.049 9.986 9.986 0.000 9.889 9.845 0.049
PRIMET_226 2019-09-28 02:25:00 226 3904.0 0.00 222   0.007     6.928 6.727 6.93 6.983 7.097 6.799 100.000 99.500   6.94 6.990 7.104 6.809 6.92 6.967 7.085 6.786 6.942 6.739 6.918 6.713 9.969 9.969 0.000 9.881 9.832 0.049 9.969 9.969 0.000 9.881 9.832 0.049
PRIMET_226 2019-09-28 02:20:00 226 3904.0 0.00 222   0.007     6.927 6.717 6.93 6.964 7.082 6.793 100.000 99.500   6.94 6.973 7.090 6.808 6.91 6.952 7.074 6.782 6.939 6.734 6.915 6.705 9.968 9.968 0.000 9.876 9.825 0.049 9.968 9.968 0.000 9.876 9.825 0.049
PRIMET_226 2019-09-28 02:15:00 226 3904.0 0.00 204   0.007     6.930 6.727 6.93 6.964 7.080 6.805 100.000 99.500   6.95 6.975 7.089 6.821 6.92 6.952 7.074 6.784 6.948 6.744 6.918 6.709 9.970 9.970 0.000 9.885 9.832 0.049 9.970 9.970 0.000 9.885 9.832 0.049
PRIMET_226 2019-09-28 02:10:00 226 3904.0 0.00 214   0.007     6.955 6.753 6.95 6.974 7.091 6.832 100.000 99.500   6.99 7.000 7.114 6.871 6.93 6.961 7.078 6.808 6.985 6.794 6.931 6.728 9.987 9.987 0.000 9.903 9.849 0.050 9.987 9.987 0.000 9.903 9.849 0.050
PRIMET_226 2019-09-28 02:05:00 226 3904.0 0.00 214   0.065     6.993 6.834 6.99 7.019 7.157 6.911 100.000 99.500   7.01 7.042 7.180 6.938 6.97 6.987 7.117 6.871 7.015 6.861 6.965 6.794 10.013 10.013 0.000 9.957 9.904 0.050 10.013 10.013 0.000 9.957 9.904 0.050
PRIMET_226 2019-09-28 02:00:00 226 3904.0 0.00 223   0.007     7.044 6.872 7.04 7.044 7.177 6.949 100.000 99.500   7.08 7.075 7.203 6.978 7.00 7.021 7.166 6.925 7.084 6.902 7.001 6.846 10.048 10.048 0.000 9.983 9.930 0.050 10.048 10.048 0.000 9.983 9.930 0.050
PRIMET_226 2019-09-28 01:55:00 226 3904.0 0.00 207   0.007     7.112 6.934 7.11 7.116 7.246 7.011 100.000 99.500   7.14 7.151 7.287 7.041 7.09 7.078 7.206 6.981 7.141 6.966 7.088 6.904 10.095 10.095 0.000 10.026 9.973 0.050 10.095 10.095 0.000 10.026 9.973 0.050
PRIMET_226 2019-09-28 01:50:00 226 3904.0 0.00 228   0.007     7.180 6.992 7.18 7.203 7.338 7.067 100.000 99.500   7.21 7.229 7.361 7.078 7.15 7.156 7.294 7.051 7.208 7.005 7.148 6.977 10.142 10.142 0.000 10.064 10.012 0.050 10.142 10.142 0.000 10.064 10.012 0.050
PRIMET_226 2019-09-28 01:45:00 226 3904.0 0.00 222   0.007     7.251 7.026 7.25 7.265 7.379 7.102 100.000 99.500   7.32 7.319 7.434 7.154 7.20 7.223 7.346 7.061 7.314 7.082 7.201 6.983 10.192 10.192 0.000 10.088 10.036 0.050 10.192 10.192 0.000 10.088 10.036 0.050
PRIMET_226 2019-09-28 01:40:00 226 3904.0 0.00 231   0.007     7.336 7.099 7.34 7.370 7.482 7.171 100.000 99.500   7.35 7.394 7.509 7.205 7.32 7.325 7.445 7.134 7.351 7.135 7.318 7.059 10.251 10.251 0.000 10.136 10.086 0.051 10.251 10.251 0.000 10.136 10.086 0.051
PRIMET_226 2019-09-28 01:35:00 226 3904.0 0.00 216   0.007     7.325 7.096 7.32 7.374 7.482 7.173 100.000 99.500   7.34 7.389 7.501 7.184 7.32 7.361 7.467 7.161 7.338 7.111 7.314 7.083 10.244 10.244 0.000 10.138 10.084 0.051 10.244 10.244 0.000 10.138 10.084 0.051
PRIMET_226 2019-09-28 01:30:00 226 3904.0 0.00 230   0.007     7.355 7.105 7.36 7.395 7.495 7.184 100.000 99.500   7.38 7.421 7.515 7.194 7.33 7.368 7.475 7.164 7.381 7.117 7.331 7.085 10.265 10.265 -0.000 10.145 10.090 0.051 10.265 10.265 -0.000 10.145 10.090 0.051
PRIMET_226 2019-09-28 01:25:00 226 3904.0 0.00 213   0.007     7.369 7.104 7.37 7.407 7.505 7.186 100.000 99.400   7.38 7.414 7.512 7.201 7.36 7.400 7.497 7.174 7.378 7.118 7.361 7.092 10.275 10.275 0.000 10.147 10.090 0.061 10.275 10.275 0.000 10.147 10.090 0.061
PRIMET_226 2019-09-28 01:20:00 226 3904.0 0.00 207   0.007     7.400 7.124 7.40 7.432 7.528 7.207 100.000 99.400   7.41 7.448 7.547 7.221 7.38 7.409 7.507 7.191 7.414 7.137 7.381 7.108 10.296 10.296 0.000 10.161 10.104 0.061 10.296 10.296 0.000 10.161 10.104 0.061
PRIMET_226 2019-09-28 01:15:00 226 3904.0 0.00 203   0.007     7.363 7.116 7.36 7.415 7.522 7.203 100.000 99.400   7.41 7.444 7.546 7.220 7.31 7.377 7.481 7.171 7.410 7.135 7.307 7.079 10.270 10.270 0.000 10.158 10.098 0.061 10.270 10.270 0.000 10.158 10.098 0.061
PRIMET_226 2019-09-28 01:10:00 226 3904.0 0.00 211   0.007     7.311 7.069 7.31 7.367 7.469 7.164 100.000 99.400   7.32 7.378 7.479 7.177 7.30 7.357 7.453 7.148 7.324 7.086 7.301 7.050 10.234 10.234 0.000 10.131 10.066 0.061 10.234 10.234 0.000 10.131 10.066 0.061
PRIMET_226 2019-09-28 01:05:00 226 3904.0 0.00 197   0.007     7.328 7.073 7.33 7.374 7.472 7.169 100.000 99.300   7.35 7.392 7.485 7.204 7.31 7.357 7.462 7.148 7.348 7.110 7.308 7.051 10.246 10.246 0.000 10.135 10.068 0.071 10.246 10.246 0.000 10.135 10.068 0.071
PRIMET_226 2019-09-28 01:00:00 226 3904.0 0.00 220   0.007     7.387 7.133 7.39 7.420 7.523 7.221 100.000 99.400   7.45 7.467 7.566 7.274 7.35 7.391 7.488 7.191 7.447 7.192 7.347 7.100 10.287 10.287 0.000 10.171 10.110 0.061 10.287 10.287 0.000 10.171 10.110 0.061
PRIMET_226 2019-09-28 00:55:00 226 3904.0 0.00 227   0.007     7.466 7.211 7.47 7.521 7.621 7.293 100.000 99.400   7.49 7.541 7.637 7.304 7.45 7.472 7.574 7.277 7.490 7.223 7.447 7.191 10.343 10.343 0.000 10.221 10.164 0.061 10.343 10.343 0.000 10.221 10.164 0.061
PRIMET_226 2019-09-28 00:50:00 226 3904.0 0.00 236   0.007     7.442 7.195 7.44 7.503 7.604 7.280 100.000 99.400   7.46 7.522 7.637 7.306 7.42 7.489 7.588 7.263 7.460 7.222 7.417 7.176 10.326 10.326 -0.000 10.212 10.153 0.061 10.326 10.326 -0.000 10.212 10.153 0.061
PRIMET_226 2019-09-28 00:45:00 226 3904.0 0.00 258   0.007     7.508 7.272 7.51 7.564 7.664 7.350 100.000 99.500   7.53 7.597 7.693 7.374 7.47 7.509 7.600 7.313 7.530 7.299 7.467 7.233 10.373 10.373 0.000 10.261 10.207 0.051 10.373 10.373 0.000 10.261 10.207 0.051
PRIMET_226 2019-09-28 00:40:00 226 3904.0 0.00 242   0.007     7.539 7.297 7.54 7.601 7.703 7.374 100.000 99.500   7.56 7.617 7.714 7.383 7.52 7.591 7.691 7.364 7.563 7.308 7.520 7.287 10.395 10.395 0.000 10.278 10.224 0.051 10.395 10.395 0.000 10.278 10.224 0.051
PRIMET_226 2019-09-28 00:35:00 226 3904.0 0.00 234   0.007     7.566 7.315 7.57 7.626 7.728 7.392 100.000 99.500   7.58 7.636 7.758 7.410 7.56 7.617 7.709 7.366 7.580 7.335 7.556 7.290 10.414 10.414 0.000 10.291 10.237 0.051 10.414 10.414 0.000 10.291 10.237 0.051
PRIMET_226 2019-09-28 00:30:00 226 3904.0 0.00 208   0.007     7.578 7.305 7.58 7.643 7.741 7.384 100.000 99.500   7.60 7.670 7.786 7.420 7.56 7.623 7.714 7.363 7.596 7.345 7.563 7.284 10.423 10.423 0.000 10.285 10.230 0.051 10.423 10.423 0.000 10.285 10.230 0.051
PRIMET_226 2019-09-28 00:25:00 226 3904.0 0.00 208   0.007     7.581 7.292 7.58 7.630 7.721 7.373 100.000 99.400   7.61 7.637 7.731 7.388 7.56 7.617 7.709 7.359 7.605 7.307 7.562 7.278 10.425 10.425 0.000 10.277 10.221 0.062 10.425 10.425 0.000 10.277 10.221 0.062
PRIMET_226 2019-09-28 00:20:00 226 3904.0 0.00 202   0.007     7.534 7.246 7.53 7.599 7.687 7.333 100.000 99.400   7.60 7.648 7.726 7.372 7.48 7.555 7.654 7.298 7.602 7.289 7.481 7.206 10.392 10.391 0.000 10.249 10.188 0.061 10.392 10.391 0.000 10.249 10.188 0.061
PRIMET_226 2019-09-28 00:15:00 226 3904.0 0.00 232   0.007     7.448 7.177 7.45 7.527 7.625 7.276 100.000 99.300   7.48 7.566 7.665 7.311 7.42 7.489 7.585 7.245 7.481 7.219 7.421 7.140 10.330 10.330 0.000 10.209 10.140 0.071 10.330 10.330 0.000 10.209 10.140 0.071
PRIMET_226 2019-09-28 00:10:00 226 3904.0 0.00 256   0.007     7.421 7.134 7.42 7.477 7.572 7.243 100.000 99.300   7.43 7.491 7.585 7.254 7.41 7.463 7.562 7.235 7.431 7.148 7.411 7.120 10.312 10.311 0.000 10.186 10.111 0.071 10.312 10.311 0.000 10.186 10.111 0.071
PRIMET_226 2019-09-28 00:05:00 226 3904.0 0.00 235   0.007     7.420 7.122 7.42 7.481 7.572 7.238 100.000 99.200   7.44 7.499 7.587 7.251 7.41 7.463 7.559 7.227 7.444 7.137 7.408 7.110 10.311 10.311 -0.000 10.183 10.102 0.081 10.311 10.311 -0.000 10.183 10.102 0.081
PRIMET_226 2019-09-28 00:00:00 226 3904.0 0.00 221   0.007     7.446 7.135 7.45 7.493 7.578 7.252 100.000 99.200   7.48 7.541 7.627 7.294 7.41 7.472 7.559 7.224 7.484 7.178 7.414 7.105 10.329 10.329 0.000 10.193 10.111 0.082 10.329 10.329 0.000 10.193 10.111 0.082
PRIMET_226 2019-09-27 23:55:00 226 3904.0 0.00 210   0.007     7.441 7.139 7.44 7.501 7.596 7.258 100.000 99.200   7.46 7.543 7.640 7.294 7.42 7.480 7.571 7.237 7.464 7.180 7.421 7.117 10.325 10.325 0.000 10.197 10.114 0.082 10.325 10.325 0.000 10.197 10.114 0.082
PRIMET_226 2019-09-27 23:50:00 226 3904.0 0.00 220   0.007     7.438 7.140 7.44 7.478 7.571 7.256 100.000 99.200   7.46 7.496 7.592 7.294 7.42 7.470 7.559 7.234 7.457 7.181 7.421 7.116 10.323 10.323 0.000 10.195 10.115 0.082 10.323 10.323 0.000 10.195 10.115 0.082
PRIMET_226 2019-09-27 23:45:00 226 3904.0 0.00 217   0.007     7.459 7.184 7.46 7.504 7.610 7.296 100.000 99.200   7.48 7.521 7.628 7.311 7.45 7.488 7.592 7.284 7.477 7.201 7.447 7.167 10.338 10.338 -0.000 10.223 10.145 0.082 10.338 10.338 -0.000 10.223 10.145 0.082
PRIMET_226 2019-09-27 23:40:00 226 3904.0 0.00 220   0.007     7.432 7.129 7.43 7.468 7.572 7.253 100.000 99.200   7.46 7.506 7.616 7.287 7.41 7.446 7.553 7.234 7.461 7.168 7.407 7.105 10.319 10.319 0.000 10.193 10.107 0.082 10.319 10.319 0.000 10.193 10.107 0.082
PRIMET_226 2019-09-27 23:35:00 226 3904.0 0.00 205   0.007     7.409 7.104 7.41 7.448 7.544 7.238 100.000 99.100   7.42 7.454 7.554 7.253 7.39 7.442 7.538 7.227 7.424 7.119 7.394 7.092 10.303 10.303 0.000 10.183 10.090 0.092 10.303 10.303 0.000 10.183 10.090 0.092
PRIMET_226 2019-09-27 23:30:00 226 3904.0 0.00 226   0.007     7.437 7.121 7.44 7.462 7.561 7.256 100.000 99.100   7.47 7.475 7.571 7.266 7.42 7.447 7.545 7.247 7.466 7.131 7.420 7.114 10.323 10.323 0.000 10.195 10.102 0.092 10.323 10.323 0.000 10.195 10.102 0.092
PRIMET_226 2019-09-27 23:25:00 226 3904.0 0.00 204   0.007     7.470 7.139 7.47 7.496 7.592 7.277 100.000 99.100   7.49 7.512 7.611 7.292 7.45 7.469 7.571 7.259 7.485 7.153 7.455 7.121 10.346 10.346 -0.000 10.210 10.114 0.092 10.346 10.346 -0.000 10.210 10.114 0.092
PRIMET_226 2019-09-27 23:20:00 226 3904.0 0.00 198   0.007     7.497 7.168 7.50 7.530 7.626 7.306 100.000 99.100   7.51 7.548 7.643 7.325 7.47 7.504 7.598 7.282 7.511 7.185 7.472 7.142 10.365 10.365 -0.000 10.230 10.134 0.092 10.365 10.365 -0.000 10.230 10.134 0.092
PRIMET_226 2019-09-27 23:15:00 226 3904.0 0.00 206   0.007     7.514 7.189 7.51 7.545 7.645 7.330 100.000 99.000   7.53 7.562 7.656 7.344 7.50 7.526 7.633 7.321 7.527 7.205 7.498 7.179 10.377 10.377 0.000 10.247 10.149 0.102 10.377 10.377 0.000 10.247 10.149 0.102
PRIMET_226 2019-09-27 23:10:00 226 3904.0 0.00 210   0.007     7.548 7.232 7.55 7.577 7.684 7.376 100.000 99.000   7.56 7.612 7.712 7.397 7.52 7.536 7.648 7.354 7.564 7.250 7.524 7.211 10.401 10.401 0.000 10.280 10.179 0.103 10.401 10.401 0.000 10.280 10.179 0.103
PRIMET_226 2019-09-27 23:05:00 226 3904.0 0.00 211   0.007     7.548 7.222 7.55 7.601 7.702 7.378 100.000 98.900   7.56 7.620 7.717 7.393 7.53 7.581 7.683 7.367 7.563 7.244 7.530 7.203 10.401 10.401 0.000 10.281 10.172 0.113 10.401 10.401 0.000 10.281 10.172 0.113
PRIMET_226 2019-09-27 23:00:00 226 3904.0 0.00 212   0.007     7.547 7.188 7.55 7.582 7.681 7.366 100.000 98.800   7.56 7.599 7.688 7.377 7.53 7.573 7.674 7.347 7.563 7.210 7.532 7.154 10.401 10.401 0.000 10.273 10.148 0.123 10.401 10.401 0.000 10.273 10.148 0.123
PRIMET_226 2019-09-27 22:55:00 226 3904.0 0.00 203   0.007     7.467 7.083 7.52 7.534 7.634 7.315 99.600 98.400   7.55 7.575 7.667 7.360 7.51 7.514 7.613 7.296 7.540 7.165 7.424 7.040 10.383 10.344 0.042 10.237 10.075 0.164 10.383 10.344 0.042 10.237 10.075 0.164
PRIMET_226 2019-09-27 22:50:00 226 3904.0 0.00 236   0.007     7.420 7.042 7.55 7.536 7.630 7.325 99.100 98.100   7.59 7.553 7.647 7.363 7.52 7.521 7.615 7.306 7.439 7.056 7.400 7.024 10.405 10.311 0.094 10.244 10.047 0.195 10.405 10.311 0.094 10.244 10.047 0.195
PRIMET_226 2019-09-27 22:45:00 226 3904.0 0.00 219   0.007     7.512 7.134 7.67 7.641 7.723 7.425 98.900 98.000   7.70 7.672 7.751 7.449 7.60 7.542 7.633 7.369 7.539 7.161 7.437 7.066 10.486 10.376 0.115 10.314 10.111 0.206 10.486 10.376 0.115 10.314 10.111 0.206
PRIMET_226 2019-09-27 22:40:00 226 3904.0 0.00 232   0.007     7.532 7.149 7.71 7.685 7.771 7.468 98.800 97.800   7.76 7.741 7.817 7.504 7.68 7.659 7.747 7.438 7.581 7.175 7.500 7.131 10.520 10.390 0.126 10.344 10.121 0.228 10.520 10.390 0.126 10.344 10.121 0.228
PRIMET_226 2019-09-27 22:35:00 226 3904.0 0.00 221   0.007     7.455 7.102 7.75 7.687 7.788 7.495 98.000 97.300   7.79 7.741 7.832 7.530 7.73 7.643 7.748 7.476 7.546 7.174 7.406 7.062 10.547 10.335 0.211 10.364 10.088 0.280 10.547 10.335 0.211 10.364 10.088 0.280
PRIMET_226 2019-09-27 22:30:00 226 3904.0 0.00 220   0.007     7.543 7.190 7.90 7.778 7.877 7.625 97.600 97.100   8.01 7.880 7.974 7.733 7.79 7.685 7.787 7.530 7.674 7.296 7.422 7.095 10.655 10.398 0.256 10.456 10.149 0.303 10.655 10.398 0.256 10.456 10.149 0.303
PRIMET_226 2019-09-27 22:25:00 226 3904.0 0.00 293   0.006     7.851 7.464 8.14 8.040 8.130 7.873 98.100 97.200   8.25 8.210 8.290 8.000 8.03 7.883 7.985 7.740 8.010 7.628 7.697 7.298 10.830 10.619 0.206 10.635 10.342 0.298 10.830 10.619 0.206 10.635 10.342 0.298
PRIMET_226 2019-09-27 22:20:00 226 3904.0 0.00 212   0.006     8.040 7.715 8.29 8.260 8.360 8.080 98.300 97.500   8.38 8.370 8.470 8.200 8.24 8.210 8.280 8.010 8.140 7.857 7.994 7.635 10.941 10.756 0.186 10.786 10.521 0.270 10.941 10.756 0.186 10.786 10.521 0.270
PRIMET_226 2019-09-27 22:15:00 226 3904.0 0.00 206   0.007     8.230 7.912 8.46 8.440 8.540 8.270 98.500 97.600   8.55 8.520 8.630 8.370 8.38 8.380 8.480 8.200 8.320 8.000 8.130 7.839 11.068 10.896 0.166 10.926 10.663 0.262 11.068 10.896 0.166 10.926 10.663 0.262
PRIMET_226 2019-09-27 22:10:00 226 3904.0 0.00 201   0.218 203.400 12.870 8.450 8.110 8.66 8.650 8.740 8.480 98.500 97.500   8.75 8.760 8.830 8.560 8.55 8.520 8.620 8.380 8.580 8.220 8.310 8.000 11.219 11.060 0.168 11.083 10.808 0.277 11.219 11.060 0.168 11.083 10.808 0.277
PRIMET_226 2019-09-27 22:05:00 226 3904.0 0.00 202   0.006     8.590 8.290 8.80 8.810 8.900 8.640 98.600 97.700   8.86 8.900 8.980 8.720 8.76 8.740 8.840 8.580 8.600 8.350 8.570 8.240 11.326 11.166 0.159 11.204 10.941 0.258 11.326 11.166 0.159 11.204 10.941 0.258
PRIMET_226 2019-09-27 22:00:00 226 3904.0 0.00 0   0.069     8.650 8.480 8.99 9.000 9.080 8.850 97.800 97.500   9.12 9.140 9.220 8.960 8.87 8.900 8.990 8.720 8.820 8.640 8.580 8.350 11.472 11.211 0.252 11.364 11.083 0.284 11.472 11.211 0.252 11.364 11.083 0.284
PRIMET_226 2019-09-27 21:55:00 226 3904.0 0.00 232   0.012     9.220 8.880 9.30 9.320 9.410 9.120 99.400 98.400   9.43 9.480 9.580 9.240 9.14 9.150 9.250 8.970 9.430 9.040 8.860 8.660 11.715 11.652 0.070 11.573 11.387 0.185 11.715 11.652 0.070 11.573 11.387 0.185
PRIMET_226 2019-09-27 21:50:00 226 3904.0 0.00 198   0.006     9.440 9.040 9.44 9.500 9.590 9.250 100.000 98.600   9.47 9.530 9.630 9.290 9.41 9.470 9.560 9.220 9.470 9.070 9.410 9.010 11.826 11.826 0.000 11.675 11.511 0.163 11.826 11.826 0.000 11.675 11.511 0.163
PRIMET_226 2019-09-27 21:45:00 226 3904.0 0.00 200   0.006     9.480 9.080 9.48 9.550 9.640 9.300 100.000 98.500   9.53 9.610 9.680 9.340 9.45 9.530 9.620 9.280 9.530 9.120 9.450 9.060 11.857 11.857 0.000 11.715 11.542 0.176 11.857 11.857 0.000 11.715 11.542 0.176
PRIMET_226 2019-09-27 21:40:00 226 3904.0 0.00 197   0.007     9.530 9.120 9.53 9.600 9.690 9.330 100.000 98.600   9.55 9.630 9.720 9.350 9.51 9.570 9.650 9.310 9.550 9.140 9.510 9.090 11.897 11.897 -0.000 11.738 11.573 0.164 11.897 11.897 -0.000 11.738 11.573 0.164
PRIMET_226 2019-09-27 21:35:00 226 3904.0 0.00 190   0.007     9.530 9.130 9.53 9.610 9.690 9.340 100.000 98.600   9.56 9.630 9.710 9.360 9.51 9.580 9.660 9.330 9.560 9.150 9.510 9.120 11.897 11.897 -0.000 11.746 11.581 0.164 11.897 11.897 -0.000 11.746 11.581 0.164
PRIMET_226 2019-09-27 21:30:00 226 3904.0 0.00 206   0.006     9.530 9.140 9.53 9.590 9.680 9.360 100.000 98.500   9.56 9.620 9.700 9.390 9.50 9.560 9.640 9.330 9.560 9.180 9.500 9.110 11.897 11.897 -0.000 11.762 11.589 0.176 11.897 11.897 -0.000 11.762 11.589 0.176
PRIMET_226 2019-09-27 21:25:00 226 3904.0 0.00 191   0.007     9.560 9.190 9.56 9.630 9.720 9.410 100.000 98.500   9.58 9.650 9.750 9.420 9.55 9.610 9.700 9.380 9.580 9.210 9.550 9.170 11.921 11.921 -0.000 11.802 11.628 0.177 11.921 11.921 -0.000 11.802 11.628 0.177
PRIMET_226 2019-09-27 21:20:00 226 3904.0 0.00 203   0.007     9.580 9.180 9.58 9.650 9.740 9.410 100.000 98.500   9.60 9.660 9.750 9.430 9.56 9.640 9.730 9.400 9.600 9.200 9.560 9.170 11.937 11.937 0.000 11.802 11.620 0.177 11.937 11.937 0.000 11.802 11.620 0.177
PRIMET_226 2019-09-27 21:15:00 226 3904.0 0.00 197   0.007     9.520 9.140 9.57 9.630 9.720 9.400 99.700 98.200   9.58 9.660 9.740 9.420 9.55 9.610 9.700 9.380 9.570 9.170 9.490 9.110 11.929 11.889 0.036 11.794 11.589 0.212 11.929 11.889 0.036 11.794 11.589 0.212
PRIMET_226 2019-09-27 21:10:00 226 3904.0 0.00 209   0.007     9.510 9.150 9.60 9.660 9.750 9.440 99.400 98.100   9.63 9.680 9.770 9.470 9.57 9.640 9.740 9.410 9.540 9.190 9.490 9.130 11.953 11.881 0.072 11.826 11.597 0.225 11.953 11.881 0.072 11.826 11.597 0.225
PRIMET_226 2019-09-27 21:05:00 226 3904.0 0.00 214   0.007     9.640 9.230 9.69 9.750 9.830 9.510 99.600 98.100   9.73 9.800 9.870 9.540 9.63 9.680 9.770 9.480 9.690 9.260 9.540 9.190 12.026 11.986 0.048 11.881 11.659 0.226 12.026 11.986 0.048 11.881 11.659 0.226
PRIMET_226 2019-09-27 21:00:00 226 3904.0 0.00 208   0.007     9.630 9.240 9.71 9.790 9.870 9.540 99.500 98.000   9.73 9.800 9.880 9.570 9.70 9.770 9.860 9.520 9.690 9.260 9.580 9.230 12.042 11.978 0.060 11.905 11.667 0.238 12.042 11.978 0.060 11.905 11.667 0.238
PRIMET_226 2019-09-27 20:55:00 226 3904.0 0.00 201   0.007     9.650 9.300 9.75 9.810 9.910 9.600 99.400 98.000   9.79 9.860 9.970 9.640 9.70 9.770 9.870 9.560 9.710 9.350 9.570 9.240 12.075 11.994 0.072 11.953 11.715 0.239 12.075 11.994 0.072 11.953 11.715 0.239
PRIMET_226 2019-09-27 20:50:00 226 3904.0 0.00 206   0.007     9.730 9.340 9.79 9.880 9.980 9.640 99.600 98.000   9.81 9.890 9.990 9.650 9.77 9.860 9.960 9.610 9.760 9.360 9.700 9.300 12.107 12.058 0.048 11.986 11.746 0.240 12.107 12.058 0.048 11.986 11.746 0.240
PRIMET_226 2019-09-27 20:45:00 226 3904.0 0.00 214   0.007     9.700 9.300 9.78 9.860 9.960 9.620 99.500 97.900   9.80 9.870 9.970 9.640 9.77 9.860 9.950 9.610 9.730 9.310 9.660 9.290 12.099 12.034 0.060 11.970 11.715 0.251 12.099 12.034 0.060 11.970 11.715 0.251
PRIMET_226 2019-09-27 20:40:00 226 3904.0 0.00 201   0.007     9.640 9.300 9.77 9.880 9.980 9.640 99.100 97.700   9.79 9.900 9.990 9.660 9.76 9.860 9.970 9.630 9.670 9.320 9.620 9.270 12.091 11.986 0.109 11.986 11.715 0.276 12.091 11.986 0.109 11.986 11.715 0.276
PRIMET_226 2019-09-27 20:35:00 226 3904.0 0.00 197   0.007     9.640 9.270 9.78 9.880 9.980 9.650 99.000 97.500   9.80 9.890 9.990 9.670 9.77 9.880 9.970 9.640 9.650 9.280 9.620 9.260 12.099 11.986 0.121 11.994 11.691 0.300 12.099 11.986 0.121 11.994 11.691 0.300
PRIMET_226 2019-09-27 20:30:00 226 3904.0 0.00 198   0.007     9.640 9.280 9.79 9.900 10.000 9.660 99.000 97.400   9.80 9.910 10.010 9.680 9.78 9.890 9.990 9.650 9.660 9.290 9.610 9.260 12.107 11.986 0.121 12.002 11.699 0.312 12.107 11.986 0.121 12.002 11.699 0.312
PRIMET_226 2019-09-27 20:25:00 226 3904.0 0.00 197   0.007     9.630 9.270 9.80 9.910 10.010 9.680 98.900 97.300   9.82 9.920 10.030 9.690 9.77 9.890 10.000 9.670 9.650 9.280 9.600 9.250 12.115 11.978 0.133 12.018 11.691 0.324 12.115 11.978 0.133 12.018 11.691 0.324
PRIMET_226 2019-09-27 20:20:00 226 3904.0 0.00 199   0.007     9.630 9.240 9.81 9.920 10.020 9.680 98.800 97.100   9.82 9.940 10.040 9.690 9.79 9.900 10.000 9.670 9.650 9.260 9.610 9.230 12.123 11.978 0.145 12.018 11.667 0.349 12.123 11.978 0.145 12.018 11.667 0.349
PRIMET_226 2019-09-27 20:15:00 226 3904.0 0.00 199   0.007     9.620 9.250 9.81 9.910 10.010 9.680 98.700 97.100   9.82 9.920 10.030 9.690 9.79 9.900 10.000 9.660 9.630 9.260 9.590 9.230 12.123 11.970 0.158 12.018 11.675 0.349 12.123 11.970 0.158 12.018 11.675 0.349
PRIMET_226 2019-09-27 20:10:00 226 3904.0 0.00 197   0.007     9.620 9.260 9.82 9.920 10.030 9.690 98.700 97.100   9.83 9.950 10.050 9.710 9.80 9.900 10.010 9.680 9.650 9.310 9.590 9.240 12.131 11.970 0.158 12.026 11.683 0.349 12.131 11.970 0.158 12.026 11.683 0.349
PRIMET_226 2019-09-27 20:05:00 226 3904.0 0.00 191   0.007     9.610 9.280 9.80 9.920 10.020 9.670 98.800 97.400   9.82 9.950 10.060 9.710 9.77 9.880 9.970 9.640 9.650 9.310 9.540 9.240 12.115 11.962 0.145 12.010 11.699 0.312 12.115 11.962 0.145 12.010 11.699 0.312
PRIMET_226 2019-09-27 20:00:00 226 3904.0 0.00 196   0.007     9.540 9.260 9.77 9.880 9.980 9.660 98.500 97.400   9.79 9.890 10.000 9.670 9.75 9.870 9.970 9.630 9.580 9.280 9.520 9.230 12.091 11.905 0.181 12.002 11.683 0.312 12.091 11.905 0.181 12.002 11.683 0.312
PRIMET_226 2019-09-27 19:55:00 226 3904.0 0.00 195   0.007     9.580 9.280 9.81 9.910 10.010 9.680 98.500 97.400   9.82 9.920 10.020 9.680 9.80 9.880 9.990 9.670 9.600 9.290 9.560 9.280 12.123 11.937 0.182 12.018 11.699 0.312 12.123 11.937 0.182 12.018 11.699 0.312
PRIMET_226 2019-09-27 19:50:00 226 3904.0 0.00 194   0.007     9.620 9.310 9.84 9.930 10.030 9.690 98.500 97.500   9.86 9.960 10.060 9.710 9.82 9.890 9.990 9.670 9.660 9.350 9.580 9.280 12.148 11.970 0.182 12.026 11.722 0.301 12.148 11.970 0.182 12.026 11.722 0.301
PRIMET_226 2019-09-27 19:45:00 226 3904.0 0.00 194   0.075     9.550 9.240 9.83 9.920 10.010 9.670 98.100 97.200   9.85 9.930 10.030 9.680 9.82 9.910 10.000 9.650 9.590 9.270 9.510 9.210 12.140 11.913 0.231 12.010 11.667 0.336 12.140 11.913 0.231 12.010 11.667 0.336
PRIMET_226 2019-09-27 19:40:00 226 3904.0 0.00 193   0.010     9.500 9.190 9.85 9.920 10.020 9.670 97.700 96.800   9.87 9.950 10.050 9.690 9.82 9.900 10.000 9.660 9.520 9.220 9.480 9.170 12.156 11.873 0.280 12.010 11.628 0.384 12.156 11.873 0.280 12.010 11.628 0.384
PRIMET_226 2019-09-27 19:35:00 226 3904.0 0.00 193   0.007     9.500 9.190 9.87 9.950 10.040 9.690 97.600 96.700   9.88 9.960 10.050 9.700 9.85 9.930 10.030 9.680 9.530 9.220 9.480 9.180 12.172 11.873 0.292 12.026 11.628 0.397 12.172 11.873 0.292 12.026 11.628 0.397
PRIMET_226 2019-09-27 19:30:00 226 3904.0 0.00 188   0.007     9.520 9.210 9.89 9.970 10.060 9.700 97.600 96.700   9.91 9.990 10.070 9.720 9.86 9.960 10.040 9.680 9.580 9.240 9.500 9.180 12.189 11.889 0.293 12.034 11.644 0.397 12.189 11.889 0.293 12.034 11.644 0.397
PRIMET_226 2019-09-27 19:25:00 226 3904.0 0.00 213   0.007     9.540 9.220 9.87 9.980 10.070 9.700 97.800 96.800   9.91 10.010 10.090 9.720 9.84 9.950 10.050 9.680 9.590 9.240 9.490 9.200 12.172 11.905 0.268 12.034 11.652 0.385 12.172 11.905 0.268 12.034 11.652 0.385
PRIMET_226 2019-09-27 19:20:00 226 3904.0 0.00 192   0.007     9.420 9.140 9.84 9.910 10.010 9.660 97.200 96.500   9.85 9.940 10.040 9.680 9.82 9.890 9.990 9.640 9.460 9.190 9.390 9.110 12.148 11.810 0.340 12.002 11.589 0.420 12.148 11.810 0.340 12.002 11.589 0.420
PRIMET_226 2019-09-27 19:15:00 226 3904.0 0.00 198   0.007     9.380 9.120 9.86 9.930 10.030 9.690 96.800 96.300   9.87 9.950 10.050 9.710 9.84 9.910 10.010 9.670 9.400 9.140 9.350 9.100 12.164 11.778 0.389 12.026 11.573 0.445 12.164 11.778 0.389 12.026 11.573 0.445
PRIMET_226 2019-09-27 19:10:00 226 3904.0 0.00 193   0.007     9.390 9.140 9.91 9.980 10.080 9.720 96.600 96.100   9.94 10.020 10.100 9.740 9.88 9.950 10.040 9.710 9.420 9.160 9.380 9.100 12.205 11.786 0.415 12.050 11.589 0.470 12.205 11.786 0.415 12.050 11.589 0.470
PRIMET_226 2019-09-27 19:05:00 226 3904.0 0.00 197   0.007     9.370 9.080 9.90 9.970 10.060 9.700 96.600 95.900   9.93 10.000 10.080 9.710 9.86 9.930 10.010 9.670 9.410 9.100 9.310 9.040 12.197 11.770 0.415 12.034 11.542 0.493 12.197 11.770 0.415 12.034 11.542 0.493
PRIMET_226 2019-09-27 19:00:00 226 3904.0 0.00 189   0.007     9.280 9.030 9.87 9.930 10.030 9.710 96.100 95.500   9.88 9.940 10.040 9.740 9.85 9.920 10.020 9.690 9.310 9.070 9.240 9.000 12.172 11.699 0.475 12.042 11.503 0.542 12.172 11.699 0.475 12.042 11.503 0.542
PRIMET_226 2019-09-27 18:55:00 226 3904.0 0.00 192   0.007     9.260 9.020 9.91 9.970 10.060 9.750 95.800 95.200   9.94 10.020 10.100 9.780 9.87 9.940 10.040 9.720 9.360 9.090 9.190 8.990 12.205 11.683 0.513 12.075 11.495 0.580 12.205 11.683 0.513 12.075 11.495 0.580
PRIMET_226 2019-09-27 18:50:00 226 3904.0 0.00 195   0.007     9.310 9.100 9.93 10.010 10.110 9.780 95.900 95.500   9.95 10.030 10.130 9.790 9.92 10.010 10.100 9.770 9.360 9.140 9.270 9.060 12.221 11.722 0.501 12.099 11.558 0.544 12.221 11.722 0.501 12.099 11.558 0.544
PRIMET_226 2019-09-27 18:45:00 226 3904.0 0.00 206   0.007     9.260 9.010 9.96 10.020 10.120 9.810 95.400 94.800   9.98 10.030 10.140 9.820 9.94 10.000 10.100 9.790 9.290 9.070 9.230 8.980 12.246 11.683 0.563 12.123 11.488 0.630 12.246 11.683 0.563 12.123 11.488 0.630
PRIMET_226 2019-09-27 18:40:00 226 3904.0 0.00 188   0.007     9.200 9.000 9.96 9.990 10.110 9.840 95.000 94.500   9.99 10.000 10.110 9.880 9.94 9.980 10.100 9.810 9.240 9.030 9.160 8.980 12.246 11.636 0.612 12.148 11.480 0.668 12.246 11.636 0.612 12.148 11.480 0.668
PRIMET_226 2019-09-27 18:35:00 226 3904.0 0.00 192   0.007     9.180 9.040 10.09 10.080 10.200 9.960 94.100 94.000   10.15 10.160 10.270 10.010 10.01 10.000 10.110 9.890 9.220 9.090 9.140 9.000 12.353 11.620 0.729 12.246 11.511 0.735 12.353 11.620 0.729 12.246 11.511 0.735
PRIMET_226 2019-09-27 18:30:00 226 3904.0 0.00 190   0.007     9.030 8.930 10.19 10.200 10.310 10.050 92.500 92.700   10.22 10.230 10.340 10.100 10.15 10.170 10.270 10.020 9.120 9.020 8.940 8.870 12.436 11.503 0.933 12.320 11.426 0.899 12.436 11.503 0.933 12.320 11.426 0.899
PRIMET_226 2019-09-27 18:25:00 226 3904.0 0.00 207   0.007     9.000 8.890 10.30 10.300 10.430 10.180 91.600 91.700   10.37 10.370 10.490 10.260 10.23 10.230 10.350 10.100 9.060 8.920 8.950 8.840 12.528 11.480 1.052 12.428 11.395 1.031 12.528 11.480 1.052 12.428 11.395 1.031
PRIMET_226 2019-09-27 18:20:00 226 3904.0 0.00 200   0.007     8.940 8.820 10.45 10.480 10.600 10.360 90.400 90.200   10.50 10.550 10.680 10.410 10.39 10.380 10.500 10.270 9.080 8.910 8.830 8.770 12.654 11.433 1.215 12.578 11.341 1.233 12.654 11.433 1.215 12.578 11.341 1.233
PRIMET_226 2019-09-27 18:15:00 226 3904.0 0.00 205   0.007     8.770 8.660 10.56 10.630 10.760 10.530 88.700 88.200   10.63 10.690 10.840 10.640 10.49 10.560 10.690 10.420 8.800 8.780 8.700 8.570 12.747 11.303 1.440 12.722 11.219 1.501 12.747 11.303 1.440 12.722 11.219 1.501
PRIMET_226 2019-09-27 18:10:00 226 3904.0 0.00 197   0.226 167.400 23.040 8.540 8.370 10.77 10.830 10.980 10.760 86.100 85.100   10.85 10.970 11.120 10.840 10.64 10.680 10.830 10.630 8.800 8.700 8.260 8.010 12.927 11.128 1.797 12.918 11.000 1.925 12.927 11.128 1.797 12.918 11.000 1.925
PRIMET_226 2019-09-27 18:05:00 226 3904.0 0.00 210   0.205 215.700 0.165 8.210 7.961 10.89 11.000 11.140 10.890 83.500 82.100   10.94 11.070 11.210 10.940 10.86 10.980 11.120 10.840 8.430 8.130 8.010 7.871 13.030 10.881 2.150 13.030 10.699 2.332 13.030 10.881 2.150 13.030 10.699 2.332
PRIMET_226 2019-09-27 18:00:00 226 3904.0 0.00 198   0.099     8.010 7.849 10.95 11.070 11.210 10.960 82.100 81.100   10.98 11.110 11.250 11.000 10.93 11.060 11.200 10.930 8.190 8.140 7.856 7.691 13.083 10.734 2.342 13.091 10.617 2.474 13.083 10.734 2.342 13.091 10.617 2.474
PRIMET_226 2019-09-27 17:55:00 226 3904.0 0.00 198   0.007     7.923 7.742 11.00 11.150 11.290 11.040 81.300 80.100   11.03 11.180 11.320 11.070 10.98 11.100 11.240 11.010 8.100 7.881 7.711 7.656 13.126 10.671 2.455 13.161 10.540 2.619 13.126 10.671 2.455 13.161 10.540 2.619
PRIMET_226 2019-09-27 17:50:00 226 3904.0 0.00 196   0.007     7.842 7.684 11.04 11.190 11.340 11.100 80.600 79.450   11.08 11.200 11.360 11.150 11.01 11.180 11.310 11.070 8.190 8.110 7.684 7.497 13.161 10.612 2.553 13.214 10.498 2.715 13.161 10.612 2.553 13.214 10.498 2.715
PRIMET_226 2019-09-27 17:45:00 226 3904.0 0.00 213   0.007     7.875 7.736 11.15 11.280 11.440 11.220 80.200 79.120   11.21 11.360 11.500 11.290 11.10 11.220 11.370 11.140 8.000 7.925 7.682 7.565 13.258 10.636 2.625 13.319 10.536 2.781 13.258 10.636 2.625 13.319 10.536 2.781
PRIMET_226 2019-09-27 17:40:00 226 3904.0 0.00 198   0.076     7.736 7.581 11.29 11.430 11.590 11.360 78.730 77.530   11.35 11.520 11.680 11.410 11.21 11.350 11.500 11.280 7.998 7.884 7.520 7.411 13.381 10.536 2.846 13.444 10.425 3.021 13.381 10.536 2.846 13.444 10.425 3.021
PRIMET_226 2019-09-27 17:35:00 226 3904.0 0.00 206   0.007     7.757 7.566 11.37 11.550 11.710 11.460 78.430 76.970   11.42 11.610 11.760 11.500 11.32 11.500 11.680 11.410 7.957 7.895 7.614 7.379 13.452 10.551 2.902 13.533 10.414 3.117 13.452 10.551 2.902 13.533 10.414 3.117
PRIMET_226 2019-09-27 17:30:00 226 3904.0 0.00 198   0.007     7.725 7.360 11.44 11.620 11.760 11.500 77.920 75.700   11.47 11.650 11.780 11.520 11.40 11.590 11.730 11.480 7.930 7.712 7.482 7.059 13.515 10.528 2.984 13.569 10.268 3.297 13.515 10.528 2.984 13.569 10.268 3.297
PRIMET_226 2019-09-27 17:25:00 226 3904.0 0.00 256   0.007     7.632 7.356 11.47 11.630 11.780 11.540 77.270 75.460   11.51 11.690 11.840 11.600 11.44 11.600 11.740 11.500 8.120 7.578 7.300 7.167 13.542 10.461 3.078 13.605 10.265 3.339 13.542 10.461 3.078 13.605 10.265 3.339
PRIMET_226 2019-09-27 17:20:00 226 3904.0 0.00 188   0.007     7.548 7.372 11.52 11.710 11.860 11.610 76.570 75.190   11.54 11.720 11.890 11.640 11.50 11.690 11.840 11.580 7.737 7.585 7.251 7.134 13.587 10.401 3.183 13.668 10.277 3.391 13.587 10.401 3.183 13.668 10.277 3.391
PRIMET_226 2019-09-27 17:15:00 226 3904.0 0.00 202   0.058     7.394 7.175 11.51 11.720 11.880 11.650 75.790 74.010   11.54 11.750 11.900 11.670 11.50 11.700 11.870 11.630 7.806 7.371 7.151 6.964 13.578 10.292 3.287 13.704 10.139 3.562 13.578 10.292 3.287 13.704 10.139 3.562
PRIMET_226 2019-09-27 17:10:00 226 3904.0 0.00 220   0.131 222.900 0.505 7.640 7.408 11.49 11.710 11.890 11.690 77.170 74.970   11.53 11.730 11.910 11.710 11.46 11.700 11.880 11.670 7.937 7.717 7.209 6.924 13.560 10.467 3.096 13.740 10.302 3.439 13.560 10.467 3.096 13.740 10.302 3.439
PRIMET_226 2019-09-27 17:05:00 226 3904.0 0.00 225   0.089     7.331 7.018 11.46 11.660 11.870 11.710 75.740 72.890   11.47 11.690 11.890 11.740 11.44 11.640 11.850 11.690 7.589 7.252 7.000 6.727 13.533 10.248 3.283 13.759 10.030 3.730 13.533 10.248 3.283 13.759 10.030 3.730
PRIMET_226 2019-09-27 17:00:00 226 3904.0 0.00 232   0.007     6.830 6.701 11.46 11.640 11.860 11.750 73.150 71.150   11.48 11.650 11.870 11.780 11.44 11.610 11.850 11.720 7.071 7.064 6.532 6.410 13.533 9.902 3.634 13.795 9.814 3.980 13.533 9.902 3.634 13.795 9.814 3.980
PRIMET_226 2019-09-27 16:55:00 226 3904.0 0.00 206   0.006     6.757 6.509 11.59 11.680 11.930 11.880 72.200 69.600   11.71 11.770 12.030 11.980 11.48 11.580 11.840 11.790 7.052 6.742 6.498 6.224 13.650 9.852 3.795 13.914 9.685 4.230 13.650 9.852 3.795 13.914 9.685 4.230
PRIMET_226 2019-09-27 16:50:00 226 3904.0 0.00 210   0.007     6.760 6.390 11.88 11.970 12.200 12.100 70.850 68.070   12.00 12.090 12.300 12.160 11.73 11.790 12.050 12.010 7.216 6.953 6.377 5.724 13.914 9.854 4.056 14.117 9.606 4.508 13.914 9.854 4.056 14.117 9.606 4.508
PRIMET_226 2019-09-27 16:45:00 226 3904.0 0.00 192   0.124 207.300 13.910 6.292 5.969 12.07 12.180 12.380 12.230 67.750 65.560   12.11 12.220 12.410 12.290 12.02 12.090 12.300 12.160 6.815 6.668 5.627 5.544 14.089 9.541 4.544 14.239 9.331 4.904 14.089 9.541 4.544 14.239 9.331 4.904
PRIMET_226 2019-09-27 16:40:00 226 3904.0 0.00 198   0.110 242.700 16.400 7.098 6.227 12.25 12.360 12.530 12.380 70.780 66.070   12.32 12.420 12.580 12.440 12.13 12.200 12.400 12.310 7.908 6.670 6.318 5.893 14.257 10.086 4.166 14.380 9.499 4.879 14.257 10.086 4.166 14.380 9.499 4.879
PRIMET_226 2019-09-27 16:35:00 226 3904.0 0.00 219   0.007     7.171 6.724 12.52 12.490 12.650 12.570 69.870 67.510   12.67 12.670 12.830 12.720 12.33 12.390 12.550 12.440 8.020 7.805 6.737 6.200 14.513 10.136 4.373 14.560 9.830 4.731 14.513 10.136 4.373 14.560 9.830 4.731
PRIMET_226 2019-09-27 16:30:00 226 3904.0 0.00 197   0.049     7.304 7.169 12.80 12.820 12.970 12.820 69.220 68.510   12.88 12.940 13.080 12.890 12.68 12.690 12.840 12.730 7.953 7.989 7.079 6.219 14.782 10.229 4.550 14.801 10.135 4.661 14.782 10.229 4.550 14.801 10.135 4.661
PRIMET_226 2019-09-27 16:25:00 226 3904.0 0.00 200   0.101 256.300 11.090 6.992 6.163 13.01 13.030 13.170 12.990 66.830 63.210   13.09 13.110 13.250 13.060 12.90 12.920 13.070 12.890 7.518 6.996 6.116 5.472 14.986 10.012 4.971 14.967 9.457 5.506 14.986 10.012 4.971 14.967 9.457 5.506
PRIMET_226 2019-09-27 16:20:00 226 3904.0 0.00 204   0.145 264.000 13.690 7.238 6.341 13.21 13.190 13.330 13.190 67.100 63.130   13.27 13.270 13.420 13.300 13.09 13.110 13.240 13.070 7.968 7.258 6.684 5.705 15.183 10.183 4.995 15.164 9.574 5.591 15.183 10.183 4.995 15.164 9.574 5.591
PRIMET_226 2019-09-27 16:15:00 226 3904.0 0.00 209   0.243 231.100 18.400 7.133 6.693 13.45 13.420 13.580 13.490 65.640 63.500 1.339 13.57 13.570 13.750 13.650 13.28 13.280 13.430 13.320 7.953 7.586 4.778 5.051 15.423 10.110 5.299 15.463 9.809 5.644 15.423 10.110 5.299 15.463 9.809 5.644
PRIMET_226 2019-09-27 16:10:00 226 3904.0 0.00 215   0.210 234.000 37.710 6.674 6.029 13.60 13.720 13.910 13.780 63.030 59.660   13.63 13.890 14.070 13.840 13.56 13.590 13.770 13.680 7.895 7.523 4.586 3.419 15.574 9.796 5.758 15.758 9.369 6.357 15.574 9.796 5.758 15.758 9.369 6.357
PRIMET_226 2019-09-27 16:05:00 226 3904.0 0.00 209   0.475 187.500 33.660 6.852 6.053 13.62 13.770 13.970 13.840 63.740 59.530 1.470 13.66 13.850 14.020 13.900 13.55 13.650 13.870 13.790 8.340 7.986 4.149 3.782 15.595 9.917 5.655 15.819 9.385 6.402 15.595 9.917 5.655 15.819 9.385 6.402